GEFSSE_prec_meanprecacc_066.txt.gz
Total_Precipitation_Accumulation
0.00 0.01 0.02 0.02 0.04 0.06 0.06 0.06 0.08 0.09 0.08 0.09 0.11 0.15 0.14 0.10 0.08 0.07 0.07 0.08 0.10 0.14 0.14 0.13 0.13 0.13 0.11 0.09 0.06 0.04 0.03 0.03 0.04 0.04 0.06 0.08 0.09 0.09 0.09 0.09 0.14 0.20 0.07
0.01 0.00 0.01 0.01 0.03 0.05 0.06 0.05 0.06 0.07 0.06 0.08 0.09 0.11 0.11 0.10 0.09 0.08 0.07 0.08 0.10 0.13 0.13 0.11 0.09 0.11 0.09 0.06 0.04 0.02 0.02 0.03 0.07 0.09 0.09 0.11 0.14 0.12 0.12 0.11 0.19 0.35 0.16
0.01 0.00 0.01 0.02 0.03 0.04 0.05 0.06 0.06 0.05 0.06 0.08 0.09 0.09 0.10 0.09 0.09 0.08 0.08 0.11 0.16 0.19 0.17 0.14 0.12 0.13 0.11 0.07 0.04 0.02 0.02 0.05 0.10 0.17 0.31 0.32 0.33 0.17 0.15 0.12 0.13 0.15 0.18
0.01 0.00 0.01 0.02 0.03 0.04 0.04 0.05 0.08 0.08 0.07 0.07 0.08 0.08 0.09 0.08 0.08 0.08 0.08 0.11 0.17 0.21 0.21 0.19 0.16 0.14 0.11 0.06 0.04 0.03 0.03 0.06 0.13 0.28 0.54 0.53 0.47 0.29 0.20 0.19 0.18 0.16 0.20
0.01 0.00 0.01 0.02 0.02 0.04 0.04 0.04 0.07 0.08 0.07 0.07 0.08 0.08 0.09 0.09 0.08 0.09 0.10 0.10 0.12 0.16 0.15 0.11 0.09 0.09 0.09 0.05 0.03 0.03 0.04 0.08 0.18 0.40 0.74 0.89 0.73 0.43 0.23 0.22 0.25 0.25 0.26
0.01 0.00 0.01 0.02 0.03 0.05 0.05 0.06 0.07 0.08 0.08 0.09 0.10 0.12 0.12 0.11 0.10 0.12 0.14 0.14 0.13 0.13 0.12 0.09 0.08 0.07 0.08 0.04 0.03 0.05 0.07 0.12 0.23 0.55 0.88 0.98 0.64 0.40 0.29 0.29 0.29 0.31 0.30
0.02 0.01 0.01 0.02 0.05 0.07 0.08 0.11 0.13 0.13 0.13 0.14 0.16 0.17 0.16 0.14 0.14 0.15 0.16 0.16 0.15 0.15 0.12 0.11 0.12 0.11 0.07 0.03 0.02 0.04 0.06 0.10 0.27 0.85 1.01 0.95 0.69 0.42 0.32 0.28 0.25 0.25 0.25
0.02 0.01 0.00 0.02 0.05 0.10 0.14 0.16 0.18 0.15 0.14 0.14 0.17 0.19 0.16 0.12 0.11 0.11 0.11 0.12 0.14 0.16 0.15 0.10 0.06 0.05 0.02 0.01 0.01 0.03 0.06 0.09 0.23 0.59 0.82 0.69 0.48 0.29 0.22 0.16 0.15 0.14 0.14
0.02 0.01 0.00 0.01 0.03 0.11 0.18 0.17 0.16 0.14 0.13 0.15 0.18 0.21 0.18 0.12 0.09 0.08 0.10 0.12 0.12 0.11 0.08 0.04 0.02 0.01 0.00 0.01 0.01 0.02 0.04 0.06 0.16 0.32 0.43 0.42 0.34 0.18 0.11 0.08 0.07 0.07 0.06
0.03 0.01 0.01 0.02 0.05 0.10 0.11 0.12 0.12 0.11 0.12 0.14 0.16 0.15 0.12 0.08 0.08 0.08 0.07 0.07 0.07 0.08 0.08 0.04 0.02 0.01 0.01 0.01 0.01 0.01 0.02 0.03 0.10 0.20 0.42 0.49 0.30 0.15 0.09 0.07 0.05 0.05 0.04
0.02 0.01 0.01 0.02 0.03 0.05 0.05 0.02 0.04 0.05 0.07 0.07 0.06 0.07 0.06 0.08 0.12 0.12 0.07 0.06 0.09 0.10 0.08 0.04 0.02 0.02 0.01 0.01 0.01 0.01 0.01 0.02 0.10 0.30 0.56 0.59 0.29 0.15 0.08 0.06 0.05 0.04 0.03
0.01 0.01 0.01 0.01 0.02 0.04 0.05 0.03 0.04 0.03 0.03 0.03 0.05 0.03 0.06 0.19 0.27 0.20 0.17 0.12 0.10 0.08 0.04 0.03 0.03 0.02 0.02 0.02 0.03 0.02 0.02 0.02 0.11 0.39 0.52 0.28 0.20 0.16 0.11 0.07 0.05 0.04 0.04
0.03 0.01 0.01 0.01 0.03 0.14 0.16 0.06 0.07 0.07 0.06 0.04 0.09 0.07 0.15 0.22 0.18 0.16 0.18 0.12 0.08 0.05 0.05 0.06 0.04 0.03 0.03 0.04 0.05 0.04 0.05 0.07 0.10 0.26 0.37 0.22 0.19 0.20 0.16 0.12 0.07 0.06 0.06
0.04 0.02 0.01 0.01 0.04 0.10 0.14 0.07 0.06 0.06 0.06 0.07 0.11 0.07 0.17 0.23 0.22 0.24 0.32 0.23 0.18 0.16 0.15 0.11 0.09 0.07 0.06 0.07 0.06 0.06 0.07 0.08 0.10 0.17 0.20 0.15 0.17 0.22 0.22 0.19 0.15 0.12 0.12
0.07 0.05 0.03 0.02 0.04 0.04 0.06 0.06 0.06 0.06 0.05 0.06 0.10 0.10 0.15 0.19 0.22 0.28 0.33 0.38 0.27 0.28 0.27 0.22 0.18 0.19 0.15 0.10 0.09 0.09 0.08 0.09 0.10 0.13 0.17 0.17 0.19 0.25 0.30 0.27 0.23 0.20 0.21
0.11 0.11 0.08 0.05 0.03 0.03 0.04 0.05 0.06 0.06 0.09 0.11 0.13 0.13 0.11 0.18 0.33 0.40 0.39 0.37 0.27 0.27 0.33 0.41 0.39 0.28 0.21 0.18 0.14 0.13 0.12 0.14 0.15 0.17 0.21 0.19 0.21 0.25 0.32 0.33 0.32 0.31 0.28
0.15 0.14 0.13 0.12 0.05 0.04 0.04 0.06 0.09 0.11 0.13 0.17 0.23 0.18 0.15 0.19 0.33 0.34 0.41 0.42 0.35 0.32 0.30 0.32 0.36 0.38 0.33 0.28 0.24 0.18 0.19 0.21 0.26 0.31 0.34 0.28 0.27 0.29 0.33 0.35 0.34 0.32 0.29
0.18 0.16 0.14 0.13 0.09 0.07 0.08 0.11 0.15 0.18 0.24 0.28 0.29 0.34 0.33 0.30 0.36 0.41 0.46 0.49 0.46 0.45 0.49 0.49 0.46 0.47 0.48 0.43 0.41 0.38 0.34 0.36 0.35 0.38 0.36 0.39 0.42 0.36 0.33 0.30 0.29 0.29 0.28
0.19 0.15 0.15 0.14 0.13 0.12 0.13 0.17 0.24 0.28 0.34 0.41 0.42 0.60 0.65 0.59 0.56 0.61 0.66 0.70 0.69 0.72 0.70 0.64 0.61 0.58 0.62 0.59 0.45 0.40 0.39 0.42 0.39 0.34 0.34 0.37 0.41 0.38 0.32 0.28 0.28 0.28 0.28
0.32 0.23 0.19 0.18 0.22 0.22 0.22 0.27 0.33 0.42 0.51 0.61 0.68 0.83 0.97 1.07 1.04 1.02 1.00 0.99 0.98 0.96 0.89 0.78 0.72 0.65 0.60 0.54 0.40 0.34 0.31 0.29 0.29 0.29 0.29 0.29 0.29 0.28 0.28 0.27 0.25 0.23 0.24
0.48 0.39 0.31 0.30 0.37 0.42 0.47 0.50 0.59 0.80 0.97 1.15 1.38 1.59 1.67 1.61 1.55 1.45 1.35 1.34 1.25 1.14 1.01 0.91 0.78 0.67 0.57 0.46 0.43 0.39 0.29 0.22 0.20 0.20 0.21 0.22 0.23 0.25 0.29 0.30 0.26 0.21 0.19
0.77 0.65 0.58 0.58 0.73 0.91 1.12 1.35 1.59 1.80 1.90 2.07 2.25 2.32 2.26 2.11 2.00 1.88 1.79 1.69 1.49 1.32 1.15 0.98 0.84 0.74 0.62 0.50 0.47 0.49 0.42 0.31 0.21 0.17 0.17 0.16 0.16 0.15 0.17 0.18 0.17 0.16 0.15
1.06 1.00 0.94 1.02 1.36 1.81 2.01 2.16 2.51 2.81 2.86 2.86 2.77 2.67 2.60 2.49 2.36 2.21 2.10 1.95 1.71 1.46 1.26 1.05 0.87 0.75 0.64 0.53 0.46 0.46 0.43 0.36 0.25 0.18 0.14 0.11 0.10 0.10 0.10 0.09 0.10 0.11 0.11
1.21 1.26 1.27 1.52 1.98 2.38 2.65 3.03 3.44 3.66 3.77 3.79 3.49 3.13 2.79 2.49 2.25 2.03 1.87 1.67 1.46 1.24 1.08 0.91 0.74 0.61 0.56 0.47 0.39 0.33 0.29 0.25 0.23 0.18 0.11 0.08 0.07 0.06 0.06 0.06 0.06 0.07 0.07
1.05 1.27 1.45 1.80 2.20 2.68 3.22 3.73 4.06 4.19 4.17 3.87 3.32 2.80 2.47 2.24 1.97 1.70 1.47 1.26 1.06 0.89 0.76 0.66 0.56 0.49 0.44 0.37 0.30 0.24 0.21 0.18 0.16 0.16 0.13 0.08 0.07 0.07 0.06 0.06 0.06 0.07 0.07
1.10 1.27 1.49 1.74 2.10 2.61 3.10 3.51 3.54 3.61 3.56 3.20 2.78 2.47 2.23 1.90 1.55 1.23 0.99 0.79 0.62 0.51 0.46 0.42 0.36 0.30 0.25 0.21 0.16 0.12 0.10 0.10 0.10 0.10 0.10 0.08 0.06 0.06 0.06 0.06 0.07 0.07 0.07

GEFSSE_prec_meanprecacc_072.txt.gz
Total_Precipitation_Accumulation
0.00 0.01 0.02 0.02 0.04 0.06 0.06 0.06 0.08 0.09 0.08 0.09 0.11 0.15 0.14 0.10 0.08 0.07 0.07 0.08 0.10 0.14 0.15 0.14 0.13 0.14 0.12 0.09 0.06 0.05 0.03 0.03 0.04 0.05 0.07 0.09 0.11 0.10 0.10 0.10 0.15 0.20 0.08
0.01 0.01 0.01 0.02 0.03 0.05 0.06 0.06 0.06 0.07 0.06 0.08 0.09 0.11 0.11 0.10 0.09 0.08 0.07 0.08 0.10 0.13 0.14 0.12 0.10 0.11 0.10 0.06 0.04 0.03 0.02 0.04 0.08 0.10 0.12 0.13 0.17 0.15 0.13 0.11 0.20 0.35 0.17
0.01 0.00 0.01 0.02 0.03 0.04 0.05 0.06 0.06 0.05 0.06 0.08 0.09 0.09 0.10 0.09 0.09 0.08 0.08 0.11 0.16 0.19 0.17 0.15 0.13 0.13 0.11 0.07 0.04 0.03 0.03 0.06 0.12 0.19 0.33 0.34 0.36 0.22 0.18 0.13 0.13 0.16 0.19
0.01 0.00 0.01 0.02 0.03 0.04 0.04 0.05 0.08 0.08 0.07 0.07 0.08 0.08 0.09 0.08 0.08 0.08 0.08 0.11 0.17 0.21 0.21 0.19 0.16 0.14 0.11 0.06 0.04 0.03 0.03 0.07 0.15 0.30 0.55 0.54 0.51 0.35 0.25 0.21 0.19 0.17 0.21
0.01 0.00 0.01 0.02 0.02 0.04 0.04 0.04 0.07 0.08 0.07 0.07 0.08 0.08 0.09 0.09 0.08 0.09 0.10 0.10 0.12 0.16 0.15 0.11 0.10 0.09 0.09 0.05 0.04 0.04 0.05 0.09 0.20 0.42 0.74 0.91 0.76 0.47 0.27 0.23 0.26 0.26 0.27
0.01 0.00 0.01 0.02 0.03 0.05 0.05 0.06 0.07 0.08 0.08 0.09 0.10 0.12 0.12 0.11 0.10 0.12 0.14 0.14 0.13 0.13 0.12 0.09 0.08 0.07 0.08 0.04 0.03 0.06 0.08 0.13 0.25 0.57 0.89 1.00 0.66 0.43 0.31 0.31 0.32 0.33 0.31
0.02 0.01 0.01 0.02 0.05 0.07 0.08 0.11 0.13 0.13 0.13 0.14 0.16 0.17 0.16 0.14 0.14 0.15 0.16 0.16 0.15 0.15 0.12 0.11 0.12 0.11 0.07 0.03 0.02 0.04 0.07 0.12 0.28 0.88 1.03 0.96 0.72 0.45 0.35 0.30 0.27 0.27 0.27
0.03 0.02 0.01 0.02 0.05 0.10 0.14 0.16 0.18 0.15 0.14 0.14 0.17 0.19 0.16 0.12 0.11 0.11 0.11 0.13 0.14 0.16 0.15 0.10 0.06 0.05 0.02 0.02 0.01 0.03 0.06 0.10 0.24 0.60 0.84 0.70 0.50 0.33 0.25 0.19 0.17 0.16 0.15
0.03 0.02 0.01 0.01 0.03 0.11 0.18 0.17 0.16 0.14 0.14 0.15 0.19 0.21 0.18 0.12 0.09 0.08 0.10 0.12 0.12 0.12 0.09 0.04 0.02 0.01 0.00 0.01 0.01 0.02 0.04 0.07 0.17 0.33 0.44 0.42 0.35 0.21 0.15 0.12 0.09 0.08 0.08
0.06 0.03 0.02 0.02 0.06 0.10 0.12 0.12 0.12 0.12 0.12 0.14 0.16 0.15 0.12 0.08 0.08 0.08 0.07 0.07 0.07 0.09 0.09 0.05 0.02 0.01 0.01 0.01 0.01 0.01 0.02 0.04 0.10 0.21 0.43 0.50 0.31 0.18 0.13 0.10 0.08 0.06 0.05
0.06 0.04 0.02 0.02 0.04 0.05 0.05 0.02 0.04 0.06 0.08 0.07 0.06 0.07 0.06 0.08 0.12 0.12 0.08 0.06 0.09 0.11 0.08 0.04 0.02 0.02 0.01 0.01 0.01 0.02 0.02 0.02 0.10 0.30 0.57 0.61 0.32 0.19 0.12 0.10 0.07 0.06 0.04
0.04 0.03 0.03 0.02 0.02 0.04 0.05 0.03 0.04 0.03 0.03 0.03 0.05 0.03 0.06 0.19 0.27 0.20 0.17 0.12 0.11 0.08 0.05 0.04 0.03 0.02 0.02 0.02 0.03 0.02 0.02 0.02 0.11 0.39 0.52 0.30 0.25 0.23 0.17 0.13 0.08 0.06 0.05
0.07 0.03 0.04 0.03 0.04 0.15 0.16 0.06 0.07 0.07 0.06 0.04 0.09 0.07 0.15 0.22 0.18 0.16 0.18 0.12 0.08 0.06 0.05 0.07 0.05 0.03 0.03 0.04 0.05 0.05 0.06 0.07 0.11 0.27 0.38 0.24 0.24 0.27 0.26 0.19 0.12 0.09 0.08
0.10 0.05 0.03 0.03 0.06 0.12 0.15 0.08 0.06 0.06 0.06 0.07 0.11 0.07 0.17 0.23 0.22 0.24 0.32 0.23 0.18 0.16 0.15 0.11 0.09 0.08 0.08 0.08 0.09 0.08 0.08 0.09 0.11 0.18 0.21 0.17 0.21 0.30 0.34 0.29 0.22 0.17 0.16
0.13 0.08 0.04 0.04 0.07 0.09 0.10 0.07 0.06 0.06 0.05 0.06 0.10 0.10 0.15 0.19 0.22 0.28 0.33 0.38 0.27 0.29 0.28 0.24 0.20 0.21 0.19 0.13 0.11 0.11 0.11 0.12 0.13 0.16 0.19 0.19 0.23 0.33 0.42 0.40 0.34 0.28 0.26
0.19 0.17 0.13 0.10 0.06 0.07 0.08 0.07 0.07 0.06 0.09 0.11 0.13 0.13 0.11 0.18 0.34 0.41 0.40 0.39 0.28 0.28 0.35 0.43 0.42 0.31 0.25 0.22 0.17 0.17 0.17 0.18 0.20 0.21 0.23 0.21 0.25 0.32 0.43 0.47 0.46 0.44 0.38
0.26 0.26 0.25 0.23 0.11 0.08 0.08 0.09 0.11 0.12 0.15 0.19 0.24 0.20 0.17 0.21 0.35 0.38 0.45 0.46 0.39 0.36 0.36 0.36 0.41 0.43 0.37 0.33 0.30 0.26 0.25 0.26 0.30 0.35 0.38 0.33 0.32 0.37 0.44 0.49 0.49 0.48 0.45
0.33 0.33 0.32 0.27 0.17 0.14 0.15 0.17 0.20 0.22 0.29 0.32 0.32 0.36 0.36 0.35 0.42 0.48 0.53 0.56 0.53 0.53 0.57 0.57 0.54 0.54 0.55 0.48 0.47 0.44 0.40 0.40 0.39 0.43 0.42 0.45 0.50 0.44 0.42 0.44 0.46 0.48 0.48
0.35 0.34 0.33 0.28 0.23 0.21 0.22 0.26 0.34 0.38 0.43 0.49 0.50 0.66 0.74 0.71 0.69 0.74 0.79 0.82 0.83 0.86 0.84 0.75 0.71 0.68 0.71 0.65 0.52 0.46 0.45 0.48 0.45 0.40 0.41 0.45 0.50 0.46 0.42 0.39 0.43 0.48 0.49
0.58 0.50 0.46 0.40 0.37 0.36 0.37 0.43 0.50 0.57 0.65 0.75 0.83 0.98 1.13 1.26 1.25 1.24 1.21 1.18 1.18 1.14 1.05 0.94 0.86 0.76 0.69 0.61 0.46 0.39 0.37 0.35 0.35 0.36 0.36 0.38 0.37 0.35 0.37 0.38 0.36 0.36 0.40
0.84 0.84 0.79 0.70 0.65 0.66 0.69 0.70 0.76 0.98 1.17 1.36 1.59 1.82 1.92 1.87 1.81 1.69 1.57 1.54 1.44 1.33 1.19 1.05 0.90 0.76 0.65 0.53 0.49 0.45 0.34 0.26 0.24 0.25 0.26 0.28 0.29 0.30 0.37 0.39 0.36 0.33 0.31
1.13 1.14 1.15 1.16 1.23 1.38 1.55 1.72 1.92 2.10 2.17 2.32 2.49 2.59 2.54 2.38 2.26 2.11 2.00 1.89 1.68 1.50 1.31 1.11 0.93 0.82 0.69 0.57 0.56 0.57 0.49 0.35 0.24 0.20 0.20 0.20 0.21 0.20 0.22 0.24 0.24 0.25 0.25
1.27 1.35 1.41 1.59 2.07 2.56 2.70 2.83 3.06 3.28 3.22 3.13 3.01 2.91 2.83 2.74 2.61 2.44 2.30 2.13 1.86 1.60 1.38 1.16 0.96 0.84 0.73 0.63 0.56 0.56 0.51 0.41 0.29 0.20 0.17 0.14 0.13 0.15 0.15 0.16 0.18 0.19 0.19
1.46 1.56 1.70 2.12 2.77 3.30 3.52 3.86 4.24 4.31 4.30 4.22 3.83 3.40 3.01 2.70 2.46 2.25 2.06 1.84 1.59 1.35 1.18 1.00 0.83 0.70 0.64 0.56 0.48 0.42 0.37 0.31 0.28 0.22 0.14 0.11 0.11 0.11 0.11 0.12 0.14 0.16 0.16
1.32 1.62 1.86 2.34 2.91 3.51 4.09 4.56 4.81 4.92 4.78 4.37 3.71 3.09 2.72 2.46 2.18 1.89 1.62 1.40 1.18 0.99 0.83 0.73 0.62 0.55 0.50 0.42 0.35 0.29 0.27 0.24 0.21 0.21 0.18 0.13 0.11 0.10 0.09 0.10 0.11 0.13 0.15
1.31 1.53 1.84 2.13 2.60 3.22 3.75 4.16 4.21 4.29 4.21 3.76 3.27 2.85 2.54 2.14 1.70 1.35 1.09 0.87 0.70 0.58 0.52 0.47 0.42 0.35 0.30 0.24 0.18 0.15 0.14 0.14 0.15 0.16 0.15 0.12 0.10 0.09 0.08 0.09 0.11 0.12 0.13

GEFSSE_prec_meanprecacc_078.txt.gz
Total_Precipitation_Accumulation
0.00 0.01 0.02 0.02 0.05 0.07 0.07 0.06 0.09 0.09 0.08 0.09 0.11 0.15 0.14 0.10 0.08 0.07 0.07 0.08 0.11 0.14 0.15 0.14 0.15 0.15 0.13 0.10 0.07 0.05 0.04 0.03 0.04 0.05 0.07 0.09 0.11 0.11 0.10 0.10 0.15 0.21 0.08
0.01 0.01 0.02 0.02 0.04 0.06 0.07 0.06 0.07 0.07 0.06 0.08 0.09 0.11 0.11 0.10 0.09 0.08 0.07 0.08 0.10 0.13 0.14 0.12 0.10 0.12 0.11 0.06 0.04 0.03 0.02 0.04 0.08 0.11 0.12 0.14 0.18 0.15 0.14 0.11 0.20 0.36 0.17
0.01 0.00 0.01 0.02 0.03 0.05 0.05 0.06 0.06 0.06 0.06 0.08 0.09 0.09 0.10 0.09 0.09 0.08 0.08 0.11 0.16 0.19 0.18 0.15 0.13 0.14 0.12 0.07 0.04 0.03 0.03 0.06 0.12 0.21 0.35 0.36 0.38 0.23 0.19 0.14 0.13 0.16 0.20
0.01 0.00 0.01 0.02 0.03 0.04 0.04 0.06 0.08 0.08 0.07 0.07 0.08 0.08 0.09 0.08 0.08 0.08 0.08 0.11 0.17 0.21 0.21 0.19 0.16 0.14 0.11 0.06 0.04 0.03 0.04 0.08 0.16 0.32 0.58 0.57 0.55 0.38 0.27 0.22 0.20 0.18 0.22
0.01 0.00 0.01 0.02 0.02 0.04 0.04 0.04 0.07 0.08 0.07 0.07 0.08 0.08 0.09 0.09 0.08 0.09 0.10 0.10 0.12 0.16 0.15 0.12 0.10 0.10 0.09 0.06 0.04 0.04 0.06 0.11 0.22 0.44 0.77 0.95 0.84 0.53 0.31 0.27 0.28 0.29 0.29
0.01 0.00 0.01 0.02 0.03 0.05 0.06 0.06 0.08 0.08 0.08 0.09 0.10 0.12 0.12 0.11 0.10 0.12 0.14 0.15 0.13 0.14 0.12 0.09 0.08 0.08 0.08 0.05 0.03 0.06 0.09 0.16 0.26 0.58 0.91 1.02 0.71 0.48 0.36 0.35 0.35 0.36 0.33
0.03 0.02 0.01 0.02 0.05 0.07 0.09 0.11 0.13 0.13 0.13 0.14 0.16 0.17 0.16 0.14 0.14 0.15 0.16 0.16 0.15 0.15 0.13 0.11 0.12 0.11 0.07 0.03 0.03 0.05 0.10 0.15 0.31 0.90 1.06 0.99 0.76 0.50 0.39 0.35 0.32 0.30 0.30
0.04 0.02 0.01 0.02 0.05 0.10 0.14 0.16 0.18 0.16 0.14 0.14 0.17 0.20 0.16 0.12 0.11 0.11 0.12 0.13 0.14 0.16 0.16 0.11 0.07 0.05 0.02 0.02 0.02 0.05 0.09 0.13 0.26 0.63 0.89 0.75 0.55 0.38 0.31 0.25 0.23 0.20 0.19
0.05 0.03 0.02 0.02 0.04 0.11 0.19 0.17 0.16 0.14 0.14 0.15 0.19 0.21 0.18 0.13 0.09 0.08 0.11 0.12 0.12 0.12 0.09 0.04 0.02 0.01 0.01 0.01 0.01 0.03 0.06 0.09 0.20 0.36 0.48 0.48 0.41 0.27 0.23 0.19 0.15 0.13 0.13
0.08 0.05 0.03 0.03 0.06 0.10 0.12 0.12 0.13 0.12 0.13 0.14 0.16 0.15 0.12 0.08 0.08 0.08 0.08 0.08 0.08 0.09 0.09 0.05 0.02 0.01 0.01 0.01 0.01 0.02 0.03 0.05 0.12 0.23 0.48 0.55 0.36 0.25 0.21 0.17 0.14 0.11 0.10
0.11 0.08 0.05 0.03 0.04 0.06 0.05 0.03 0.05 0.07 0.09 0.07 0.06 0.07 0.07 0.08 0.12 0.12 0.08 0.07 0.10 0.11 0.09 0.04 0.03 0.02 0.02 0.01 0.02 0.02 0.02 0.02 0.11 0.32 0.61 0.65 0.37 0.27 0.20 0.17 0.13 0.11 0.09
0.09 0.06 0.06 0.05 0.03 0.05 0.05 0.05 0.06 0.04 0.04 0.03 0.05 0.03 0.06 0.20 0.27 0.20 0.17 0.12 0.11 0.09 0.05 0.04 0.03 0.03 0.02 0.02 0.03 0.02 0.02 0.03 0.11 0.39 0.54 0.32 0.30 0.32 0.28 0.23 0.16 0.12 0.10
0.12 0.05 0.06 0.06 0.05 0.15 0.17 0.10 0.12 0.09 0.07 0.05 0.09 0.08 0.16 0.23 0.18 0.17 0.18 0.12 0.08 0.06 0.06 0.07 0.05 0.03 0.03 0.05 0.06 0.05 0.06 0.09 0.11 0.27 0.38 0.26 0.28 0.35 0.39 0.33 0.23 0.18 0.15
0.16 0.08 0.05 0.06 0.07 0.13 0.18 0.11 0.10 0.08 0.08 0.08 0.13 0.08 0.18 0.24 0.23 0.25 0.33 0.24 0.18 0.17 0.16 0.12 0.11 0.09 0.09 0.09 0.10 0.09 0.10 0.10 0.13 0.20 0.23 0.19 0.25 0.38 0.47 0.43 0.35 0.29 0.25
0.15 0.11 0.10 0.08 0.10 0.12 0.14 0.11 0.09 0.08 0.08 0.09 0.12 0.12 0.16 0.20 0.23 0.30 0.35 0.40 0.29 0.32 0.32 0.27 0.23 0.24 0.21 0.15 0.13 0.12 0.13 0.14 0.15 0.18 0.22 0.21 0.26 0.39 0.55 0.56 0.50 0.45 0.42
0.21 0.19 0.20 0.21 0.14 0.13 0.13 0.12 0.11 0.10 0.13 0.15 0.17 0.17 0.14 0.20 0.36 0.44 0.45 0.45 0.36 0.36 0.43 0.50 0.48 0.37 0.30 0.27 0.21 0.20 0.20 0.21 0.23 0.26 0.28 0.27 0.28 0.36 0.52 0.61 0.66 0.68 0.62
0.31 0.32 0.33 0.37 0.26 0.17 0.15 0.18 0.20 0.19 0.19 0.23 0.30 0.24 0.19 0.23 0.38 0.42 0.51 0.54 0.49 0.46 0.45 0.45 0.50 0.50 0.45 0.40 0.36 0.30 0.30 0.33 0.35 0.41 0.44 0.42 0.39 0.41 0.50 0.59 0.64 0.69 0.69
0.41 0.41 0.43 0.39 0.30 0.25 0.23 0.25 0.30 0.37 0.40 0.41 0.43 0.44 0.40 0.39 0.47 0.54 0.61 0.64 0.62 0.63 0.68 0.68 0.64 0.63 0.63 0.56 0.53 0.50 0.46 0.48 0.46 0.49 0.47 0.51 0.58 0.51 0.49 0.52 0.56 0.62 0.66
0.45 0.45 0.47 0.43 0.37 0.34 0.36 0.39 0.48 0.54 0.62 0.69 0.68 0.83 0.86 0.80 0.77 0.83 0.90 0.93 0.95 1.01 0.98 0.89 0.84 0.78 0.81 0.74 0.58 0.52 0.50 0.55 0.51 0.45 0.45 0.50 0.55 0.51 0.46 0.44 0.49 0.55 0.61
0.70 0.66 0.64 0.60 0.56 0.53 0.55 0.62 0.70 0.77 0.84 0.96 1.03 1.16 1.31 1.41 1.40 1.39 1.37 1.34 1.33 1.29 1.19 1.08 0.99 0.86 0.78 0.69 0.52 0.43 0.41 0.40 0.39 0.39 0.39 0.40 0.40 0.38 0.39 0.40 0.39 0.40 0.46
0.93 0.99 0.95 0.91 0.92 0.95 1.00 0.99 1.01 1.22 1.40 1.61 1.81 2.02 2.14 2.09 2.03 1.89 1.76 1.70 1.58 1.49 1.36 1.21 1.01 0.85 0.71 0.59 0.57 0.51 0.39 0.30 0.27 0.27 0.28 0.30 0.31 0.33 0.39 0.41 0.38 0.35 0.35
1.17 1.20 1.25 1.30 1.45 1.70 1.92 2.15 2.31 2.49 2.52 2.63 2.76 2.83 2.77 2.62 2.51 2.34 2.22 2.08 1.85 1.67 1.47 1.25 1.04 0.91 0.76 0.64 0.65 0.66 0.57 0.40 0.28 0.22 0.22 0.22 0.22 0.21 0.24 0.26 0.26 0.26 0.26
1.30 1.40 1.49 1.72 2.26 2.82 3.05 3.23 3.46 3.70 3.63 3.48 3.33 3.22 3.14 3.01 2.85 2.66 2.52 2.32 2.03 1.74 1.49 1.26 1.05 0.94 0.82 0.70 0.64 0.65 0.61 0.50 0.35 0.24 0.19 0.15 0.14 0.15 0.16 0.16 0.19 0.21 0.22
1.49 1.61 1.77 2.23 2.92 3.50 3.81 4.18 4.58 4.70 4.72 4.64 4.20 3.72 3.29 2.96 2.71 2.48 2.28 2.05 1.78 1.51 1.30 1.09 0.89 0.76 0.71 0.62 0.53 0.46 0.42 0.36 0.34 0.27 0.17 0.13 0.12 0.12 0.12 0.13 0.15 0.18 0.20
1.34 1.66 1.93 2.44 3.05 3.71 4.36 4.86 5.14 5.29 5.21 4.79 4.06 3.38 2.97 2.70 2.39 2.09 1.82 1.57 1.34 1.11 0.93 0.80 0.67 0.59 0.54 0.47 0.39 0.33 0.30 0.27 0.24 0.25 0.21 0.15 0.13 0.13 0.12 0.12 0.12 0.14 0.17
1.34 1.57 1.90 2.22 2.74 3.38 3.93 4.38 4.45 4.56 4.51 4.08 3.58 3.11 2.76 2.34 1.87 1.49 1.22 1.00 0.81 0.67 0.59 0.53 0.46 0.39 0.34 0.29 0.23 0.18 0.17 0.18 0.19 0.20 0.20 0.15 0.12 0.11 0.11 0.11 0.12 0.13 0.14

GEFSSE_prec_meanprecacc_084.txt.gz
Total_Precipitation_Accumulation
0.01 0.01 0.02 0.02 0.05 0.07 0.07 0.06 0.09 0.09 0.08 0.09 0.11 0.15 0.14 0.10 0.08 0.07 0.07 0.08 0.11 0.14 0.16 0.15 0.16 0.17 0.15 0.12 0.08 0.06 0.05 0.04 0.04 0.05 0.07 0.09 0.11 0.11 0.11 0.10 0.16 0.22 0.08
0.01 0.01 0.02 0.02 0.04 0.06 0.07 0.07 0.07 0.07 0.07 0.08 0.09 0.11 0.11 0.10 0.09 0.08 0.07 0.08 0.10 0.13 0.14 0.13 0.12 0.14 0.12 0.07 0.05 0.03 0.03 0.04 0.08 0.11 0.12 0.14 0.18 0.16 0.14 0.12 0.22 0.37 0.17
0.01 0.00 0.01 0.02 0.03 0.05 0.05 0.06 0.07 0.06 0.06 0.08 0.09 0.09 0.10 0.09 0.09 0.08 0.09 0.11 0.16 0.19 0.18 0.15 0.14 0.15 0.12 0.08 0.05 0.03 0.03 0.06 0.12 0.21 0.39 0.41 0.39 0.23 0.20 0.14 0.14 0.17 0.20
0.01 0.00 0.01 0.02 0.03 0.04 0.04 0.06 0.08 0.08 0.07 0.07 0.08 0.08 0.09 0.08 0.08 0.08 0.08 0.12 0.17 0.22 0.22 0.19 0.17 0.15 0.11 0.07 0.05 0.03 0.04 0.08 0.17 0.34 0.71 0.67 0.58 0.39 0.27 0.23 0.21 0.18 0.23
0.01 0.00 0.01 0.02 0.02 0.04 0.04 0.05 0.08 0.09 0.08 0.08 0.08 0.08 0.09 0.09 0.08 0.09 0.10 0.11 0.13 0.16 0.16 0.12 0.10 0.10 0.10 0.06 0.04 0.04 0.06 0.11 0.24 0.50 0.89 1.03 0.91 0.55 0.31 0.27 0.29 0.29 0.31
0.01 0.00 0.01 0.02 0.04 0.05 0.06 0.07 0.08 0.08 0.08 0.09 0.10 0.12 0.12 0.11 0.10 0.12 0.15 0.15 0.14 0.14 0.12 0.09 0.08 0.08 0.09 0.05 0.04 0.06 0.10 0.17 0.29 0.66 0.96 1.07 0.77 0.51 0.36 0.35 0.36 0.36 0.34
0.03 0.02 0.01 0.02 0.05 0.08 0.09 0.11 0.13 0.13 0.13 0.14 0.16 0.17 0.16 0.14 0.14 0.15 0.16 0.17 0.15 0.15 0.13 0.11 0.12 0.11 0.07 0.03 0.03 0.05 0.10 0.17 0.35 0.97 1.08 1.02 0.82 0.53 0.41 0.37 0.33 0.31 0.31
0.04 0.04 0.02 0.02 0.05 0.11 0.14 0.17 0.19 0.16 0.14 0.15 0.17 0.20 0.16 0.13 0.11 0.11 0.12 0.13 0.14 0.17 0.16 0.11 0.07 0.05 0.02 0.02 0.02 0.05 0.09 0.13 0.29 0.65 0.90 0.78 0.59 0.40 0.34 0.27 0.26 0.23 0.21
0.07 0.05 0.03 0.03 0.04 0.12 0.19 0.18 0.16 0.14 0.14 0.16 0.19 0.21 0.18 0.13 0.09 0.08 0.11 0.12 0.13 0.12 0.09 0.04 0.02 0.01 0.01 0.01 0.01 0.03 0.06 0.10 0.20 0.37 0.50 0.51 0.42 0.28 0.25 0.23 0.19 0.16 0.15
0.11 0.06 0.05 0.06 0.08 0.12 0.13 0.13 0.13 0.13 0.14 0.15 0.17 0.16 0.13 0.09 0.08 0.08 0.08 0.08 0.08 0.09 0.09 0.05 0.02 0.01 0.01 0.01 0.01 0.02 0.03 0.06 0.13 0.25 0.54 0.60 0.37 0.26 0.23 0.20 0.18 0.16 0.13
0.13 0.11 0.08 0.08 0.09 0.10 0.08 0.05 0.06 0.08 0.10 0.08 0.06 0.07 0.07 0.08 0.13 0.13 0.08 0.07 0.10 0.11 0.09 0.04 0.03 0.02 0.02 0.01 0.02 0.02 0.02 0.03 0.13 0.36 0.68 0.69 0.38 0.28 0.23 0.20 0.17 0.15 0.13
0.10 0.08 0.08 0.07 0.06 0.09 0.08 0.07 0.08 0.06 0.05 0.04 0.06 0.03 0.06 0.22 0.31 0.22 0.19 0.13 0.12 0.09 0.05 0.04 0.03 0.03 0.02 0.03 0.03 0.02 0.02 0.03 0.16 0.44 0.59 0.33 0.31 0.34 0.31 0.28 0.21 0.17 0.16
0.14 0.06 0.07 0.07 0.07 0.17 0.21 0.14 0.15 0.11 0.11 0.07 0.14 0.12 0.20 0.29 0.23 0.20 0.21 0.13 0.08 0.06 0.06 0.08 0.05 0.04 0.04 0.06 0.07 0.05 0.06 0.10 0.13 0.28 0.40 0.27 0.30 0.38 0.42 0.38 0.29 0.23 0.22
0.18 0.10 0.07 0.07 0.10 0.17 0.24 0.17 0.15 0.11 0.12 0.14 0.24 0.15 0.24 0.32 0.32 0.33 0.42 0.27 0.20 0.19 0.19 0.15 0.13 0.10 0.10 0.10 0.10 0.10 0.10 0.11 0.15 0.22 0.25 0.20 0.26 0.39 0.50 0.47 0.41 0.35 0.34
0.21 0.16 0.14 0.13 0.17 0.20 0.28 0.26 0.23 0.17 0.15 0.22 0.35 0.27 0.27 0.26 0.31 0.43 0.50 0.52 0.34 0.36 0.35 0.31 0.27 0.27 0.23 0.17 0.15 0.13 0.15 0.16 0.20 0.24 0.26 0.24 0.27 0.40 0.58 0.61 0.56 0.53 0.51
0.38 0.33 0.32 0.30 0.26 0.23 0.25 0.27 0.25 0.23 0.27 0.30 0.37 0.33 0.29 0.32 0.48 0.60 0.61 0.59 0.43 0.44 0.50 0.55 0.52 0.40 0.33 0.32 0.25 0.22 0.23 0.26 0.29 0.32 0.37 0.36 0.33 0.41 0.56 0.66 0.72 0.74 0.70
0.49 0.49 0.60 0.61 0.43 0.29 0.27 0.31 0.34 0.34 0.37 0.40 0.54 0.49 0.40 0.44 0.63 0.64 0.76 0.73 0.58 0.55 0.55 0.53 0.57 0.57 0.52 0.47 0.42 0.36 0.37 0.41 0.43 0.49 0.56 0.59 0.52 0.51 0.57 0.65 0.71 0.75 0.77
0.68 0.60 0.64 0.63 0.48 0.38 0.38 0.46 0.51 0.58 0.67 0.67 0.73 0.91 0.87 0.76 0.81 0.84 0.87 0.87 0.77 0.76 0.83 0.82 0.77 0.77 0.78 0.69 0.64 0.60 0.56 0.58 0.53 0.57 0.57 0.62 0.70 0.61 0.55 0.56 0.59 0.65 0.72
0.69 0.71 0.68 0.64 0.58 0.53 0.58 0.64 0.70 0.77 0.95 1.07 1.05 1.30 1.33 1.23 1.19 1.22 1.27 1.29 1.21 1.25 1.17 1.02 1.03 0.97 1.00 0.90 0.71 0.65 0.60 0.65 0.59 0.52 0.50 0.55 0.63 0.59 0.53 0.49 0.52 0.58 0.65
0.85 0.86 0.87 0.84 0.83 0.82 0.85 0.94 0.99 1.05 1.16 1.38 1.47 1.63 1.78 1.90 1.88 1.82 1.76 1.73 1.65 1.57 1.45 1.30 1.21 1.06 0.96 0.85 0.65 0.55 0.50 0.47 0.47 0.48 0.45 0.46 0.47 0.44 0.45 0.44 0.42 0.43 0.49
1.04 1.15 1.15 1.18 1.24 1.31 1.37 1.34 1.38 1.52 1.72 1.95 2.14 2.33 2.46 2.46 2.37 2.18 2.05 2.00 1.86 1.72 1.57 1.42 1.21 1.06 0.89 0.75 0.74 0.65 0.49 0.39 0.36 0.34 0.34 0.35 0.35 0.36 0.41 0.43 0.41 0.38 0.37
1.30 1.34 1.41 1.48 1.73 2.06 2.29 2.57 2.78 2.90 2.85 2.94 3.06 3.14 3.05 2.94 2.83 2.62 2.50 2.32 2.06 1.87 1.66 1.43 1.24 1.12 0.95 0.81 0.86 0.87 0.72 0.51 0.35 0.26 0.26 0.25 0.24 0.23 0.25 0.27 0.28 0.29 0.29
1.43 1.52 1.61 1.84 2.46 3.15 3.39 3.57 3.89 4.10 3.89 3.75 3.59 3.50 3.41 3.32 3.23 2.99 2.85 2.59 2.24 1.93 1.67 1.43 1.22 1.11 1.03 0.89 0.81 0.86 0.83 0.69 0.45 0.30 0.22 0.17 0.16 0.17 0.18 0.19 0.21 0.22 0.23
1.59 1.73 1.89 2.35 3.06 3.70 4.08 4.51 4.90 4.96 4.92 4.83 4.39 3.88 3.47 3.15 2.90 2.68 2.48 2.27 1.99 1.70 1.48 1.26 1.04 0.92 0.92 0.82 0.69 0.60 0.57 0.53 0.46 0.34 0.20 0.15 0.13 0.14 0.14 0.14 0.16 0.19 0.22
1.40 1.75 2.03 2.56 3.18 3.87 4.53 5.10 5.41 5.53 5.41 5.00 4.24 3.50 3.09 2.83 2.53 2.24 1.97 1.73 1.51 1.29 1.11 0.96 0.81 0.72 0.68 0.62 0.52 0.44 0.40 0.37 0.34 0.32 0.26 0.17 0.15 0.14 0.13 0.13 0.14 0.15 0.18
1.39 1.63 1.97 2.33 2.89 3.53 4.08 4.55 4.65 4.74 4.69 4.26 3.76 3.27 2.91 2.47 1.99 1.61 1.35 1.15 0.97 0.82 0.72 0.65 0.57 0.49 0.44 0.39 0.33 0.27 0.24 0.26 0.26 0.27 0.25 0.18 0.14 0.13 0.12 0.12 0.13 0.13 0.15

GEFSSE_prec_meanprecacc_090.txt.gz
Total_Precipitation_Accumulation
0.03 0.01 0.02 0.02 0.05 0.07 0.07 0.06 0.09 0.09 0.08 0.09 0.11 0.15 0.14 0.10 0.08 0.07 0.07 0.08 0.11 0.14 0.16 0.15 0.16 0.18 0.17 0.14 0.10 0.07 0.05 0.05 0.05 0.05 0.07 0.09 0.11 0.11 0.11 0.11 0.17 0.22 0.09
0.04 0.01 0.02 0.02 0.04 0.06 0.07 0.07 0.07 0.07 0.07 0.08 0.09 0.11 0.11 0.10 0.09 0.08 0.07 0.08 0.11 0.13 0.15 0.13 0.12 0.14 0.13 0.08 0.06 0.04 0.03 0.05 0.08 0.11 0.13 0.14 0.18 0.16 0.15 0.13 0.22 0.37 0.18
0.03 0.01 0.01 0.02 0.03 0.05 0.05 0.06 0.07 0.06 0.06 0.08 0.09 0.09 0.10 0.09 0.09 0.08 0.09 0.11 0.16 0.19 0.18 0.16 0.14 0.15 0.12 0.08 0.05 0.03 0.03 0.07 0.13 0.22 0.39 0.42 0.40 0.24 0.20 0.15 0.15 0.17 0.20
0.03 0.01 0.01 0.02 0.03 0.04 0.04 0.06 0.08 0.08 0.07 0.07 0.08 0.08 0.09 0.08 0.08 0.08 0.09 0.12 0.17 0.22 0.22 0.20 0.17 0.15 0.12 0.07 0.05 0.04 0.04 0.09 0.18 0.37 0.73 0.69 0.59 0.39 0.28 0.23 0.21 0.19 0.23
0.03 0.00 0.01 0.02 0.03 0.04 0.04 0.05 0.08 0.09 0.08 0.08 0.08 0.08 0.09 0.09 0.08 0.09 0.10 0.11 0.13 0.16 0.16 0.12 0.10 0.10 0.10 0.06 0.04 0.04 0.06 0.12 0.27 0.56 0.96 1.07 0.93 0.57 0.32 0.27 0.29 0.30 0.31
0.03 0.01 0.01 0.02 0.04 0.05 0.06 0.07 0.08 0.08 0.09 0.09 0.10 0.12 0.12 0.11 0.10 0.12 0.15 0.15 0.14 0.14 0.12 0.10 0.09 0.08 0.09 0.05 0.04 0.07 0.11 0.19 0.33 0.72 1.07 1.14 0.81 0.54 0.38 0.36 0.36 0.36 0.35
0.06 0.03 0.01 0.02 0.05 0.08 0.09 0.11 0.13 0.13 0.13 0.14 0.16 0.17 0.16 0.14 0.14 0.15 0.16 0.17 0.15 0.15 0.13 0.11 0.12 0.11 0.07 0.03 0.03 0.06 0.11 0.19 0.39 1.03 1.17 1.12 0.88 0.58 0.42 0.37 0.34 0.32 0.32
0.08 0.04 0.02 0.02 0.05 0.11 0.14 0.17 0.19 0.16 0.14 0.15 0.17 0.20 0.16 0.13 0.11 0.11 0.12 0.13 0.14 0.17 0.16 0.11 0.07 0.05 0.03 0.02 0.02 0.05 0.10 0.15 0.31 0.71 1.00 0.87 0.64 0.46 0.37 0.29 0.27 0.23 0.22
0.10 0.06 0.04 0.03 0.05 0.13 0.20 0.18 0.16 0.14 0.14 0.16 0.19 0.21 0.18 0.13 0.09 0.08 0.11 0.12 0.13 0.13 0.09 0.04 0.02 0.01 0.01 0.01 0.01 0.03 0.06 0.11 0.23 0.45 0.61 0.60 0.49 0.34 0.29 0.25 0.20 0.17 0.16
0.18 0.10 0.06 0.07 0.09 0.13 0.14 0.14 0.14 0.14 0.14 0.15 0.17 0.16 0.13 0.09 0.08 0.08 0.08 0.08 0.08 0.09 0.09 0.05 0.02 0.01 0.01 0.01 0.01 0.02 0.04 0.07 0.16 0.32 0.65 0.71 0.45 0.32 0.28 0.24 0.20 0.17 0.14
0.18 0.14 0.10 0.09 0.11 0.11 0.09 0.06 0.08 0.09 0.10 0.09 0.07 0.08 0.07 0.08 0.13 0.13 0.08 0.07 0.10 0.11 0.09 0.04 0.03 0.02 0.02 0.02 0.02 0.03 0.03 0.04 0.19 0.42 0.79 0.77 0.46 0.36 0.28 0.25 0.20 0.18 0.15
0.17 0.13 0.12 0.10 0.08 0.10 0.09 0.09 0.09 0.06 0.06 0.04 0.06 0.04 0.07 0.23 0.32 0.23 0.21 0.15 0.13 0.09 0.05 0.04 0.03 0.03 0.02 0.03 0.04 0.03 0.03 0.06 0.22 0.51 0.69 0.42 0.42 0.44 0.37 0.32 0.25 0.20 0.18
0.24 0.15 0.15 0.13 0.11 0.20 0.22 0.16 0.18 0.13 0.13 0.08 0.15 0.13 0.21 0.32 0.27 0.24 0.25 0.16 0.11 0.08 0.07 0.08 0.06 0.05 0.05 0.07 0.08 0.07 0.10 0.14 0.19 0.36 0.49 0.37 0.40 0.48 0.48 0.43 0.33 0.27 0.25
0.37 0.32 0.26 0.20 0.17 0.22 0.28 0.21 0.21 0.17 0.16 0.16 0.26 0.17 0.26 0.36 0.41 0.45 0.52 0.36 0.26 0.22 0.21 0.17 0.15 0.11 0.12 0.13 0.14 0.14 0.16 0.18 0.23 0.30 0.35 0.29 0.32 0.46 0.57 0.54 0.47 0.40 0.38
0.51 0.53 0.49 0.35 0.32 0.31 0.36 0.33 0.30 0.26 0.23 0.27 0.39 0.31 0.32 0.33 0.46 0.64 0.66 0.71 0.48 0.45 0.40 0.36 0.31 0.31 0.26 0.21 0.20 0.20 0.23 0.26 0.30 0.32 0.31 0.29 0.31 0.45 0.64 0.69 0.63 0.58 0.56
0.81 0.78 0.71 0.62 0.54 0.46 0.39 0.39 0.34 0.30 0.34 0.35 0.44 0.43 0.41 0.46 0.64 0.86 0.90 0.89 0.69 0.66 0.69 0.69 0.64 0.50 0.41 0.40 0.35 0.32 0.34 0.40 0.45 0.43 0.44 0.41 0.38 0.45 0.63 0.73 0.78 0.80 0.76
0.84 1.01 1.05 0.95 0.77 0.64 0.53 0.51 0.58 0.51 0.52 0.54 0.67 0.69 0.63 0.70 0.92 0.92 1.11 1.08 0.91 0.86 0.84 0.76 0.79 0.77 0.66 0.59 0.53 0.48 0.52 0.56 0.57 0.60 0.63 0.65 0.57 0.56 0.62 0.71 0.76 0.80 0.83
0.99 1.05 1.10 0.95 0.77 0.74 0.75 0.77 0.80 0.88 0.99 0.98 1.01 1.18 1.21 1.16 1.24 1.20 1.18 1.19 1.10 1.09 1.22 1.20 1.05 1.00 0.96 0.84 0.78 0.72 0.67 0.70 0.66 0.69 0.65 0.69 0.76 0.66 0.58 0.61 0.64 0.69 0.77
0.90 1.07 1.13 1.02 0.88 0.84 0.94 1.15 1.18 1.19 1.42 1.56 1.49 1.67 1.72 1.62 1.61 1.64 1.63 1.64 1.52 1.54 1.46 1.32 1.30 1.18 1.18 1.06 0.84 0.76 0.71 0.76 0.69 0.60 0.57 0.61 0.68 0.64 0.58 0.53 0.56 0.61 0.69
0.97 1.06 1.16 1.19 1.21 1.20 1.25 1.41 1.60 1.66 1.75 2.00 2.05 2.08 2.18 2.25 2.27 2.27 2.17 2.08 1.98 1.84 1.69 1.56 1.47 1.28 1.15 1.02 0.77 0.66 0.61 0.57 0.55 0.57 0.53 0.53 0.54 0.50 0.51 0.51 0.48 0.47 0.52
1.24 1.37 1.38 1.44 1.56 1.69 1.88 1.88 1.95 2.12 2.38 2.63 2.79 2.84 2.86 2.79 2.74 2.57 2.43 2.33 2.14 1.95 1.77 1.61 1.41 1.25 1.07 0.93 0.90 0.78 0.59 0.47 0.46 0.44 0.42 0.42 0.41 0.42 0.47 0.48 0.44 0.41 0.39
1.53 1.62 1.70 1.77 2.05 2.42 2.75 3.09 3.37 3.47 3.42 3.54 3.62 3.64 3.51 3.34 3.17 2.93 2.82 2.62 2.31 2.09 1.85 1.61 1.40 1.28 1.11 0.96 0.99 0.98 0.81 0.60 0.45 0.35 0.32 0.30 0.28 0.27 0.28 0.29 0.29 0.30 0.30
1.59 1.76 1.88 2.12 2.73 3.45 3.71 3.94 4.40 4.62 4.38 4.17 4.01 3.91 3.83 3.76 3.65 3.36 3.19 2.90 2.57 2.22 1.91 1.63 1.39 1.27 1.18 1.05 0.94 0.98 0.94 0.78 0.52 0.36 0.27 0.21 0.18 0.19 0.19 0.20 0.22 0.23 0.24
1.82 1.90 2.06 2.55 3.27 3.89 4.28 4.73 5.18 5.31 5.30 5.20 4.75 4.24 3.80 3.47 3.23 3.03 2.81 2.53 2.23 1.93 1.69 1.45 1.20 1.07 1.08 0.99 0.85 0.74 0.69 0.63 0.54 0.40 0.25 0.19 0.16 0.15 0.14 0.14 0.16 0.19 0.22
1.59 1.96 2.21 2.74 3.40 4.05 4.69 5.26 5.58 5.76 5.66 5.26 4.51 3.75 3.31 3.04 2.74 2.48 2.23 1.95 1.69 1.48 1.30 1.16 1.02 0.90 0.84 0.77 0.67 0.59 0.55 0.49 0.41 0.38 0.31 0.21 0.18 0.16 0.14 0.13 0.14 0.16 0.18
1.49 1.78 2.18 2.48 3.09 3.73 4.27 4.73 4.84 4.95 4.85 4.41 3.94 3.42 3.05 2.64 2.15 1.77 1.54 1.32 1.13 0.98 0.88 0.80 0.73 0.65 0.59 0.52 0.46 0.40 0.36 0.36 0.34 0.33 0.29 0.21 0.16 0.14 0.13 0.13 0.14 0.15 0.15

GEFSSE_prec_meanprecacc_096.txt.gz
Total_Precipitation_Accumulation
0.03 0.01 0.02 0.02 0.05 0.07 0.07 0.06 0.09 0.09 0.08 0.09 0.11 0.15 0.14 0.10 0.08 0.07 0.07 0.08 0.11 0.14 0.16 0.16 0.17 0.19 0.18 0.15 0.11 0.08 0.06 0.05 0.05 0.05 0.07 0.10 0.13 0.13 0.11 0.11 0.17 0.22 0.10
0.04 0.01 0.02 0.02 0.04 0.06 0.07 0.07 0.07 0.07 0.07 0.08 0.09 0.11 0.11 0.10 0.09 0.08 0.07 0.08 0.11 0.13 0.15 0.13 0.13 0.15 0.14 0.08 0.06 0.04 0.04 0.05 0.09 0.12 0.15 0.16 0.21 0.18 0.15 0.13 0.23 0.38 0.18
0.03 0.01 0.01 0.02 0.03 0.05 0.05 0.06 0.07 0.06 0.06 0.08 0.09 0.09 0.10 0.09 0.09 0.08 0.09 0.11 0.16 0.19 0.18 0.16 0.15 0.16 0.13 0.08 0.05 0.04 0.04 0.07 0.14 0.23 0.41 0.44 0.43 0.28 0.22 0.15 0.15 0.17 0.21
0.03 0.01 0.01 0.02 0.03 0.04 0.04 0.06 0.08 0.08 0.07 0.07 0.08 0.08 0.09 0.08 0.08 0.08 0.09 0.12 0.17 0.22 0.22 0.20 0.17 0.15 0.12 0.07 0.05 0.04 0.05 0.09 0.19 0.38 0.74 0.70 0.61 0.43 0.30 0.23 0.21 0.19 0.24
0.03 0.00 0.01 0.02 0.03 0.04 0.04 0.05 0.08 0.09 0.08 0.08 0.08 0.08 0.09 0.09 0.08 0.09 0.10 0.11 0.13 0.17 0.16 0.12 0.10 0.10 0.10 0.06 0.05 0.05 0.07 0.14 0.29 0.57 0.96 1.07 0.95 0.59 0.34 0.28 0.29 0.30 0.32
0.03 0.01 0.01 0.02 0.04 0.05 0.06 0.07 0.08 0.08 0.09 0.09 0.10 0.12 0.12 0.11 0.10 0.12 0.15 0.15 0.14 0.14 0.12 0.10 0.09 0.08 0.09 0.05 0.04 0.07 0.11 0.21 0.35 0.73 1.08 1.14 0.82 0.56 0.39 0.37 0.37 0.37 0.36
0.06 0.03 0.01 0.03 0.05 0.08 0.09 0.11 0.13 0.13 0.13 0.14 0.16 0.17 0.16 0.14 0.14 0.15 0.16 0.17 0.16 0.15 0.13 0.11 0.13 0.11 0.08 0.04 0.03 0.07 0.12 0.21 0.41 1.05 1.18 1.12 0.88 0.61 0.46 0.40 0.36 0.34 0.33
0.08 0.05 0.02 0.02 0.06 0.11 0.14 0.17 0.19 0.16 0.14 0.15 0.17 0.20 0.16 0.13 0.11 0.11 0.12 0.13 0.14 0.17 0.16 0.11 0.07 0.05 0.03 0.02 0.03 0.06 0.11 0.16 0.32 0.73 1.02 0.88 0.65 0.49 0.41 0.32 0.29 0.25 0.24
0.10 0.07 0.04 0.03 0.05 0.13 0.20 0.19 0.17 0.14 0.14 0.16 0.19 0.21 0.18 0.13 0.09 0.09 0.11 0.13 0.13 0.13 0.10 0.05 0.02 0.01 0.01 0.01 0.02 0.03 0.08 0.12 0.25 0.47 0.63 0.61 0.50 0.37 0.34 0.29 0.23 0.19 0.18
0.20 0.11 0.07 0.08 0.09 0.13 0.15 0.15 0.14 0.14 0.14 0.16 0.17 0.16 0.13 0.09 0.08 0.08 0.08 0.08 0.08 0.10 0.09 0.05 0.02 0.01 0.02 0.01 0.02 0.03 0.05 0.08 0.17 0.33 0.66 0.72 0.46 0.37 0.34 0.29 0.23 0.20 0.16
0.19 0.17 0.13 0.11 0.12 0.13 0.11 0.07 0.08 0.10 0.10 0.09 0.07 0.08 0.07 0.08 0.13 0.13 0.08 0.08 0.11 0.12 0.10 0.05 0.03 0.02 0.02 0.02 0.02 0.04 0.04 0.05 0.21 0.44 0.80 0.78 0.49 0.41 0.35 0.31 0.26 0.23 0.18
0.20 0.18 0.18 0.14 0.12 0.14 0.12 0.11 0.11 0.07 0.07 0.05 0.07 0.04 0.07 0.24 0.32 0.24 0.21 0.16 0.14 0.10 0.07 0.05 0.05 0.04 0.03 0.04 0.04 0.03 0.04 0.07 0.24 0.53 0.71 0.44 0.46 0.50 0.44 0.39 0.32 0.26 0.24
0.29 0.21 0.22 0.20 0.19 0.27 0.28 0.21 0.21 0.16 0.14 0.09 0.16 0.14 0.22 0.32 0.27 0.24 0.26 0.18 0.13 0.09 0.08 0.10 0.08 0.06 0.05 0.08 0.09 0.07 0.10 0.15 0.20 0.37 0.51 0.40 0.45 0.56 0.57 0.50 0.40 0.34 0.32
0.41 0.39 0.35 0.28 0.25 0.33 0.40 0.30 0.31 0.26 0.22 0.20 0.29 0.19 0.27 0.36 0.42 0.45 0.53 0.37 0.29 0.25 0.23 0.19 0.16 0.12 0.12 0.13 0.15 0.15 0.17 0.20 0.25 0.34 0.39 0.34 0.36 0.53 0.66 0.63 0.56 0.48 0.47
0.55 0.57 0.54 0.41 0.40 0.43 0.52 0.50 0.45 0.40 0.36 0.38 0.46 0.36 0.35 0.36 0.48 0.66 0.69 0.73 0.51 0.48 0.43 0.38 0.33 0.32 0.27 0.22 0.21 0.21 0.25 0.29 0.33 0.35 0.35 0.34 0.37 0.52 0.73 0.79 0.71 0.66 0.64
0.85 0.83 0.78 0.68 0.62 0.55 0.51 0.55 0.54 0.47 0.51 0.52 0.57 0.53 0.49 0.51 0.68 0.91 0.96 0.93 0.73 0.69 0.72 0.72 0.67 0.53 0.44 0.43 0.38 0.36 0.38 0.46 0.51 0.49 0.49 0.46 0.44 0.51 0.71 0.83 0.87 0.87 0.83
0.89 1.07 1.10 1.02 0.85 0.73 0.62 0.61 0.71 0.67 0.68 0.68 0.79 0.80 0.74 0.79 1.01 1.03 1.21 1.18 0.99 0.95 0.92 0.84 0.87 0.84 0.72 0.65 0.58 0.52 0.58 0.64 0.63 0.66 0.68 0.69 0.61 0.61 0.69 0.79 0.84 0.87 0.89
1.04 1.10 1.16 1.00 0.83 0.83 0.84 0.88 0.91 1.01 1.13 1.13 1.15 1.32 1.35 1.30 1.39 1.35 1.35 1.33 1.24 1.24 1.36 1.35 1.19 1.12 1.07 0.96 0.88 0.81 0.77 0.81 0.76 0.76 0.71 0.74 0.82 0.71 0.63 0.66 0.68 0.73 0.83
0.93 1.11 1.19 1.08 0.94 0.91 1.04 1.27 1.34 1.39 1.61 1.74 1.68 1.89 1.96 1.85 1.83 1.84 1.82 1.82 1.70 1.75 1.69 1.54 1.51 1.37 1.34 1.20 0.97 0.90 0.85 0.87 0.79 0.70 0.66 0.68 0.74 0.70 0.62 0.57 0.59 0.65 0.74
0.99 1.11 1.23 1.27 1.30 1.30 1.35 1.54 1.78 1.91 2.02 2.31 2.36 2.35 2.41 2.48 2.52 2.52 2.42 2.34 2.22 2.08 1.95 1.83 1.74 1.53 1.38 1.20 0.92 0.79 0.74 0.67 0.64 0.63 0.59 0.58 0.58 0.54 0.54 0.54 0.51 0.49 0.55
1.27 1.41 1.45 1.52 1.65 1.80 2.01 2.03 2.14 2.36 2.68 2.96 3.15 3.20 3.20 3.12 3.07 2.87 2.73 2.66 2.45 2.22 2.04 1.91 1.69 1.52 1.34 1.15 1.06 0.90 0.67 0.54 0.52 0.48 0.45 0.45 0.44 0.45 0.50 0.51 0.46 0.42 0.41
1.57 1.67 1.77 1.86 2.14 2.54 2.91 3.31 3.62 3.75 3.76 3.95 4.04 4.03 3.88 3.73 3.54 3.27 3.15 2.94 2.64 2.40 2.16 1.91 1.67 1.52 1.35 1.20 1.18 1.13 0.91 0.68 0.50 0.39 0.36 0.33 0.31 0.29 0.30 0.31 0.30 0.31 0.32
1.63 1.81 1.93 2.19 2.80 3.54 3.86 4.15 4.70 4.96 4.69 4.45 4.30 4.19 4.11 4.09 4.00 3.74 3.57 3.24 2.90 2.54 2.23 1.94 1.68 1.51 1.39 1.26 1.13 1.14 1.04 0.85 0.59 0.41 0.31 0.24 0.21 0.21 0.21 0.21 0.23 0.25 0.25
1.85 1.92 2.09 2.58 3.31 3.94 4.38 4.88 5.38 5.57 5.54 5.40 4.93 4.42 3.97 3.64 3.44 3.30 3.15 2.93 2.63 2.29 2.03 1.77 1.50 1.33 1.30 1.19 1.03 0.88 0.78 0.69 0.59 0.46 0.31 0.23 0.19 0.18 0.17 0.16 0.18 0.20 0.23
1.60 1.98 2.23 2.77 3.43 4.09 4.76 5.37 5.72 5.91 5.85 5.44 4.67 3.91 3.48 3.19 2.89 2.65 2.48 2.30 2.07 1.84 1.62 1.47 1.32 1.17 1.07 0.97 0.84 0.74 0.66 0.58 0.49 0.44 0.38 0.27 0.23 0.19 0.17 0.15 0.16 0.17 0.19
1.50 1.80 2.21 2.52 3.12 3.78 4.34 4.83 4.96 5.08 5.00 4.57 4.10 3.60 3.22 2.78 2.30 1.94 1.73 1.56 1.40 1.23 1.13 1.07 0.99 0.89 0.81 0.72 0.62 0.54 0.49 0.48 0.44 0.41 0.36 0.28 0.23 0.19 0.16 0.15 0.16 0.16 0.16

GEFSSE_prec_meanprecacc_102.txt.gz
Total_Precipitation_Accumulation
0.03 0.01 0.02 0.02 0.05 0.07 0.07 0.07 0.10 0.10 0.08 0.09 0.12 0.15 0.14 0.10 0.08 0.07 0.07 0.08 0.11 0.15 0.16 0.16 0.18 0.21 0.20 0.17 0.12 0.08 0.06 0.06 0.05 0.05 0.08 0.11 0.15 0.14 0.12 0.11 0.17 0.23 0.10
0.04 0.01 0.02 0.02 0.04 0.06 0.07 0.07 0.08 0.08 0.07 0.08 0.10 0.11 0.11 0.10 0.09 0.08 0.07 0.08 0.11 0.14 0.15 0.14 0.14 0.17 0.16 0.10 0.07 0.05 0.04 0.05 0.09 0.13 0.16 0.19 0.23 0.19 0.16 0.13 0.23 0.39 0.19
0.03 0.01 0.01 0.02 0.03 0.05 0.06 0.07 0.07 0.07 0.07 0.08 0.09 0.09 0.10 0.09 0.09 0.08 0.09 0.11 0.16 0.20 0.19 0.17 0.16 0.17 0.14 0.09 0.05 0.04 0.04 0.08 0.15 0.24 0.43 0.46 0.46 0.31 0.23 0.15 0.15 0.18 0.21
0.03 0.01 0.01 0.02 0.03 0.04 0.04 0.06 0.08 0.08 0.07 0.07 0.08 0.08 0.09 0.08 0.08 0.08 0.09 0.12 0.18 0.22 0.22 0.20 0.18 0.16 0.13 0.07 0.05 0.04 0.05 0.10 0.21 0.39 0.76 0.71 0.62 0.45 0.32 0.24 0.21 0.20 0.24
0.03 0.00 0.01 0.02 0.03 0.04 0.04 0.05 0.08 0.09 0.08 0.08 0.08 0.08 0.09 0.09 0.08 0.09 0.10 0.11 0.13 0.17 0.17 0.12 0.11 0.11 0.10 0.06 0.05 0.05 0.08 0.15 0.30 0.58 0.96 1.08 0.97 0.61 0.36 0.29 0.30 0.31 0.33
0.03 0.01 0.01 0.02 0.04 0.05 0.06 0.07 0.08 0.08 0.09 0.09 0.10 0.12 0.12 0.12 0.10 0.12 0.15 0.15 0.14 0.14 0.13 0.10 0.09 0.08 0.09 0.05 0.04 0.07 0.12 0.22 0.35 0.73 1.08 1.15 0.84 0.58 0.41 0.38 0.38 0.39 0.38
0.06 0.03 0.01 0.03 0.05 0.08 0.09 0.11 0.13 0.13 0.13 0.14 0.16 0.17 0.16 0.14 0.15 0.15 0.16 0.17 0.16 0.16 0.13 0.12 0.13 0.12 0.08 0.04 0.04 0.07 0.14 0.24 0.42 1.06 1.18 1.13 0.90 0.63 0.48 0.41 0.38 0.36 0.35
0.08 0.05 0.02 0.03 0.06 0.11 0.14 0.17 0.19 0.16 0.14 0.15 0.17 0.20 0.16 0.13 0.12 0.11 0.12 0.13 0.15 0.17 0.17 0.12 0.07 0.06 0.03 0.03 0.03 0.07 0.13 0.18 0.33 0.75 1.04 0.89 0.66 0.51 0.44 0.35 0.31 0.28 0.27
0.10 0.07 0.04 0.03 0.05 0.13 0.20 0.19 0.17 0.15 0.14 0.16 0.19 0.21 0.18 0.13 0.09 0.09 0.11 0.13 0.13 0.14 0.11 0.05 0.02 0.02 0.01 0.01 0.02 0.05 0.10 0.15 0.26 0.49 0.65 0.65 0.51 0.39 0.37 0.33 0.26 0.22 0.22
0.20 0.11 0.07 0.08 0.10 0.13 0.15 0.15 0.15 0.14 0.15 0.16 0.17 0.16 0.13 0.09 0.08 0.08 0.08 0.08 0.09 0.10 0.10 0.06 0.03 0.02 0.02 0.02 0.02 0.04 0.07 0.10 0.19 0.36 0.70 0.75 0.49 0.42 0.41 0.34 0.27 0.24 0.20
0.20 0.17 0.14 0.12 0.13 0.14 0.11 0.08 0.09 0.10 0.11 0.09 0.08 0.09 0.08 0.09 0.14 0.14 0.09 0.08 0.11 0.13 0.10 0.06 0.04 0.03 0.02 0.02 0.03 0.05 0.05 0.07 0.22 0.47 0.84 0.80 0.51 0.47 0.42 0.37 0.31 0.28 0.25
0.21 0.19 0.19 0.16 0.14 0.15 0.14 0.13 0.12 0.08 0.08 0.06 0.08 0.05 0.08 0.26 0.34 0.25 0.22 0.16 0.15 0.12 0.08 0.06 0.06 0.04 0.04 0.04 0.04 0.04 0.05 0.09 0.26 0.56 0.73 0.46 0.49 0.55 0.50 0.45 0.39 0.35 0.32
0.30 0.22 0.23 0.22 0.20 0.29 0.31 0.24 0.25 0.19 0.18 0.12 0.20 0.19 0.27 0.36 0.30 0.27 0.28 0.20 0.15 0.12 0.11 0.13 0.09 0.07 0.07 0.09 0.10 0.09 0.11 0.16 0.22 0.39 0.54 0.41 0.49 0.64 0.66 0.58 0.47 0.42 0.40
0.43 0.41 0.37 0.30 0.27 0.36 0.45 0.35 0.36 0.32 0.28 0.25 0.34 0.24 0.34 0.45 0.49 0.50 0.56 0.41 0.34 0.29 0.27 0.22 0.19 0.14 0.14 0.14 0.16 0.16 0.18 0.21 0.28 0.40 0.47 0.38 0.42 0.61 0.76 0.72 0.63 0.55 0.54
0.56 0.58 0.56 0.43 0.42 0.46 0.56 0.55 0.51 0.47 0.46 0.49 0.58 0.47 0.47 0.47 0.56 0.72 0.73 0.79 0.57 0.53 0.47 0.41 0.36 0.35 0.30 0.24 0.23 0.23 0.27 0.32 0.38 0.42 0.43 0.41 0.42 0.58 0.82 0.90 0.81 0.75 0.72
0.87 0.85 0.80 0.72 0.65 0.59 0.55 0.60 0.59 0.53 0.58 0.63 0.73 0.68 0.63 0.64 0.78 0.99 1.03 1.00 0.79 0.75 0.79 0.77 0.71 0.58 0.48 0.47 0.42 0.38 0.41 0.51 0.56 0.55 0.59 0.55 0.48 0.57 0.79 0.93 0.96 0.96 0.91
0.92 1.13 1.19 1.09 0.89 0.76 0.66 0.66 0.77 0.74 0.75 0.74 0.87 0.90 0.83 0.88 1.12 1.14 1.32 1.26 1.09 1.04 1.01 0.92 0.95 0.92 0.79 0.71 0.63 0.56 0.62 0.69 0.70 0.74 0.79 0.82 0.71 0.66 0.74 0.85 0.92 0.95 0.96
1.06 1.14 1.21 1.05 0.88 0.90 0.92 0.96 0.98 1.12 1.24 1.20 1.22 1.40 1.42 1.40 1.51 1.47 1.47 1.45 1.35 1.34 1.45 1.46 1.29 1.21 1.17 1.05 0.95 0.87 0.82 0.86 0.82 0.82 0.79 0.85 0.94 0.81 0.70 0.70 0.72 0.78 0.89
0.96 1.14 1.22 1.12 0.99 0.99 1.16 1.41 1.43 1.47 1.73 1.83 1.74 1.95 2.03 1.93 1.95 1.98 1.97 1.98 1.84 1.86 1.80 1.66 1.64 1.50 1.47 1.32 1.08 0.99 0.91 0.93 0.84 0.75 0.71 0.75 0.83 0.79 0.71 0.62 0.63 0.70 0.80
1.01 1.13 1.27 1.34 1.36 1.36 1.41 1.60 1.84 1.97 2.10 2.40 2.44 2.43 2.49 2.58 2.62 2.64 2.60 2.54 2.42 2.27 2.10 1.98 1.90 1.69 1.52 1.34 1.06 0.92 0.85 0.76 0.72 0.70 0.65 0.64 0.65 0.60 0.61 0.61 0.58 0.55 0.60
1.29 1.44 1.49 1.58 1.71 1.86 2.06 2.07 2.19 2.41 2.74 3.04 3.26 3.33 3.31 3.24 3.20 3.02 2.90 2.84 2.65 2.43 2.22 2.08 1.89 1.73 1.53 1.34 1.27 1.08 0.82 0.66 0.60 0.55 0.51 0.50 0.49 0.49 0.54 0.56 0.53 0.48 0.45
1.58 1.69 1.80 1.89 2.19 2.59 2.95 3.35 3.66 3.80 3.82 4.03 4.14 4.13 4.00 3.86 3.69 3.45 3.35 3.17 2.89 2.67 2.39 2.11 1.88 1.76 1.59 1.42 1.41 1.36 1.10 0.83 0.60 0.45 0.42 0.38 0.35 0.33 0.34 0.35 0.35 0.36 0.35
1.64 1.83 1.96 2.22 2.83 3.59 3.90 4.19 4.74 4.99 4.73 4.51 4.40 4.32 4.24 4.22 4.14 3.89 3.73 3.42 3.10 2.78 2.47 2.16 1.89 1.74 1.62 1.48 1.35 1.39 1.26 1.02 0.71 0.50 0.37 0.30 0.26 0.26 0.26 0.25 0.27 0.28 0.28
1.86 1.93 2.10 2.59 3.33 3.97 4.41 4.92 5.41 5.60 5.57 5.44 5.00 4.52 4.08 3.75 3.57 3.44 3.30 3.09 2.81 2.49 2.23 2.00 1.74 1.56 1.55 1.41 1.23 1.07 0.97 0.84 0.72 0.57 0.40 0.31 0.26 0.24 0.22 0.20 0.21 0.23 0.25
1.61 1.98 2.24 2.78 3.45 4.11 4.78 5.40 5.76 5.95 5.88 5.48 4.72 3.97 3.55 3.27 2.99 2.77 2.61 2.44 2.24 2.02 1.82 1.67 1.54 1.40 1.30 1.18 1.03 0.92 0.84 0.72 0.60 0.54 0.48 0.37 0.33 0.29 0.24 0.21 0.20 0.20 0.21
1.51 1.80 2.22 2.53 3.15 3.81 4.37 4.86 5.00 5.12 5.04 4.62 4.16 3.65 3.27 2.85 2.38 2.03 1.82 1.66 1.52 1.38 1.31 1.26 1.19 1.12 1.04 0.96 0.87 0.77 0.70 0.67 0.60 0.54 0.48 0.40 0.37 0.34 0.28 0.24 0.21 0.20 0.19

GEFSSE_prec_meanprecacc_108.txt.gz
Total_Precipitation_Accumulation
0.03 0.01 0.02 0.02 0.05 0.07 0.07 0.07 0.10 0.10 0.08 0.09 0.12 0.15 0.14 0.10 0.08 0.07 0.07 0.08 0.11 0.15 0.16 0.16 0.18 0.22 0.21 0.18 0.13 0.09 0.06 0.06 0.05 0.06 0.08 0.11 0.15 0.14 0.12 0.12 0.20 0.24 0.10
0.04 0.01 0.02 0.02 0.04 0.06 0.07 0.07 0.08 0.08 0.07 0.08 0.10 0.11 0.11 0.10 0.09 0.08 0.08 0.08 0.11 0.14 0.15 0.14 0.15 0.18 0.16 0.10 0.08 0.05 0.04 0.05 0.09 0.13 0.16 0.19 0.23 0.20 0.16 0.14 0.27 0.40 0.19
0.03 0.01 0.01 0.02 0.03 0.05 0.06 0.07 0.07 0.07 0.07 0.08 0.09 0.09 0.10 0.09 0.09 0.09 0.09 0.11 0.17 0.20 0.19 0.17 0.17 0.18 0.15 0.10 0.06 0.04 0.04 0.08 0.15 0.25 0.47 0.49 0.46 0.31 0.23 0.17 0.18 0.19 0.22
0.03 0.01 0.01 0.02 0.03 0.04 0.04 0.06 0.08 0.09 0.07 0.07 0.08 0.08 0.09 0.08 0.08 0.08 0.09 0.12 0.18 0.23 0.23 0.21 0.19 0.17 0.13 0.08 0.05 0.04 0.05 0.11 0.22 0.43 0.88 0.75 0.63 0.46 0.33 0.25 0.23 0.20 0.25
0.03 0.00 0.01 0.02 0.03 0.04 0.04 0.05 0.08 0.09 0.08 0.08 0.08 0.08 0.09 0.09 0.08 0.09 0.11 0.11 0.14 0.18 0.18 0.13 0.12 0.12 0.11 0.07 0.05 0.05 0.08 0.15 0.32 0.64 1.07 1.13 1.00 0.62 0.37 0.29 0.31 0.32 0.33
0.03 0.01 0.01 0.02 0.04 0.05 0.06 0.07 0.08 0.08 0.09 0.10 0.11 0.12 0.13 0.12 0.11 0.12 0.15 0.16 0.15 0.15 0.14 0.11 0.10 0.09 0.10 0.05 0.04 0.08 0.12 0.23 0.38 0.78 1.11 1.18 0.87 0.58 0.41 0.38 0.39 0.39 0.38
0.06 0.03 0.01 0.03 0.05 0.08 0.09 0.11 0.13 0.14 0.14 0.14 0.16 0.18 0.16 0.14 0.15 0.15 0.17 0.18 0.17 0.16 0.14 0.12 0.14 0.12 0.08 0.04 0.04 0.08 0.14 0.25 0.47 1.11 1.20 1.16 0.94 0.64 0.48 0.42 0.39 0.37 0.36
0.08 0.05 0.02 0.03 0.06 0.11 0.15 0.17 0.19 0.16 0.15 0.15 0.18 0.20 0.17 0.13 0.12 0.12 0.13 0.14 0.16 0.18 0.17 0.12 0.08 0.06 0.04 0.03 0.03 0.07 0.14 0.19 0.37 0.78 1.05 0.93 0.69 0.52 0.45 0.35 0.32 0.29 0.28
0.11 0.07 0.04 0.03 0.05 0.13 0.20 0.19 0.17 0.15 0.15 0.17 0.20 0.22 0.19 0.14 0.10 0.09 0.12 0.14 0.14 0.14 0.12 0.06 0.03 0.02 0.01 0.02 0.02 0.05 0.10 0.16 0.30 0.52 0.68 0.68 0.52 0.40 0.38 0.34 0.27 0.23 0.23
0.20 0.11 0.07 0.08 0.10 0.13 0.15 0.15 0.15 0.14 0.15 0.16 0.18 0.17 0.14 0.10 0.09 0.09 0.09 0.09 0.10 0.11 0.11 0.07 0.03 0.02 0.02 0.02 0.02 0.04 0.07 0.11 0.22 0.40 0.75 0.79 0.50 0.43 0.43 0.36 0.29 0.26 0.22
0.20 0.18 0.15 0.13 0.13 0.14 0.12 0.08 0.09 0.10 0.11 0.10 0.08 0.10 0.09 0.10 0.16 0.15 0.10 0.10 0.12 0.14 0.11 0.06 0.05 0.03 0.03 0.02 0.03 0.05 0.05 0.08 0.30 0.57 0.91 0.84 0.53 0.49 0.44 0.39 0.34 0.31 0.28
0.28 0.23 0.21 0.18 0.16 0.16 0.14 0.14 0.13 0.09 0.09 0.06 0.10 0.08 0.11 0.31 0.41 0.32 0.28 0.20 0.17 0.13 0.09 0.07 0.06 0.05 0.04 0.06 0.05 0.04 0.06 0.11 0.44 0.79 0.80 0.48 0.51 0.57 0.52 0.48 0.44 0.40 0.37
0.40 0.28 0.26 0.28 0.26 0.32 0.34 0.27 0.28 0.23 0.23 0.17 0.27 0.29 0.36 0.50 0.44 0.41 0.42 0.27 0.19 0.14 0.14 0.16 0.11 0.08 0.08 0.11 0.13 0.11 0.12 0.19 0.30 0.56 0.63 0.44 0.51 0.65 0.69 0.61 0.51 0.46 0.45
0.51 0.45 0.39 0.33 0.30 0.41 0.51 0.43 0.45 0.41 0.38 0.35 0.44 0.35 0.45 0.59 0.64 0.64 0.73 0.56 0.47 0.38 0.35 0.31 0.26 0.19 0.17 0.17 0.19 0.19 0.22 0.25 0.36 0.55 0.57 0.42 0.45 0.64 0.80 0.76 0.66 0.58 0.59
0.64 0.63 0.59 0.47 0.46 0.51 0.63 0.65 0.64 0.61 0.61 0.68 0.73 0.60 0.60 0.60 0.71 0.88 0.90 1.01 0.78 0.73 0.66 0.57 0.49 0.47 0.39 0.30 0.27 0.26 0.31 0.40 0.46 0.53 0.54 0.49 0.47 0.62 0.88 0.95 0.86 0.81 0.79
1.05 0.94 0.86 0.77 0.70 0.65 0.61 0.68 0.67 0.63 0.70 0.78 0.89 0.84 0.76 0.76 0.91 1.13 1.18 1.18 1.01 1.00 1.06 1.03 0.92 0.75 0.62 0.60 0.53 0.46 0.48 0.58 0.66 0.68 0.71 0.66 0.56 0.62 0.83 0.98 1.03 1.04 0.99
1.20 1.28 1.27 1.14 0.94 0.81 0.72 0.71 0.83 0.82 0.86 0.89 1.04 1.13 1.04 1.02 1.25 1.29 1.47 1.41 1.24 1.21 1.21 1.16 1.20 1.13 0.97 0.88 0.78 0.68 0.71 0.77 0.80 0.87 0.94 1.00 0.83 0.72 0.77 0.89 0.97 1.01 1.03
1.38 1.28 1.30 1.11 0.93 0.96 0.99 1.02 1.05 1.20 1.36 1.33 1.36 1.55 1.60 1.56 1.64 1.60 1.59 1.57 1.49 1.51 1.67 1.66 1.51 1.45 1.40 1.25 1.13 1.04 0.98 1.01 0.96 0.97 0.95 1.05 1.13 0.94 0.77 0.74 0.76 0.82 0.95
1.11 1.25 1.32 1.24 1.06 1.04 1.22 1.47 1.50 1.57 1.88 2.01 1.91 2.13 2.21 2.08 2.07 2.13 2.12 2.15 2.02 2.05 2.01 1.86 1.85 1.72 1.69 1.52 1.25 1.16 1.08 1.08 0.99 0.88 0.86 0.92 1.01 0.97 0.86 0.71 0.69 0.76 0.88
1.06 1.19 1.36 1.46 1.43 1.41 1.47 1.66 1.91 2.05 2.20 2.54 2.57 2.58 2.66 2.76 2.77 2.80 2.75 2.73 2.62 2.46 2.31 2.22 2.15 1.92 1.74 1.52 1.23 1.09 1.00 0.90 0.86 0.84 0.76 0.76 0.77 0.74 0.75 0.72 0.67 0.65 0.72
1.31 1.47 1.53 1.62 1.75 1.90 2.11 2.12 2.25 2.48 2.82 3.12 3.33 3.41 3.42 3.37 3.36 3.18 3.06 3.04 2.87 2.64 2.43 2.32 2.17 2.03 1.77 1.55 1.47 1.26 0.99 0.82 0.76 0.68 0.62 0.60 0.59 0.59 0.65 0.65 0.61 0.57 0.56
1.60 1.71 1.82 1.91 2.21 2.63 2.99 3.39 3.72 3.89 3.90 4.10 4.21 4.20 4.07 3.94 3.79 3.56 3.48 3.31 3.05 2.85 2.61 2.37 2.17 2.11 1.91 1.70 1.64 1.57 1.27 0.96 0.71 0.54 0.49 0.45 0.44 0.43 0.44 0.43 0.42 0.43 0.43
1.65 1.84 1.97 2.24 2.85 3.61 3.93 4.21 4.77 5.05 4.79 4.58 4.46 4.37 4.28 4.27 4.20 3.96 3.83 3.54 3.25 2.94 2.66 2.39 2.16 2.02 1.91 1.76 1.61 1.64 1.46 1.16 0.82 0.60 0.45 0.38 0.34 0.36 0.37 0.35 0.35 0.36 0.36
1.86 1.94 2.11 2.61 3.35 4.00 4.44 4.94 5.44 5.64 5.62 5.49 5.06 4.58 4.13 3.80 3.62 3.50 3.37 3.17 2.94 2.63 2.39 2.17 1.94 1.81 1.83 1.68 1.50 1.34 1.24 1.06 0.88 0.70 0.50 0.40 0.35 0.36 0.34 0.33 0.33 0.33 0.33
1.62 1.99 2.25 2.79 3.47 4.13 4.80 5.42 5.79 5.98 5.93 5.54 4.78 4.03 3.61 3.32 3.03 2.80 2.65 2.51 2.33 2.14 1.96 1.83 1.74 1.61 1.54 1.43 1.28 1.15 1.09 0.97 0.79 0.67 0.58 0.46 0.42 0.40 0.37 0.34 0.33 0.34 0.34
1.52 1.81 2.23 2.54 3.16 3.83 4.39 4.89 5.04 5.17 5.09 4.67 4.21 3.70 3.33 2.92 2.44 2.08 1.87 1.71 1.59 1.47 1.43 1.42 1.36 1.31 1.25 1.20 1.11 1.00 0.93 0.91 0.82 0.72 0.62 0.54 0.51 0.48 0.41 0.36 0.34 0.33 0.31

GEFSSE_prec_meanprecacc_114.txt.gz
Total_Precipitation_Accumulation
0.03 0.01 0.02 0.02 0.05 0.07 0.07 0.07 0.10 0.10 0.08 0.09 0.12 0.15 0.14 0.10 0.08 0.07 0.07 0.08 0.11 0.15 0.17 0.17 0.19 0.22 0.22 0.19 0.13 0.09 0.07 0.06 0.05 0.06 0.09 0.12 0.16 0.15 0.13 0.12 0.20 0.24 0.11
0.04 0.01 0.02 0.02 0.04 0.06 0.07 0.07 0.08 0.08 0.07 0.08 0.10 0.11 0.11 0.10 0.09 0.08 0.08 0.08 0.11 0.14 0.15 0.15 0.15 0.18 0.17 0.11 0.08 0.05 0.04 0.06 0.10 0.14 0.17 0.20 0.24 0.20 0.17 0.15 0.27 0.40 0.19
0.03 0.01 0.01 0.02 0.03 0.05 0.06 0.07 0.07 0.07 0.07 0.08 0.09 0.09 0.10 0.09 0.09 0.09 0.09 0.12 0.17 0.20 0.19 0.18 0.17 0.18 0.16 0.10 0.06 0.04 0.05 0.09 0.17 0.28 0.48 0.50 0.46 0.31 0.24 0.17 0.18 0.19 0.22
0.03 0.01 0.01 0.02 0.03 0.04 0.04 0.06 0.08 0.09 0.07 0.07 0.08 0.08 0.09 0.08 0.08 0.08 0.09 0.12 0.18 0.23 0.23 0.21 0.19 0.17 0.14 0.08 0.06 0.05 0.06 0.12 0.24 0.47 0.90 0.76 0.63 0.46 0.33 0.25 0.23 0.20 0.25
0.03 0.00 0.01 0.02 0.03 0.04 0.04 0.05 0.08 0.09 0.08 0.08 0.08 0.08 0.09 0.09 0.08 0.10 0.11 0.12 0.14 0.19 0.18 0.14 0.12 0.12 0.11 0.07 0.05 0.06 0.10 0.18 0.35 0.69 1.12 1.15 1.01 0.63 0.38 0.29 0.31 0.32 0.34
0.03 0.01 0.01 0.02 0.04 0.05 0.06 0.07 0.08 0.08 0.09 0.10 0.11 0.12 0.13 0.12 0.11 0.13 0.16 0.17 0.16 0.16 0.15 0.12 0.11 0.10 0.10 0.06 0.05 0.09 0.15 0.27 0.43 0.83 1.18 1.20 0.88 0.60 0.42 0.38 0.39 0.39 0.38
0.07 0.03 0.01 0.03 0.05 0.08 0.09 0.11 0.13 0.14 0.14 0.15 0.16 0.18 0.16 0.15 0.16 0.16 0.17 0.19 0.18 0.17 0.15 0.14 0.15 0.13 0.09 0.06 0.05 0.09 0.17 0.29 0.53 1.18 1.26 1.19 0.96 0.65 0.49 0.42 0.39 0.37 0.36
0.10 0.05 0.02 0.03 0.06 0.11 0.15 0.17 0.19 0.16 0.15 0.16 0.18 0.21 0.17 0.14 0.13 0.13 0.14 0.16 0.17 0.19 0.19 0.14 0.09 0.07 0.04 0.04 0.05 0.09 0.16 0.23 0.43 0.88 1.14 0.98 0.72 0.54 0.46 0.36 0.32 0.29 0.28
0.16 0.07 0.05 0.04 0.06 0.14 0.21 0.19 0.17 0.15 0.15 0.18 0.22 0.24 0.20 0.15 0.11 0.10 0.13 0.15 0.15 0.16 0.13 0.07 0.04 0.02 0.02 0.02 0.03 0.06 0.13 0.21 0.37 0.63 0.77 0.74 0.57 0.43 0.40 0.34 0.27 0.23 0.23
0.30 0.14 0.09 0.09 0.11 0.14 0.16 0.16 0.16 0.15 0.16 0.18 0.20 0.19 0.15 0.11 0.10 0.10 0.10 0.11 0.11 0.13 0.13 0.08 0.04 0.03 0.03 0.02 0.03 0.05 0.09 0.15 0.29 0.51 0.85 0.86 0.55 0.47 0.45 0.37 0.30 0.26 0.23
0.35 0.27 0.20 0.15 0.15 0.15 0.13 0.09 0.10 0.11 0.12 0.11 0.10 0.10 0.10 0.11 0.17 0.16 0.11 0.11 0.15 0.15 0.13 0.08 0.06 0.04 0.03 0.03 0.04 0.06 0.07 0.13 0.38 0.69 1.01 0.91 0.59 0.54 0.47 0.41 0.34 0.31 0.29
0.49 0.42 0.34 0.26 0.20 0.19 0.16 0.16 0.14 0.10 0.09 0.07 0.10 0.08 0.11 0.32 0.42 0.34 0.31 0.24 0.22 0.17 0.12 0.10 0.09 0.07 0.05 0.06 0.06 0.06 0.08 0.16 0.51 0.94 0.92 0.57 0.59 0.63 0.56 0.51 0.47 0.42 0.38
0.77 0.50 0.40 0.44 0.33 0.37 0.40 0.29 0.30 0.25 0.24 0.18 0.28 0.30 0.37 0.52 0.48 0.46 0.49 0.37 0.28 0.22 0.19 0.20 0.15 0.11 0.10 0.13 0.16 0.14 0.18 0.26 0.39 0.69 0.75 0.56 0.61 0.74 0.75 0.64 0.54 0.48 0.47
1.02 0.80 0.56 0.47 0.43 0.47 0.59 0.47 0.48 0.44 0.42 0.38 0.46 0.37 0.48 0.62 0.69 0.70 0.81 0.69 0.60 0.53 0.46 0.38 0.32 0.24 0.23 0.24 0.26 0.29 0.34 0.37 0.46 0.64 0.69 0.55 0.57 0.74 0.88 0.81 0.70 0.61 0.61
1.35 1.13 0.87 0.66 0.59 0.59 0.68 0.68 0.68 0.65 0.65 0.74 0.80 0.66 0.67 0.67 0.78 0.99 1.04 1.15 0.93 0.90 0.82 0.69 0.57 0.53 0.45 0.39 0.39 0.44 0.50 0.53 0.58 0.66 0.66 0.63 0.64 0.76 0.97 1.01 0.91 0.85 0.82
1.70 1.40 1.21 1.07 0.91 0.75 0.68 0.73 0.72 0.67 0.76 0.87 1.03 0.98 0.94 0.91 1.05 1.35 1.38 1.36 1.20 1.19 1.21 1.21 1.08 0.91 0.74 0.71 0.68 0.68 0.72 0.78 0.86 0.87 0.88 0.80 0.71 0.75 0.93 1.06 1.09 1.10 1.03
1.63 1.65 1.58 1.49 1.30 1.03 0.82 0.81 0.90 0.89 0.95 1.02 1.20 1.29 1.27 1.21 1.39 1.44 1.68 1.65 1.50 1.46 1.38 1.31 1.44 1.41 1.18 1.01 0.92 0.90 0.99 1.01 1.02 1.07 1.17 1.18 0.98 0.86 0.88 0.97 1.06 1.09 1.08
1.75 1.62 1.60 1.44 1.23 1.26 1.15 1.18 1.15 1.30 1.46 1.45 1.50 1.73 1.80 1.73 1.77 1.74 1.76 1.77 1.70 1.67 1.83 1.85 1.75 1.72 1.67 1.47 1.32 1.23 1.21 1.28 1.18 1.18 1.17 1.27 1.31 1.07 0.87 0.83 0.84 0.89 1.01
1.41 1.47 1.51 1.50 1.37 1.31 1.43 1.68 1.68 1.70 1.98 2.15 2.11 2.35 2.36 2.20 2.20 2.24 2.26 2.28 2.17 2.19 2.15 2.04 2.10 2.05 1.98 1.77 1.46 1.33 1.25 1.29 1.23 1.08 1.07 1.17 1.21 1.08 0.94 0.79 0.76 0.81 0.95
1.28 1.38 1.50 1.61 1.67 1.61 1.64 1.82 2.08 2.17 2.31 2.65 2.72 2.75 2.82 2.88 2.90 2.91 2.84 2.82 2.71 2.56 2.44 2.39 2.31 2.12 1.99 1.75 1.43 1.26 1.17 1.07 1.04 1.06 0.96 0.92 0.92 0.83 0.81 0.79 0.73 0.71 0.79
1.51 1.73 1.71 1.73 1.85 2.01 2.22 2.21 2.33 2.57 2.94 3.22 3.40 3.49 3.50 3.44 3.44 3.27 3.14 3.12 2.94 2.72 2.55 2.45 2.34 2.23 1.95 1.70 1.63 1.42 1.14 0.97 0.91 0.85 0.81 0.76 0.71 0.68 0.73 0.71 0.67 0.63 0.63
1.67 1.80 1.91 1.97 2.27 2.68 3.04 3.44 3.78 3.97 3.99 4.20 4.28 4.27 4.13 4.00 3.85 3.63 3.55 3.38 3.12 2.93 2.71 2.47 2.30 2.24 2.03 1.82 1.77 1.72 1.40 1.10 0.84 0.67 0.64 0.60 0.56 0.53 0.52 0.49 0.48 0.50 0.51
1.68 1.87 2.01 2.27 2.89 3.66 3.98 4.27 4.84 5.12 4.88 4.65 4.51 4.42 4.33 4.32 4.25 4.01 3.88 3.60 3.32 3.01 2.73 2.48 2.26 2.13 2.04 1.92 1.76 1.79 1.60 1.29 0.95 0.72 0.56 0.49 0.46 0.48 0.47 0.42 0.42 0.42 0.44
1.88 1.96 2.13 2.63 3.38 4.03 4.47 4.99 5.49 5.69 5.68 5.56 5.10 4.63 4.19 3.86 3.68 3.55 3.41 3.22 2.99 2.69 2.45 2.24 2.04 1.91 1.94 1.84 1.69 1.53 1.41 1.21 1.03 0.85 0.64 0.52 0.48 0.49 0.47 0.44 0.43 0.42 0.44
1.63 2.00 2.27 2.81 3.49 4.15 4.83 5.45 5.83 6.03 5.97 5.58 4.82 4.07 3.64 3.36 3.07 2.83 2.68 2.55 2.38 2.19 2.01 1.89 1.82 1.72 1.64 1.53 1.40 1.31 1.27 1.15 0.95 0.80 0.72 0.61 0.57 0.54 0.50 0.47 0.45 0.45 0.47
1.52 1.82 2.24 2.55 3.17 3.83 4.40 4.90 5.06 5.20 5.13 4.71 4.25 3.74 3.37 2.96 2.47 2.11 1.90 1.75 1.64 1.54 1.52 1.49 1.47 1.42 1.35 1.29 1.21 1.12 1.06 1.04 0.96 0.86 0.75 0.67 0.65 0.61 0.54 0.47 0.45 0.44 0.43

GEFSSE_prec_meanprecacc_120.txt.gz
Total_Precipitation_Accumulation
0.03 0.01 0.03 0.02 0.05 0.07 0.07 0.07 0.10 0.10 0.08 0.09 0.12 0.15 0.14 0.10 0.08 0.07 0.07 0.08 0.11 0.15 0.17 0.18 0.20 0.23 0.22 0.19 0.14 0.09 0.07 0.06 0.06 0.07 0.10 0.15 0.19 0.16 0.14 0.13 0.21 0.25 0.12
0.04 0.01 0.02 0.02 0.04 0.06 0.07 0.07 0.08 0.08 0.07 0.08 0.10 0.11 0.11 0.10 0.09 0.08 0.08 0.09 0.12 0.15 0.16 0.15 0.16 0.19 0.18 0.11 0.08 0.06 0.04 0.06 0.11 0.15 0.20 0.23 0.28 0.22 0.18 0.15 0.27 0.41 0.21
0.03 0.01 0.02 0.02 0.04 0.05 0.06 0.07 0.07 0.07 0.07 0.08 0.09 0.09 0.10 0.09 0.09 0.09 0.09 0.12 0.18 0.21 0.20 0.18 0.18 0.19 0.17 0.11 0.07 0.05 0.05 0.10 0.18 0.30 0.50 0.51 0.50 0.35 0.25 0.18 0.18 0.20 0.23
0.03 0.01 0.01 0.03 0.03 0.04 0.04 0.06 0.08 0.09 0.07 0.07 0.08 0.08 0.09 0.08 0.08 0.08 0.09 0.13 0.19 0.24 0.24 0.22 0.20 0.19 0.15 0.10 0.07 0.07 0.08 0.15 0.27 0.50 0.91 0.77 0.65 0.50 0.35 0.26 0.23 0.21 0.26
0.03 0.01 0.01 0.02 0.03 0.04 0.04 0.05 0.08 0.09 0.08 0.08 0.08 0.08 0.09 0.09 0.09 0.10 0.11 0.12 0.15 0.20 0.19 0.15 0.13 0.13 0.13 0.09 0.07 0.09 0.13 0.24 0.42 0.72 1.13 1.16 1.02 0.66 0.39 0.30 0.31 0.32 0.34
0.04 0.01 0.01 0.03 0.04 0.05 0.06 0.07 0.08 0.08 0.09 0.10 0.11 0.12 0.13 0.12 0.11 0.13 0.16 0.17 0.16 0.17 0.16 0.13 0.12 0.11 0.12 0.08 0.07 0.12 0.20 0.35 0.49 0.85 1.19 1.21 0.90 0.62 0.45 0.39 0.39 0.40 0.39
0.10 0.04 0.02 0.04 0.06 0.08 0.09 0.11 0.13 0.14 0.14 0.15 0.16 0.18 0.17 0.15 0.16 0.16 0.18 0.19 0.18 0.18 0.16 0.15 0.16 0.14 0.11 0.08 0.08 0.12 0.21 0.36 0.56 1.19 1.27 1.21 0.98 0.68 0.52 0.44 0.39 0.37 0.37
0.16 0.08 0.05 0.05 0.07 0.12 0.15 0.18 0.19 0.17 0.15 0.16 0.19 0.21 0.18 0.15 0.14 0.14 0.14 0.16 0.18 0.20 0.20 0.14 0.10 0.08 0.06 0.07 0.07 0.11 0.19 0.27 0.46 0.89 1.15 1.00 0.75 0.57 0.48 0.38 0.33 0.29 0.28
0.28 0.13 0.09 0.07 0.07 0.15 0.22 0.20 0.19 0.16 0.16 0.18 0.22 0.25 0.21 0.16 0.12 0.11 0.14 0.15 0.16 0.16 0.13 0.08 0.05 0.03 0.03 0.04 0.05 0.09 0.16 0.24 0.41 0.67 0.79 0.76 0.61 0.47 0.42 0.36 0.28 0.23 0.24
0.41 0.22 0.16 0.14 0.14 0.17 0.18 0.19 0.18 0.17 0.17 0.19 0.21 0.20 0.16 0.11 0.10 0.10 0.10 0.11 0.11 0.13 0.13 0.09 0.05 0.04 0.04 0.03 0.05 0.08 0.12 0.17 0.32 0.54 0.87 0.89 0.59 0.54 0.50 0.40 0.32 0.27 0.23
0.41 0.33 0.26 0.21 0.19 0.19 0.16 0.12 0.13 0.13 0.14 0.12 0.11 0.12 0.10 0.12 0.17 0.17 0.11 0.12 0.15 0.16 0.13 0.08 0.06 0.05 0.04 0.04 0.06 0.08 0.09 0.14 0.39 0.71 1.03 0.94 0.64 0.61 0.53 0.45 0.39 0.34 0.30
0.58 0.50 0.42 0.35 0.27 0.25 0.22 0.20 0.17 0.12 0.11 0.08 0.11 0.09 0.11 0.32 0.42 0.34 0.32 0.25 0.23 0.18 0.12 0.11 0.09 0.07 0.06 0.06 0.07 0.08 0.09 0.17 0.51 0.95 0.94 0.62 0.66 0.72 0.64 0.57 0.52 0.46 0.41
0.89 0.62 0.51 0.53 0.41 0.45 0.46 0.34 0.33 0.27 0.26 0.19 0.29 0.30 0.38 0.52 0.49 0.47 0.50 0.38 0.29 0.24 0.20 0.21 0.16 0.11 0.10 0.14 0.16 0.15 0.19 0.27 0.39 0.70 0.78 0.62 0.70 0.82 0.82 0.71 0.60 0.53 0.51
1.19 0.98 0.72 0.61 0.53 0.55 0.65 0.52 0.51 0.46 0.44 0.39 0.47 0.38 0.49 0.63 0.70 0.72 0.83 0.71 0.62 0.54 0.47 0.40 0.34 0.25 0.23 0.24 0.27 0.30 0.36 0.38 0.47 0.65 0.70 0.60 0.64 0.82 0.98 0.90 0.78 0.69 0.67
1.52 1.31 1.05 0.79 0.71 0.70 0.77 0.76 0.73 0.69 0.67 0.75 0.81 0.66 0.68 0.67 0.79 1.00 1.06 1.17 0.97 0.95 0.86 0.73 0.60 0.55 0.47 0.40 0.40 0.45 0.52 0.55 0.61 0.69 0.69 0.67 0.70 0.84 1.08 1.13 1.02 0.95 0.90
1.85 1.55 1.35 1.17 1.00 0.86 0.79 0.82 0.79 0.74 0.81 0.91 1.06 1.01 0.95 0.92 1.07 1.37 1.42 1.40 1.25 1.26 1.28 1.28 1.15 0.95 0.78 0.74 0.71 0.72 0.75 0.81 0.90 0.92 0.92 0.84 0.77 0.85 1.05 1.18 1.20 1.20 1.12
1.70 1.74 1.66 1.55 1.37 1.11 0.91 0.91 1.00 0.96 1.00 1.07 1.25 1.33 1.30 1.23 1.41 1.48 1.74 1.73 1.58 1.55 1.49 1.42 1.55 1.51 1.25 1.08 0.98 0.96 1.06 1.07 1.08 1.12 1.21 1.22 1.03 0.95 1.00 1.10 1.18 1.20 1.18
1.83 1.69 1.68 1.52 1.33 1.35 1.25 1.28 1.26 1.38 1.52 1.52 1.57 1.80 1.86 1.77 1.80 1.78 1.81 1.84 1.78 1.77 1.95 1.98 1.90 1.87 1.80 1.59 1.43 1.34 1.32 1.38 1.27 1.26 1.24 1.34 1.40 1.15 0.96 0.94 0.97 1.01 1.11
1.49 1.54 1.60 1.63 1.50 1.41 1.53 1.78 1.78 1.82 2.12 2.28 2.23 2.45 2.44 2.28 2.25 2.29 2.31 2.37 2.28 2.30 2.26 2.18 2.25 2.20 2.12 1.92 1.61 1.48 1.37 1.39 1.32 1.17 1.16 1.27 1.32 1.19 1.04 0.90 0.88 0.95 1.08
1.34 1.43 1.56 1.76 1.85 1.73 1.76 1.96 2.25 2.40 2.55 2.88 2.90 2.89 2.93 2.97 2.97 2.98 2.90 2.91 2.83 2.69 2.56 2.52 2.44 2.24 2.12 1.90 1.59 1.42 1.28 1.16 1.13 1.15 1.03 0.99 1.01 0.94 0.93 0.89 0.83 0.81 0.91
1.56 1.80 1.77 1.82 1.99 2.16 2.38 2.38 2.54 2.85 3.22 3.43 3.56 3.62 3.61 3.53 3.50 3.34 3.21 3.19 3.03 2.84 2.67 2.56 2.44 2.33 2.06 1.83 1.76 1.53 1.23 1.05 0.98 0.92 0.91 0.87 0.82 0.79 0.84 0.81 0.75 0.71 0.72
1.70 1.90 2.01 2.07 2.38 2.82 3.21 3.63 4.01 4.24 4.25 4.40 4.42 4.36 4.22 4.07 3.91 3.68 3.61 3.45 3.19 3.01 2.78 2.54 2.38 2.33 2.12 1.94 1.88 1.81 1.47 1.15 0.88 0.71 0.71 0.71 0.67 0.63 0.63 0.60 0.58 0.58 0.58
1.71 1.92 2.06 2.33 2.96 3.75 4.12 4.44 4.99 5.27 5.05 4.82 4.62 4.49 4.39 4.37 4.31 4.07 3.94 3.68 3.39 3.07 2.79 2.54 2.33 2.21 2.13 2.01 1.85 1.88 1.66 1.33 0.98 0.75 0.60 0.56 0.56 0.59 0.58 0.54 0.52 0.51 0.52
1.92 2.00 2.17 2.68 3.43 4.08 4.55 5.07 5.58 5.79 5.79 5.64 5.19 4.71 4.26 3.91 3.72 3.60 3.47 3.30 3.06 2.75 2.52 2.31 2.11 1.98 2.01 1.91 1.77 1.60 1.48 1.26 1.08 0.89 0.68 0.57 0.54 0.58 0.59 0.57 0.55 0.53 0.54
1.67 2.03 2.29 2.83 3.52 4.19 4.87 5.50 5.89 6.09 6.05 5.66 4.89 4.13 3.69 3.40 3.11 2.88 2.73 2.61 2.45 2.27 2.09 1.97 1.89 1.78 1.70 1.60 1.47 1.39 1.34 1.21 1.00 0.85 0.78 0.67 0.66 0.64 0.62 0.61 0.59 0.58 0.58
1.54 1.83 2.25 2.57 3.19 3.86 4.43 4.94 5.10 5.26 5.20 4.77 4.30 3.79 3.41 2.99 2.50 2.14 1.94 1.81 1.70 1.61 1.59 1.57 1.53 1.47 1.41 1.35 1.27 1.18 1.13 1.10 1.02 0.92 0.82 0.75 0.76 0.74 0.68 0.62 0.57 0.56 0.56

GEFSSE_prec_meanprecacc_126.txt.gz
Total_Precipitation_Accumulation
0.04 0.01 0.04 0.03 0.05 0.08 0.08 0.08 0.10 0.10 0.08 0.09 0.12 0.15 0.14 0.10 0.08 0.07 0.07 0.08 0.11 0.16 0.18 0.18 0.21 0.23 0.23 0.19 0.14 0.09 0.07 0.06 0.06 0.07 0.10 0.15 0.20 0.18 0.16 0.15 0.23 0.28 0.13
0.05 0.01 0.03 0.03 0.04 0.06 0.08 0.08 0.09 0.08 0.07 0.08 0.10 0.11 0.11 0.10 0.09 0.08 0.08 0.09 0.12 0.15 0.16 0.16 0.16 0.20 0.18 0.11 0.08 0.06 0.05 0.07 0.12 0.17 0.21 0.24 0.30 0.24 0.19 0.16 0.29 0.43 0.22
0.04 0.01 0.02 0.03 0.04 0.05 0.06 0.07 0.08 0.07 0.07 0.08 0.09 0.09 0.10 0.09 0.09 0.09 0.09 0.12 0.18 0.21 0.20 0.18 0.18 0.19 0.17 0.11 0.08 0.06 0.06 0.11 0.20 0.33 0.53 0.53 0.51 0.37 0.27 0.19 0.19 0.20 0.23
0.04 0.01 0.01 0.03 0.03 0.04 0.04 0.06 0.09 0.09 0.07 0.07 0.08 0.08 0.09 0.08 0.08 0.08 0.09 0.13 0.19 0.24 0.24 0.22 0.20 0.19 0.15 0.10 0.08 0.07 0.09 0.16 0.30 0.53 0.94 0.78 0.65 0.52 0.37 0.27 0.24 0.22 0.27
0.04 0.01 0.02 0.03 0.03 0.04 0.04 0.05 0.08 0.10 0.08 0.08 0.08 0.08 0.09 0.09 0.09 0.10 0.11 0.13 0.15 0.20 0.19 0.15 0.13 0.13 0.13 0.09 0.08 0.10 0.16 0.27 0.45 0.74 1.15 1.17 1.04 0.68 0.42 0.31 0.32 0.34 0.35
0.05 0.02 0.02 0.03 0.04 0.05 0.06 0.07 0.08 0.08 0.09 0.10 0.11 0.12 0.13 0.12 0.11 0.13 0.16 0.17 0.17 0.17 0.16 0.13 0.12 0.11 0.12 0.09 0.08 0.14 0.24 0.39 0.51 0.87 1.21 1.23 0.92 0.64 0.47 0.41 0.41 0.41 0.40
0.13 0.06 0.03 0.04 0.06 0.08 0.10 0.12 0.14 0.14 0.14 0.15 0.16 0.18 0.17 0.16 0.16 0.17 0.18 0.19 0.19 0.19 0.17 0.15 0.16 0.14 0.11 0.09 0.10 0.15 0.26 0.42 0.59 1.21 1.29 1.23 0.99 0.69 0.55 0.47 0.42 0.39 0.38
0.17 0.10 0.07 0.06 0.08 0.13 0.16 0.18 0.20 0.17 0.16 0.16 0.19 0.21 0.18 0.15 0.14 0.14 0.15 0.16 0.18 0.21 0.20 0.15 0.11 0.08 0.06 0.08 0.09 0.14 0.24 0.32 0.49 0.92 1.17 1.01 0.77 0.58 0.51 0.41 0.34 0.31 0.30
0.30 0.16 0.12 0.09 0.09 0.16 0.24 0.22 0.19 0.17 0.16 0.18 0.22 0.25 0.22 0.17 0.13 0.12 0.15 0.16 0.17 0.17 0.14 0.08 0.05 0.04 0.04 0.05 0.07 0.10 0.20 0.28 0.46 0.73 0.82 0.80 0.64 0.48 0.44 0.39 0.30 0.26 0.26
0.45 0.27 0.20 0.19 0.18 0.19 0.21 0.22 0.21 0.19 0.19 0.20 0.22 0.21 0.17 0.13 0.11 0.11 0.11 0.12 0.12 0.14 0.14 0.10 0.06 0.05 0.04 0.05 0.06 0.09 0.16 0.21 0.35 0.57 0.92 0.93 0.62 0.57 0.52 0.42 0.34 0.29 0.25
0.46 0.39 0.34 0.28 0.26 0.24 0.21 0.17 0.17 0.17 0.18 0.16 0.14 0.13 0.12 0.13 0.18 0.18 0.13 0.13 0.16 0.17 0.15 0.10 0.08 0.07 0.05 0.05 0.08 0.11 0.11 0.17 0.41 0.74 1.07 0.97 0.67 0.67 0.60 0.51 0.42 0.38 0.34
0.64 0.58 0.52 0.47 0.42 0.36 0.30 0.29 0.24 0.18 0.17 0.14 0.16 0.14 0.16 0.35 0.45 0.36 0.34 0.27 0.25 0.20 0.15 0.13 0.11 0.09 0.08 0.08 0.09 0.09 0.11 0.19 0.53 0.98 0.97 0.65 0.71 0.80 0.75 0.66 0.58 0.52 0.48
0.96 0.68 0.59 0.64 0.59 0.61 0.59 0.44 0.41 0.35 0.33 0.25 0.34 0.35 0.42 0.55 0.50 0.49 0.52 0.40 0.31 0.26 0.23 0.24 0.18 0.14 0.13 0.17 0.20 0.17 0.21 0.28 0.41 0.72 0.80 0.65 0.76 0.91 0.94 0.82 0.70 0.61 0.61
1.26 1.04 0.79 0.69 0.63 0.66 0.77 0.65 0.62 0.56 0.53 0.46 0.52 0.41 0.52 0.66 0.73 0.74 0.85 0.74 0.66 0.59 0.53 0.45 0.39 0.29 0.27 0.27 0.29 0.32 0.38 0.39 0.48 0.69 0.73 0.62 0.69 0.91 1.12 1.03 0.88 0.79 0.77
1.56 1.38 1.11 0.87 0.80 0.82 0.91 0.92 0.87 0.81 0.78 0.84 0.88 0.72 0.72 0.71 0.82 1.03 1.08 1.21 1.02 1.01 0.94 0.81 0.67 0.61 0.52 0.45 0.43 0.48 0.55 0.57 0.63 0.72 0.73 0.70 0.74 0.90 1.18 1.27 1.14 1.08 1.04
1.89 1.60 1.41 1.24 1.07 0.96 0.93 0.99 0.95 0.87 0.92 1.00 1.14 1.06 1.01 0.97 1.13 1.43 1.48 1.46 1.32 1.34 1.37 1.37 1.23 1.03 0.85 0.80 0.75 0.76 0.79 0.86 0.94 0.97 0.97 0.88 0.81 0.90 1.14 1.31 1.34 1.37 1.29
1.73 1.77 1.72 1.61 1.44 1.19 1.05 1.12 1.19 1.11 1.11 1.16 1.32 1.38 1.34 1.29 1.49 1.57 1.83 1.82 1.69 1.66 1.58 1.50 1.62 1.60 1.35 1.16 1.05 1.00 1.10 1.13 1.13 1.17 1.27 1.30 1.11 1.01 1.07 1.19 1.29 1.33 1.33
1.86 1.73 1.74 1.58 1.39 1.44 1.38 1.47 1.48 1.54 1.63 1.60 1.63 1.84 1.90 1.83 1.88 1.88 1.92 1.96 1.89 1.86 2.03 2.07 1.99 1.96 1.89 1.67 1.49 1.39 1.37 1.43 1.32 1.32 1.30 1.41 1.49 1.24 1.04 1.01 1.05 1.12 1.26
1.52 1.57 1.64 1.67 1.55 1.48 1.64 1.89 1.92 1.99 2.23 2.35 2.31 2.50 2.50 2.34 2.33 2.41 2.45 2.50 2.38 2.39 2.36 2.26 2.33 2.28 2.20 1.99 1.66 1.53 1.42 1.44 1.37 1.22 1.21 1.33 1.39 1.28 1.15 1.00 0.98 1.07 1.24
1.37 1.46 1.59 1.78 1.88 1.79 1.83 2.03 2.33 2.47 2.62 2.95 2.97 2.95 2.99 3.03 3.04 3.06 3.00 3.02 2.94 2.78 2.65 2.60 2.52 2.31 2.19 1.96 1.65 1.46 1.32 1.20 1.17 1.18 1.07 1.04 1.06 0.99 1.01 1.00 0.96 0.95 1.08
1.58 1.82 1.79 1.85 2.03 2.21 2.46 2.46 2.62 2.97 3.33 3.54 3.67 3.72 3.70 3.61 3.57 3.40 3.28 3.29 3.13 2.93 2.76 2.64 2.51 2.41 2.12 1.89 1.82 1.58 1.26 1.08 1.01 0.95 0.94 0.90 0.85 0.83 0.90 0.90 0.87 0.84 0.89
1.73 1.93 2.04 2.09 2.41 2.88 3.28 3.70 4.11 4.39 4.40 4.53 4.54 4.48 4.33 4.18 4.00 3.77 3.70 3.54 3.29 3.09 2.85 2.61 2.44 2.39 2.18 2.01 1.97 1.89 1.52 1.19 0.91 0.73 0.73 0.73 0.69 0.67 0.67 0.65 0.65 0.68 0.72
1.74 1.95 2.09 2.36 3.01 3.80 4.18 4.50 5.06 5.38 5.20 4.98 4.72 4.59 4.51 4.48 4.42 4.16 4.02 3.75 3.47 3.14 2.86 2.61 2.40 2.30 2.21 2.08 1.93 1.97 1.75 1.40 1.04 0.78 0.62 0.58 0.58 0.61 0.61 0.58 0.58 0.58 0.63
1.96 2.03 2.20 2.70 3.46 4.12 4.59 5.13 5.65 5.88 5.89 5.75 5.26 4.78 4.33 3.99 3.80 3.68 3.54 3.36 3.12 2.80 2.57 2.37 2.17 2.06 2.09 1.98 1.84 1.67 1.57 1.35 1.17 0.96 0.72 0.59 0.57 0.62 0.64 0.63 0.61 0.61 0.65
1.72 2.09 2.34 2.86 3.55 4.23 4.91 5.55 5.94 6.16 6.12 5.72 4.93 4.19 3.74 3.45 3.17 2.94 2.79 2.67 2.51 2.32 2.14 2.02 1.94 1.83 1.76 1.67 1.55 1.47 1.41 1.27 1.07 0.93 0.83 0.71 0.70 0.70 0.70 0.70 0.70 0.72 0.74
1.59 1.88 2.29 2.59 3.21 3.89 4.47 4.97 5.14 5.30 5.25 4.82 4.34 3.83 3.45 3.02 2.53 2.17 1.98 1.85 1.75 1.65 1.62 1.60 1.56 1.51 1.46 1.41 1.34 1.25 1.20 1.18 1.10 1.02 0.91 0.82 0.85 0.84 0.78 0.73 0.70 0.71 0.71

GEFSSE_prec_meanprecacc_132.txt.gz
Total_Precipitation_Accumulation
0.04 0.01 0.04 0.03 0.06 0.08 0.09 0.09 0.11 0.11 0.08 0.09 0.12 0.15 0.14 0.10 0.08 0.07 0.07 0.08 0.11 0.16 0.18 0.19 0.21 0.24 0.23 0.19 0.14 0.09 0.07 0.06 0.06 0.07 0.10 0.16 0.20 0.18 0.17 0.17 0.29 0.33 0.14
0.05 0.01 0.03 0.03 0.04 0.07 0.08 0.09 0.09 0.09 0.07 0.08 0.10 0.11 0.11 0.10 0.09 0.08 0.08 0.09 0.12 0.15 0.17 0.16 0.16 0.20 0.18 0.11 0.08 0.06 0.05 0.07 0.12 0.17 0.21 0.24 0.30 0.25 0.20 0.18 0.35 0.47 0.22
0.04 0.01 0.02 0.04 0.04 0.05 0.06 0.08 0.09 0.08 0.07 0.08 0.09 0.09 0.10 0.09 0.09 0.09 0.09 0.12 0.18 0.22 0.20 0.18 0.18 0.19 0.17 0.11 0.08 0.06 0.06 0.11 0.20 0.34 0.59 0.58 0.52 0.37 0.28 0.21 0.22 0.21 0.24
0.04 0.02 0.02 0.03 0.04 0.05 0.05 0.07 0.10 0.10 0.08 0.08 0.08 0.08 0.09 0.09 0.08 0.08 0.09 0.13 0.20 0.24 0.24 0.22 0.20 0.19 0.16 0.11 0.08 0.07 0.10 0.17 0.30 0.56 1.02 0.84 0.67 0.52 0.38 0.28 0.25 0.22 0.27
0.05 0.02 0.02 0.03 0.03 0.05 0.05 0.06 0.10 0.10 0.09 0.09 0.09 0.09 0.09 0.09 0.09 0.10 0.12 0.13 0.16 0.20 0.19 0.15 0.13 0.13 0.14 0.10 0.09 0.10 0.16 0.28 0.46 0.78 1.22 1.22 1.07 0.70 0.43 0.32 0.33 0.34 0.36
0.07 0.04 0.02 0.04 0.05 0.06 0.07 0.08 0.10 0.09 0.10 0.11 0.11 0.13 0.13 0.13 0.12 0.14 0.17 0.18 0.17 0.18 0.16 0.13 0.12 0.12 0.12 0.09 0.09 0.15 0.24 0.40 0.53 0.90 1.23 1.26 0.96 0.67 0.48 0.42 0.42 0.42 0.41
0.14 0.07 0.04 0.05 0.07 0.10 0.11 0.14 0.16 0.15 0.15 0.16 0.17 0.18 0.17 0.16 0.17 0.18 0.19 0.20 0.19 0.19 0.17 0.15 0.16 0.14 0.11 0.09 0.10 0.16 0.26 0.42 0.62 1.24 1.30 1.25 1.05 0.71 0.55 0.48 0.43 0.40 0.39
0.18 0.11 0.08 0.06 0.09 0.14 0.18 0.20 0.22 0.19 0.17 0.18 0.20 0.22 0.19 0.16 0.16 0.15 0.15 0.17 0.19 0.21 0.20 0.15 0.11 0.08 0.06 0.08 0.10 0.14 0.24 0.32 0.50 0.94 1.18 1.04 0.80 0.60 0.52 0.42 0.36 0.33 0.32
0.31 0.17 0.12 0.10 0.10 0.17 0.25 0.23 0.22 0.20 0.19 0.20 0.24 0.27 0.23 0.18 0.14 0.13 0.16 0.17 0.17 0.17 0.15 0.09 0.05 0.04 0.04 0.05 0.07 0.11 0.20 0.29 0.47 0.75 0.84 0.85 0.67 0.50 0.46 0.40 0.32 0.28 0.30
0.46 0.29 0.23 0.22 0.20 0.20 0.22 0.25 0.25 0.24 0.24 0.24 0.25 0.23 0.19 0.14 0.13 0.13 0.13 0.13 0.13 0.14 0.15 0.10 0.06 0.05 0.05 0.05 0.06 0.10 0.16 0.21 0.36 0.60 0.97 0.99 0.65 0.60 0.55 0.44 0.36 0.31 0.28
0.48 0.42 0.38 0.34 0.32 0.29 0.26 0.22 0.25 0.23 0.23 0.20 0.17 0.16 0.15 0.17 0.22 0.22 0.16 0.15 0.18 0.18 0.15 0.11 0.09 0.07 0.06 0.05 0.08 0.11 0.11 0.18 0.45 0.85 1.14 1.02 0.70 0.71 0.64 0.55 0.45 0.40 0.36
0.68 0.63 0.58 0.58 0.53 0.48 0.44 0.42 0.38 0.32 0.27 0.21 0.23 0.19 0.21 0.43 0.52 0.43 0.41 0.30 0.26 0.22 0.16 0.14 0.12 0.10 0.09 0.10 0.14 0.12 0.14 0.21 0.58 1.10 1.07 0.68 0.73 0.84 0.79 0.70 0.63 0.56 0.52
1.02 0.73 0.65 0.75 0.75 0.81 0.86 0.68 0.65 0.62 0.53 0.39 0.49 0.46 0.51 0.65 0.59 0.57 0.62 0.47 0.36 0.30 0.28 0.30 0.21 0.17 0.17 0.22 0.26 0.21 0.23 0.31 0.46 0.80 0.87 0.68 0.79 0.95 1.00 0.88 0.76 0.67 0.67
1.31 1.08 0.84 0.77 0.76 0.83 0.97 0.89 0.88 0.83 0.77 0.68 0.71 0.57 0.67 0.80 0.87 0.88 0.99 0.86 0.78 0.71 0.66 0.57 0.50 0.36 0.33 0.33 0.33 0.35 0.40 0.41 0.52 0.73 0.78 0.65 0.71 0.95 1.19 1.11 0.95 0.85 0.84
1.60 1.41 1.16 0.93 0.92 0.98 1.12 1.16 1.13 1.10 1.04 1.08 1.12 0.92 0.91 0.87 0.96 1.17 1.20 1.33 1.13 1.13 1.06 0.94 0.76 0.68 0.58 0.50 0.48 0.51 0.58 0.60 0.66 0.77 0.79 0.73 0.76 0.94 1.23 1.32 1.21 1.16 1.12
1.92 1.64 1.45 1.30 1.14 1.07 1.07 1.16 1.18 1.14 1.22 1.29 1.42 1.32 1.24 1.18 1.31 1.62 1.63 1.59 1.43 1.47 1.55 1.55 1.37 1.15 0.95 0.89 0.81 0.80 0.83 0.90 0.98 1.01 1.04 0.94 0.85 0.93 1.17 1.35 1.42 1.46 1.39
1.77 1.80 1.75 1.65 1.48 1.25 1.14 1.25 1.36 1.29 1.30 1.37 1.58 1.65 1.59 1.54 1.73 1.76 2.00 1.96 1.82 1.77 1.70 1.63 1.78 1.75 1.45 1.24 1.11 1.06 1.14 1.17 1.18 1.23 1.33 1.37 1.17 1.06 1.10 1.23 1.33 1.39 1.40
1.89 1.76 1.77 1.61 1.44 1.50 1.45 1.56 1.62 1.73 1.83 1.79 1.84 2.09 2.15 2.10 2.11 2.07 2.09 2.12 2.04 2.00 2.16 2.20 2.12 2.10 2.01 1.77 1.57 1.44 1.42 1.49 1.38 1.38 1.38 1.50 1.57 1.32 1.09 1.05 1.09 1.15 1.30
1.56 1.62 1.68 1.70 1.58 1.53 1.72 1.99 2.09 2.27 2.55 2.69 2.64 2.80 2.77 2.62 2.58 2.60 2.61 2.68 2.55 2.56 2.52 2.40 2.53 2.45 2.35 2.12 1.77 1.61 1.46 1.50 1.45 1.29 1.30 1.42 1.49 1.37 1.23 1.06 1.02 1.10 1.29
1.40 1.51 1.63 1.83 1.92 1.83 1.88 2.11 2.45 2.64 2.84 3.23 3.30 3.28 3.28 3.32 3.27 3.27 3.19 3.20 3.10 2.98 2.84 2.78 2.70 2.48 2.35 2.10 1.72 1.54 1.39 1.26 1.24 1.26 1.15 1.14 1.16 1.05 1.07 1.06 1.03 1.00 1.14
1.62 1.87 1.84 1.90 2.07 2.25 2.52 2.53 2.71 3.07 3.46 3.69 3.87 3.97 3.93 3.82 3.76 3.58 3.46 3.48 3.31 3.13 2.94 2.81 2.68 2.56 2.27 2.03 1.94 1.68 1.35 1.17 1.07 1.02 1.01 0.98 0.91 0.88 0.95 0.97 0.94 0.93 0.97
1.76 1.97 2.09 2.15 2.47 2.93 3.33 3.77 4.18 4.47 4.48 4.62 4.66 4.64 4.49 4.34 4.16 3.92 3.87 3.73 3.47 3.28 3.03 2.79 2.61 2.55 2.32 2.14 2.11 2.02 1.63 1.30 1.00 0.78 0.78 0.78 0.75 0.75 0.76 0.73 0.73 0.76 0.81
1.78 1.99 2.14 2.42 3.06 3.85 4.23 4.56 5.11 5.44 5.26 5.05 4.82 4.74 4.65 4.63 4.58 4.33 4.17 3.90 3.62 3.31 3.03 2.76 2.55 2.45 2.36 2.22 2.05 2.11 1.89 1.55 1.17 0.88 0.69 0.64 0.65 0.70 0.71 0.68 0.65 0.66 0.71
2.00 2.07 2.25 2.75 3.50 4.17 4.64 5.19 5.72 5.95 5.97 5.82 5.33 4.89 4.46 4.11 3.92 3.78 3.66 3.48 3.24 2.93 2.71 2.49 2.29 2.19 2.24 2.12 1.98 1.82 1.70 1.49 1.33 1.10 0.83 0.70 0.68 0.71 0.73 0.71 0.68 0.68 0.71
1.77 2.14 2.40 2.94 3.62 4.30 4.98 5.63 6.02 6.23 6.22 5.81 5.01 4.27 3.82 3.51 3.23 3.01 2.88 2.76 2.60 2.43 2.26 2.14 2.06 1.94 1.88 1.78 1.67 1.58 1.52 1.40 1.21 1.09 0.97 0.84 0.81 0.80 0.79 0.77 0.77 0.78 0.78
1.63 1.94 2.36 2.67 3.30 3.97 4.55 5.04 5.21 5.37 5.33 4.92 4.44 3.92 3.52 3.07 2.57 2.21 2.02 1.92 1.82 1.73 1.70 1.68 1.66 1.62 1.56 1.52 1.45 1.37 1.31 1.29 1.22 1.16 1.04 0.96 0.97 0.93 0.87 0.81 0.77 0.78 0.77

GEFSSE_prec_meanprecacc_138.txt.gz
Total_Precipitation_Accumulation
0.05 0.02 0.04 0.03 0.06 0.08 0.09 0.09 0.11 0.11 0.08 0.09 0.12 0.15 0.14 0.10 0.08 0.07 0.07 0.09 0.12 0.16 0.18 0.19 0.22 0.24 0.23 0.20 0.14 0.10 0.07 0.07 0.06 0.08 0.12 0.17 0.22 0.20 0.19 0.19 0.30 0.34 0.15
0.05 0.02 0.03 0.03 0.05 0.07 0.08 0.09 0.09 0.09 0.07 0.08 0.10 0.11 0.11 0.10 0.09 0.09 0.08 0.09 0.12 0.15 0.17 0.16 0.17 0.20 0.18 0.12 0.09 0.06 0.05 0.08 0.13 0.19 0.24 0.26 0.32 0.27 0.23 0.20 0.36 0.47 0.23
0.05 0.02 0.02 0.04 0.04 0.06 0.07 0.08 0.09 0.08 0.08 0.08 0.09 0.09 0.10 0.09 0.09 0.09 0.09 0.12 0.18 0.22 0.20 0.18 0.18 0.19 0.17 0.11 0.08 0.06 0.07 0.13 0.23 0.38 0.62 0.60 0.53 0.39 0.29 0.22 0.23 0.21 0.24
0.05 0.02 0.02 0.03 0.04 0.05 0.05 0.08 0.10 0.10 0.08 0.08 0.09 0.09 0.09 0.09 0.09 0.09 0.10 0.13 0.20 0.25 0.24 0.22 0.20 0.19 0.16 0.11 0.09 0.08 0.11 0.19 0.34 0.60 1.07 0.87 0.69 0.54 0.40 0.29 0.25 0.23 0.27
0.06 0.03 0.02 0.03 0.04 0.05 0.05 0.06 0.10 0.11 0.09 0.09 0.09 0.09 0.09 0.09 0.09 0.11 0.12 0.13 0.16 0.20 0.19 0.15 0.13 0.13 0.14 0.10 0.09 0.11 0.17 0.30 0.51 0.85 1.30 1.28 1.10 0.74 0.44 0.32 0.34 0.34 0.36
0.08 0.04 0.03 0.04 0.05 0.07 0.08 0.08 0.10 0.10 0.10 0.11 0.11 0.13 0.13 0.13 0.12 0.14 0.17 0.18 0.17 0.18 0.16 0.14 0.12 0.12 0.13 0.09 0.09 0.16 0.26 0.44 0.59 0.96 1.31 1.32 1.00 0.72 0.51 0.43 0.42 0.42 0.41
0.15 0.07 0.04 0.05 0.07 0.10 0.12 0.14 0.16 0.16 0.15 0.16 0.18 0.19 0.18 0.16 0.17 0.18 0.19 0.20 0.19 0.19 0.17 0.15 0.16 0.15 0.12 0.10 0.11 0.17 0.29 0.46 0.66 1.29 1.37 1.31 1.09 0.77 0.58 0.49 0.43 0.40 0.39
0.20 0.11 0.08 0.07 0.09 0.15 0.19 0.21 0.23 0.20 0.18 0.19 0.21 0.23 0.20 0.17 0.16 0.16 0.17 0.18 0.19 0.22 0.21 0.15 0.11 0.08 0.07 0.09 0.10 0.15 0.26 0.35 0.54 1.01 1.24 1.09 0.85 0.65 0.56 0.43 0.37 0.33 0.33
0.33 0.17 0.13 0.10 0.10 0.18 0.26 0.24 0.23 0.21 0.21 0.23 0.27 0.29 0.24 0.19 0.16 0.15 0.17 0.18 0.18 0.18 0.15 0.09 0.06 0.04 0.04 0.05 0.07 0.11 0.22 0.33 0.52 0.83 0.92 0.91 0.72 0.58 0.51 0.42 0.33 0.29 0.30
0.48 0.30 0.23 0.22 0.20 0.21 0.23 0.25 0.26 0.25 0.26 0.27 0.27 0.25 0.21 0.16 0.15 0.15 0.15 0.15 0.15 0.15 0.15 0.11 0.07 0.05 0.05 0.05 0.07 0.10 0.18 0.25 0.41 0.69 1.09 1.09 0.73 0.69 0.61 0.47 0.38 0.33 0.29
0.51 0.45 0.40 0.35 0.32 0.30 0.26 0.23 0.26 0.24 0.25 0.23 0.20 0.18 0.17 0.19 0.25 0.24 0.19 0.18 0.19 0.19 0.16 0.12 0.10 0.08 0.06 0.06 0.10 0.13 0.14 0.22 0.52 0.95 1.30 1.13 0.80 0.80 0.71 0.59 0.47 0.42 0.36
0.72 0.66 0.62 0.62 0.57 0.51 0.46 0.44 0.41 0.35 0.31 0.25 0.28 0.24 0.25 0.48 0.57 0.49 0.48 0.36 0.30 0.25 0.18 0.16 0.14 0.11 0.10 0.11 0.15 0.15 0.18 0.31 0.71 1.28 1.24 0.79 0.85 0.95 0.87 0.76 0.67 0.59 0.54
1.08 0.79 0.71 0.82 0.83 0.90 0.96 0.76 0.72 0.72 0.61 0.47 0.60 0.58 0.59 0.74 0.69 0.69 0.73 0.58 0.45 0.37 0.33 0.34 0.23 0.19 0.19 0.25 0.29 0.26 0.32 0.42 0.62 1.00 1.02 0.86 0.95 1.08 1.11 0.96 0.81 0.72 0.70
1.37 1.13 0.89 0.84 0.84 0.97 1.10 1.03 0.99 0.96 0.89 0.80 0.85 0.73 0.80 0.91 1.00 1.08 1.21 1.04 0.92 0.81 0.75 0.63 0.54 0.40 0.38 0.39 0.41 0.44 0.52 0.55 0.73 0.94 0.97 0.82 0.82 1.06 1.32 1.20 1.01 0.91 0.89
1.68 1.48 1.24 1.03 0.99 1.09 1.22 1.25 1.21 1.18 1.13 1.17 1.24 1.07 1.07 1.02 1.11 1.38 1.43 1.56 1.32 1.27 1.16 1.01 0.84 0.76 0.66 0.59 0.56 0.60 0.68 0.69 0.76 0.88 0.90 0.86 0.85 1.02 1.32 1.41 1.29 1.23 1.18
2.12 1.75 1.52 1.36 1.20 1.12 1.14 1.22 1.23 1.21 1.32 1.41 1.54 1.45 1.41 1.40 1.51 1.84 1.92 1.84 1.64 1.65 1.72 1.69 1.48 1.24 1.04 0.97 0.89 0.88 0.93 0.97 1.05 1.07 1.11 1.03 0.92 0.99 1.24 1.43 1.50 1.54 1.46
2.16 2.05 1.87 1.72 1.57 1.32 1.19 1.29 1.39 1.33 1.37 1.45 1.67 1.78 1.75 1.75 1.97 2.03 2.28 2.24 2.04 1.96 1.90 1.83 1.92 1.88 1.56 1.33 1.20 1.15 1.24 1.26 1.26 1.31 1.40 1.42 1.22 1.11 1.15 1.29 1.41 1.45 1.47
2.32 2.03 1.93 1.70 1.51 1.57 1.50 1.60 1.65 1.76 1.88 1.85 1.91 2.20 2.30 2.28 2.32 2.34 2.35 2.34 2.25 2.20 2.35 2.40 2.29 2.24 2.14 1.89 1.68 1.56 1.52 1.57 1.45 1.44 1.44 1.55 1.62 1.36 1.13 1.10 1.14 1.21 1.38
1.79 1.79 1.83 1.78 1.62 1.57 1.74 2.00 2.12 2.32 2.60 2.76 2.75 2.95 2.91 2.75 2.72 2.80 2.83 2.84 2.69 2.71 2.64 2.52 2.66 2.56 2.47 2.24 1.88 1.72 1.58 1.60 1.51 1.35 1.34 1.46 1.53 1.41 1.28 1.11 1.06 1.15 1.35
1.53 1.60 1.72 1.90 1.96 1.86 1.90 2.12 2.47 2.69 2.91 3.30 3.39 3.43 3.46 3.50 3.47 3.47 3.40 3.37 3.22 3.09 2.95 2.88 2.81 2.58 2.43 2.19 1.82 1.66 1.51 1.38 1.32 1.32 1.19 1.18 1.20 1.11 1.14 1.12 1.10 1.06 1.20
1.78 1.96 1.88 1.95 2.14 2.29 2.53 2.55 2.74 3.10 3.50 3.73 3.93 4.05 4.04 3.97 3.95 3.76 3.62 3.64 3.45 3.26 3.06 2.91 2.78 2.67 2.37 2.13 2.05 1.79 1.45 1.26 1.16 1.08 1.07 1.04 0.98 0.96 1.04 1.05 1.00 0.96 1.01
1.85 2.03 2.12 2.18 2.51 2.98 3.37 3.80 4.21 4.50 4.50 4.65 4.70 4.68 4.55 4.41 4.29 4.09 4.02 3.87 3.61 3.41 3.17 2.91 2.73 2.67 2.45 2.25 2.22 2.15 1.72 1.37 1.08 0.84 0.86 0.88 0.86 0.86 0.86 0.84 0.81 0.80 0.85
1.85 2.04 2.18 2.46 3.10 3.89 4.28 4.60 5.15 5.47 5.29 5.08 4.86 4.78 4.69 4.67 4.66 4.47 4.33 4.04 3.76 3.46 3.18 2.91 2.70 2.58 2.48 2.34 2.16 2.23 1.99 1.62 1.23 0.95 0.81 0.76 0.78 0.84 0.83 0.79 0.75 0.74 0.77
2.05 2.14 2.31 2.80 3.54 4.20 4.68 5.24 5.77 5.99 6.01 5.85 5.37 4.93 4.49 4.15 3.97 3.88 3.81 3.63 3.38 3.07 2.86 2.63 2.43 2.31 2.38 2.27 2.13 1.94 1.80 1.58 1.40 1.16 0.92 0.81 0.79 0.82 0.85 0.82 0.79 0.78 0.80
1.82 2.19 2.44 2.97 3.65 4.34 5.03 5.70 6.08 6.29 6.26 5.84 5.06 4.33 3.88 3.57 3.30 3.09 2.97 2.85 2.70 2.54 2.38 2.27 2.18 2.05 1.99 1.90 1.79 1.70 1.61 1.49 1.29 1.14 1.01 0.89 0.87 0.88 0.90 0.89 0.90 0.88 0.85
1.67 1.97 2.39 2.71 3.34 4.03 4.62 5.13 5.28 5.42 5.36 4.94 4.48 3.99 3.60 3.16 2.67 2.32 2.13 2.01 1.91 1.83 1.82 1.81 1.79 1.73 1.66 1.61 1.55 1.46 1.38 1.36 1.29 1.22 1.09 1.00 1.01 0.97 0.93 0.90 0.88 0.89 0.88

GEFSSE_prec_meanprecacc_144.txt.gz
Total_Precipitation_Accumulation
0.06 0.04 0.05 0.03 0.06 0.08 0.09 0.09 0.11 0.11 0.08 0.09 0.12 0.15 0.14 0.10 0.08 0.08 0.07 0.09 0.12 0.17 0.19 0.20 0.23 0.26 0.25 0.21 0.15 0.10 0.08 0.07 0.07 0.08 0.13 0.19 0.26 0.26 0.25 0.23 0.32 0.34 0.17
0.06 0.03 0.04 0.03 0.05 0.07 0.08 0.09 0.09 0.09 0.07 0.08 0.10 0.11 0.11 0.10 0.09 0.09 0.08 0.09 0.12 0.16 0.17 0.17 0.17 0.21 0.19 0.12 0.09 0.07 0.06 0.08 0.14 0.21 0.26 0.29 0.37 0.34 0.31 0.24 0.37 0.48 0.24
0.05 0.03 0.03 0.04 0.04 0.06 0.07 0.08 0.09 0.08 0.08 0.08 0.09 0.09 0.10 0.10 0.09 0.09 0.10 0.13 0.19 0.22 0.21 0.19 0.19 0.20 0.17 0.12 0.08 0.07 0.08 0.14 0.25 0.43 0.67 0.62 0.57 0.44 0.36 0.24 0.24 0.22 0.25
0.06 0.03 0.03 0.04 0.04 0.05 0.05 0.08 0.10 0.10 0.08 0.08 0.09 0.09 0.09 0.09 0.09 0.09 0.10 0.14 0.20 0.25 0.25 0.23 0.21 0.19 0.16 0.11 0.10 0.10 0.13 0.22 0.38 0.64 1.09 0.89 0.71 0.58 0.44 0.30 0.26 0.23 0.28
0.08 0.04 0.03 0.04 0.04 0.05 0.06 0.07 0.10 0.11 0.09 0.09 0.09 0.09 0.09 0.09 0.09 0.11 0.12 0.13 0.16 0.21 0.20 0.16 0.14 0.14 0.14 0.11 0.11 0.14 0.20 0.34 0.57 0.89 1.32 1.31 1.14 0.78 0.47 0.33 0.34 0.35 0.36
0.10 0.05 0.04 0.05 0.06 0.07 0.08 0.09 0.10 0.10 0.10 0.11 0.12 0.13 0.13 0.13 0.12 0.15 0.18 0.18 0.18 0.19 0.17 0.14 0.13 0.12 0.13 0.10 0.11 0.18 0.28 0.48 0.64 0.98 1.34 1.36 1.05 0.77 0.53 0.44 0.43 0.42 0.41
0.18 0.09 0.05 0.06 0.08 0.11 0.13 0.15 0.16 0.16 0.16 0.17 0.18 0.19 0.18 0.17 0.18 0.18 0.20 0.21 0.20 0.20 0.18 0.16 0.17 0.15 0.13 0.11 0.12 0.18 0.31 0.50 0.69 1.32 1.41 1.35 1.14 0.83 0.63 0.51 0.44 0.40 0.40
0.23 0.13 0.10 0.08 0.10 0.16 0.19 0.22 0.24 0.21 0.19 0.19 0.22 0.23 0.20 0.17 0.17 0.17 0.17 0.18 0.20 0.22 0.21 0.16 0.11 0.08 0.07 0.09 0.11 0.17 0.29 0.39 0.57 1.04 1.27 1.12 0.87 0.72 0.62 0.47 0.38 0.34 0.33
0.36 0.20 0.15 0.12 0.11 0.18 0.26 0.25 0.23 0.22 0.21 0.23 0.27 0.29 0.25 0.20 0.16 0.15 0.18 0.19 0.19 0.19 0.16 0.09 0.06 0.05 0.05 0.06 0.08 0.13 0.25 0.37 0.55 0.86 0.95 0.93 0.75 0.63 0.59 0.49 0.37 0.32 0.32
0.50 0.32 0.24 0.23 0.21 0.21 0.24 0.26 0.26 0.25 0.26 0.27 0.28 0.26 0.22 0.16 0.15 0.16 0.15 0.16 0.16 0.17 0.17 0.12 0.08 0.07 0.06 0.06 0.08 0.12 0.21 0.27 0.44 0.71 1.11 1.11 0.76 0.75 0.73 0.58 0.46 0.40 0.33
0.53 0.46 0.42 0.37 0.34 0.30 0.27 0.24 0.27 0.24 0.25 0.23 0.20 0.19 0.18 0.20 0.26 0.25 0.21 0.19 0.21 0.22 0.20 0.15 0.12 0.11 0.09 0.08 0.11 0.15 0.16 0.23 0.54 0.97 1.31 1.15 0.84 0.88 0.83 0.69 0.56 0.49 0.42
0.74 0.69 0.65 0.64 0.59 0.52 0.46 0.45 0.41 0.35 0.32 0.26 0.29 0.25 0.26 0.49 0.59 0.51 0.50 0.39 0.34 0.29 0.22 0.20 0.18 0.15 0.13 0.13 0.17 0.17 0.19 0.33 0.73 1.31 1.26 0.82 0.92 1.04 0.99 0.86 0.75 0.67 0.61
1.14 0.86 0.76 0.85 0.85 0.91 0.96 0.77 0.73 0.73 0.62 0.49 0.62 0.59 0.60 0.76 0.70 0.70 0.75 0.61 0.49 0.40 0.36 0.38 0.27 0.22 0.21 0.26 0.30 0.27 0.33 0.43 0.64 1.02 1.05 0.91 1.02 1.21 1.27 1.10 0.91 0.81 0.79
1.47 1.22 0.97 0.89 0.89 1.01 1.13 1.05 1.01 0.98 0.91 0.81 0.86 0.73 0.81 0.92 1.01 1.09 1.23 1.07 0.95 0.84 0.79 0.67 0.57 0.43 0.40 0.42 0.43 0.46 0.54 0.57 0.75 0.96 1.00 0.85 0.87 1.16 1.46 1.35 1.14 1.03 0.99
1.79 1.56 1.29 1.08 1.05 1.15 1.26 1.29 1.23 1.20 1.14 1.18 1.26 1.08 1.09 1.04 1.14 1.42 1.47 1.60 1.36 1.31 1.21 1.06 0.88 0.80 0.69 0.62 0.61 0.64 0.72 0.72 0.78 0.90 0.92 0.89 0.90 1.09 1.42 1.53 1.42 1.37 1.29
2.28 1.89 1.61 1.43 1.27 1.18 1.19 1.27 1.28 1.25 1.35 1.43 1.56 1.48 1.44 1.44 1.57 1.93 1.99 1.90 1.69 1.71 1.78 1.75 1.55 1.31 1.09 1.02 0.94 0.92 0.96 1.01 1.09 1.10 1.13 1.06 0.97 1.06 1.33 1.54 1.64 1.70 1.61
2.33 2.22 2.00 1.80 1.64 1.38 1.24 1.34 1.45 1.37 1.41 1.47 1.69 1.81 1.78 1.79 2.02 2.11 2.35 2.30 2.11 2.03 1.97 1.91 2.02 1.96 1.63 1.38 1.26 1.21 1.29 1.32 1.33 1.36 1.44 1.45 1.25 1.17 1.25 1.41 1.54 1.59 1.61
2.47 2.18 2.13 1.85 1.61 1.65 1.56 1.67 1.75 1.87 1.95 1.89 1.94 2.23 2.32 2.31 2.35 2.38 2.41 2.41 2.32 2.28 2.44 2.50 2.40 2.33 2.21 1.94 1.75 1.62 1.57 1.65 1.54 1.51 1.49 1.60 1.65 1.40 1.19 1.19 1.25 1.33 1.49
1.94 1.94 1.98 1.90 1.72 1.65 1.83 2.10 2.24 2.43 2.66 2.80 2.78 2.97 2.94 2.78 2.75 2.83 2.89 2.93 2.78 2.79 2.75 2.63 2.76 2.65 2.55 2.32 1.96 1.79 1.64 1.68 1.60 1.41 1.40 1.51 1.57 1.47 1.35 1.20 1.19 1.27 1.47
1.71 1.77 1.90 2.05 2.10 1.96 1.97 2.21 2.57 2.76 2.96 3.33 3.41 3.45 3.49 3.54 3.51 3.52 3.48 3.47 3.33 3.20 3.06 2.97 2.91 2.68 2.53 2.30 1.92 1.74 1.60 1.46 1.40 1.40 1.26 1.25 1.26 1.17 1.22 1.21 1.19 1.16 1.30
1.92 2.10 2.00 2.04 2.24 2.39 2.63 2.66 2.82 3.15 3.54 3.76 3.95 4.07 4.07 4.00 3.99 3.82 3.70 3.74 3.56 3.38 3.19 3.03 2.91 2.79 2.49 2.24 2.15 1.89 1.54 1.34 1.24 1.16 1.14 1.10 1.04 1.03 1.13 1.13 1.07 1.05 1.08
1.96 2.12 2.20 2.27 2.60 3.08 3.48 3.89 4.26 4.54 4.54 4.69 4.73 4.71 4.57 4.44 4.32 4.12 4.06 3.95 3.71 3.53 3.29 3.04 2.88 2.81 2.56 2.36 2.32 2.24 1.80 1.45 1.15 0.90 0.91 0.93 0.93 0.95 0.96 0.92 0.88 0.88 0.92
1.97 2.17 2.28 2.55 3.18 3.97 4.35 4.67 5.21 5.51 5.32 5.11 4.89 4.81 4.71 4.69 4.69 4.50 4.37 4.09 3.84 3.55 3.27 3.00 2.79 2.69 2.59 2.45 2.26 2.32 2.06 1.67 1.29 1.00 0.85 0.80 0.83 0.91 0.91 0.87 0.82 0.81 0.84
2.20 2.28 2.42 2.89 3.61 4.27 4.73 5.29 5.81 6.03 6.04 5.88 5.40 4.96 4.52 4.18 3.99 3.91 3.84 3.67 3.44 3.16 2.96 2.72 2.51 2.40 2.47 2.35 2.21 2.01 1.87 1.64 1.45 1.20 0.95 0.85 0.83 0.86 0.89 0.87 0.85 0.84 0.84
1.98 2.35 2.59 3.08 3.74 4.40 5.09 5.76 6.13 6.32 6.29 5.87 5.09 4.35 3.90 3.59 3.32 3.11 3.00 2.89 2.75 2.61 2.46 2.38 2.31 2.17 2.11 2.00 1.88 1.78 1.69 1.56 1.35 1.18 1.04 0.92 0.90 0.91 0.92 0.93 0.94 0.92 0.89
1.85 2.12 2.51 2.80 3.42 4.11 4.69 5.18 5.32 5.46 5.39 4.96 4.50 4.01 3.62 3.17 2.68 2.34 2.16 2.05 1.96 1.89 1.89 1.91 1.91 1.85 1.78 1.73 1.66 1.54 1.46 1.44 1.35 1.26 1.13 1.02 1.03 0.99 0.95 0.93 0.91 0.93 0.93

GEFSSE_prec_meanprecacc_150.txt.gz
Total_Precipitation_Accumulation
0.08 0.05 0.06 0.04 0.06 0.09 0.10 0.10 0.11 0.11 0.09 0.10 0.12 0.16 0.14 0.10 0.08 0.08 0.08 0.09 0.12 0.17 0.19 0.20 0.23 0.26 0.25 0.21 0.15 0.11 0.08 0.08 0.07 0.08 0.13 0.20 0.28 0.28 0.27 0.25 0.35 0.36 0.18
0.08 0.04 0.05 0.04 0.05 0.07 0.09 0.09 0.10 0.09 0.08 0.08 0.10 0.12 0.12 0.10 0.09 0.09 0.09 0.09 0.13 0.16 0.17 0.17 0.18 0.21 0.19 0.12 0.09 0.07 0.06 0.09 0.15 0.22 0.28 0.31 0.39 0.37 0.33 0.26 0.40 0.51 0.25
0.07 0.04 0.04 0.05 0.05 0.06 0.07 0.09 0.09 0.08 0.08 0.08 0.09 0.10 0.10 0.10 0.09 0.09 0.10 0.13 0.19 0.22 0.21 0.19 0.19 0.20 0.18 0.12 0.09 0.07 0.08 0.15 0.27 0.45 0.70 0.65 0.58 0.46 0.38 0.26 0.25 0.23 0.26
0.07 0.04 0.03 0.05 0.05 0.05 0.06 0.08 0.10 0.10 0.08 0.08 0.09 0.09 0.09 0.09 0.09 0.09 0.10 0.14 0.20 0.25 0.25 0.23 0.21 0.20 0.17 0.12 0.11 0.11 0.14 0.22 0.39 0.65 1.10 0.90 0.73 0.61 0.46 0.32 0.28 0.24 0.29
0.09 0.05 0.04 0.05 0.05 0.06 0.06 0.07 0.10 0.11 0.09 0.09 0.09 0.09 0.09 0.10 0.10 0.11 0.13 0.14 0.17 0.22 0.21 0.16 0.14 0.14 0.14 0.11 0.11 0.14 0.21 0.36 0.60 0.91 1.33 1.32 1.19 0.83 0.49 0.34 0.36 0.36 0.37
0.12 0.06 0.04 0.06 0.06 0.08 0.09 0.09 0.11 0.10 0.11 0.11 0.12 0.13 0.14 0.14 0.13 0.15 0.19 0.19 0.19 0.19 0.18 0.15 0.13 0.12 0.14 0.11 0.12 0.19 0.31 0.52 0.68 1.02 1.36 1.38 1.08 0.81 0.57 0.47 0.46 0.44 0.42
0.19 0.11 0.07 0.07 0.09 0.12 0.14 0.16 0.17 0.17 0.17 0.17 0.18 0.20 0.19 0.18 0.19 0.19 0.20 0.22 0.21 0.21 0.19 0.17 0.17 0.15 0.13 0.12 0.13 0.21 0.34 0.55 0.74 1.39 1.48 1.39 1.18 0.88 0.68 0.55 0.47 0.42 0.41
0.24 0.15 0.12 0.10 0.12 0.17 0.21 0.23 0.26 0.23 0.20 0.20 0.22 0.24 0.21 0.18 0.18 0.18 0.18 0.19 0.21 0.23 0.23 0.17 0.12 0.09 0.08 0.10 0.12 0.18 0.31 0.42 0.61 1.08 1.31 1.17 0.93 0.77 0.70 0.53 0.44 0.39 0.36
0.37 0.21 0.17 0.13 0.13 0.20 0.28 0.26 0.24 0.23 0.22 0.24 0.28 0.30 0.26 0.21 0.17 0.16 0.19 0.20 0.21 0.21 0.17 0.11 0.07 0.06 0.06 0.07 0.09 0.14 0.27 0.40 0.60 0.91 0.98 0.99 0.78 0.69 0.71 0.60 0.47 0.39 0.37
0.52 0.35 0.28 0.26 0.24 0.24 0.26 0.27 0.27 0.26 0.27 0.27 0.28 0.26 0.23 0.17 0.16 0.17 0.17 0.18 0.18 0.19 0.18 0.14 0.10 0.09 0.09 0.08 0.09 0.14 0.23 0.30 0.48 0.75 1.16 1.14 0.78 0.83 0.85 0.68 0.56 0.48 0.39
0.57 0.51 0.46 0.41 0.38 0.34 0.29 0.25 0.28 0.25 0.26 0.24 0.21 0.19 0.19 0.21 0.27 0.27 0.23 0.22 0.23 0.23 0.22 0.18 0.16 0.14 0.12 0.10 0.13 0.17 0.18 0.26 0.55 0.99 1.35 1.18 0.88 0.96 0.94 0.78 0.66 0.60 0.50
0.76 0.74 0.70 0.69 0.62 0.54 0.48 0.47 0.44 0.37 0.33 0.27 0.30 0.26 0.27 0.51 0.61 0.52 0.52 0.42 0.37 0.32 0.26 0.24 0.22 0.19 0.17 0.16 0.20 0.19 0.21 0.34 0.75 1.33 1.28 0.84 0.96 1.14 1.12 1.00 0.87 0.79 0.73
1.15 0.88 0.80 0.90 0.89 0.95 0.99 0.79 0.75 0.75 0.65 0.51 0.64 0.60 0.62 0.78 0.73 0.72 0.78 0.64 0.53 0.45 0.42 0.44 0.32 0.27 0.26 0.30 0.33 0.30 0.36 0.45 0.66 1.04 1.09 0.94 1.08 1.32 1.42 1.26 1.04 0.94 0.93
1.49 1.25 1.00 0.93 0.91 1.04 1.16 1.08 1.03 1.00 0.92 0.83 0.88 0.75 0.84 0.96 1.05 1.13 1.27 1.11 1.00 0.90 0.85 0.74 0.65 0.50 0.45 0.46 0.46 0.49 0.57 0.60 0.78 1.00 1.04 0.89 0.93 1.25 1.57 1.52 1.32 1.21 1.17
1.81 1.59 1.32 1.12 1.09 1.17 1.29 1.31 1.25 1.22 1.17 1.21 1.30 1.11 1.11 1.07 1.17 1.46 1.52 1.65 1.40 1.36 1.29 1.15 0.98 0.90 0.78 0.69 0.66 0.69 0.76 0.76 0.82 0.94 0.96 0.93 0.95 1.16 1.51 1.66 1.62 1.60 1.50
2.31 1.91 1.65 1.50 1.34 1.23 1.22 1.31 1.31 1.28 1.40 1.48 1.61 1.52 1.48 1.49 1.63 1.98 2.05 1.95 1.74 1.78 1.86 1.84 1.64 1.41 1.20 1.11 1.01 0.99 1.03 1.08 1.15 1.17 1.18 1.10 1.00 1.10 1.40 1.65 1.82 1.95 1.89
2.37 2.26 2.06 1.90 1.75 1.46 1.31 1.42 1.51 1.43 1.46 1.53 1.74 1.86 1.83 1.85 2.09 2.16 2.40 2.36 2.17 2.10 2.04 1.98 2.09 2.05 1.72 1.46 1.33 1.29 1.38 1.39 1.41 1.44 1.50 1.51 1.31 1.21 1.30 1.49 1.67 1.78 1.82
2.53 2.24 2.20 1.93 1.71 1.74 1.65 1.78 1.84 1.95 2.02 1.95 2.00 2.28 2.37 2.36 2.40 2.43 2.46 2.46 2.37 2.33 2.52 2.58 2.48 2.42 2.30 2.04 1.84 1.71 1.65 1.72 1.62 1.57 1.55 1.66 1.71 1.44 1.24 1.24 1.32 1.43 1.63
2.01 2.03 2.05 1.98 1.80 1.73 1.93 2.22 2.35 2.54 2.76 2.88 2.86 3.06 3.03 2.84 2.80 2.89 2.95 2.98 2.83 2.85 2.81 2.70 2.84 2.74 2.64 2.42 2.05 1.87 1.71 1.74 1.66 1.46 1.45 1.56 1.62 1.51 1.41 1.25 1.24 1.34 1.58
1.79 1.87 1.99 2.14 2.20 2.06 2.08 2.31 2.69 2.86 3.05 3.41 3.48 3.55 3.62 3.63 3.57 3.57 3.53 3.52 3.37 3.25 3.11 3.03 2.99 2.77 2.64 2.41 2.00 1.81 1.65 1.50 1.45 1.44 1.30 1.29 1.31 1.21 1.27 1.27 1.27 1.24 1.39
2.02 2.19 2.11 2.17 2.37 2.52 2.76 2.77 2.91 3.24 3.61 3.81 4.00 4.12 4.11 4.04 4.03 3.86 3.74 3.78 3.60 3.42 3.23 3.08 2.98 2.89 2.60 2.36 2.29 2.01 1.61 1.39 1.28 1.20 1.18 1.15 1.09 1.07 1.19 1.20 1.15 1.13 1.17
2.02 2.22 2.33 2.40 2.73 3.19 3.60 3.99 4.34 4.61 4.59 4.74 4.78 4.75 4.59 4.46 4.35 4.15 4.09 3.98 3.75 3.55 3.31 3.09 2.95 2.91 2.68 2.48 2.46 2.37 1.89 1.52 1.19 0.93 0.95 0.98 0.97 1.00 1.03 1.00 0.96 0.97 1.02
2.03 2.27 2.44 2.70 3.31 4.10 4.47 4.76 5.28 5.57 5.37 5.16 4.93 4.83 4.73 4.71 4.70 4.52 4.39 4.12 3.86 3.57 3.30 3.04 2.85 2.78 2.70 2.57 2.39 2.46 2.17 1.76 1.35 1.04 0.88 0.83 0.85 0.93 0.95 0.92 0.89 0.88 0.91
2.28 2.39 2.55 3.01 3.73 4.37 4.82 5.36 5.88 6.10 6.10 5.93 5.44 4.99 4.54 4.20 4.01 3.92 3.86 3.69 3.46 3.19 3.00 2.77 2.57 2.48 2.57 2.46 2.32 2.14 1.98 1.74 1.53 1.27 1.01 0.88 0.85 0.88 0.92 0.90 0.89 0.90 0.91
2.07 2.47 2.71 3.19 3.84 4.50 5.17 5.82 6.18 6.38 6.34 5.91 5.12 4.37 3.91 3.61 3.33 3.12 3.01 2.91 2.77 2.64 2.49 2.42 2.36 2.25 2.20 2.11 1.99 1.88 1.78 1.65 1.44 1.27 1.12 0.98 0.94 0.94 0.96 0.96 0.98 0.98 0.97
1.96 2.24 2.64 2.93 3.53 4.19 4.75 5.24 5.37 5.51 5.44 5.01 4.54 4.04 3.64 3.19 2.70 2.35 2.17 2.07 1.98 1.91 1.92 1.95 1.97 1.93 1.87 1.83 1.77 1.67 1.60 1.56 1.46 1.36 1.21 1.09 1.09 1.03 0.99 0.96 0.95 0.99 1.01

GEFSSE_prec_meanprecacc_156.txt.gz
Total_Precipitation_Accumulation
0.09 0.05 0.06 0.04 0.06 0.09 0.10 0.10 0.12 0.12 0.10 0.10 0.13 0.16 0.15 0.10 0.09 0.08 0.08 0.09 0.12 0.17 0.19 0.20 0.24 0.26 0.25 0.21 0.16 0.11 0.08 0.08 0.07 0.08 0.14 0.20 0.28 0.28 0.28 0.26 0.40 0.45 0.21
0.09 0.05 0.05 0.04 0.05 0.07 0.09 0.10 0.11 0.10 0.09 0.09 0.10 0.12 0.12 0.11 0.09 0.09 0.09 0.10 0.13 0.16 0.17 0.17 0.18 0.21 0.19 0.12 0.10 0.07 0.06 0.09 0.15 0.22 0.29 0.31 0.40 0.37 0.35 0.28 0.48 0.63 0.28
0.08 0.05 0.04 0.05 0.05 0.06 0.07 0.09 0.10 0.09 0.09 0.09 0.09 0.10 0.11 0.10 0.10 0.10 0.10 0.13 0.19 0.23 0.21 0.19 0.19 0.20 0.18 0.13 0.09 0.07 0.08 0.15 0.27 0.46 0.74 0.72 0.62 0.47 0.39 0.27 0.28 0.26 0.27
0.08 0.05 0.04 0.05 0.05 0.06 0.06 0.09 0.11 0.11 0.09 0.09 0.09 0.09 0.10 0.09 0.09 0.09 0.11 0.14 0.21 0.26 0.26 0.24 0.22 0.20 0.17 0.13 0.11 0.11 0.14 0.22 0.39 0.68 1.21 1.02 0.82 0.64 0.47 0.32 0.29 0.25 0.30
0.10 0.06 0.04 0.05 0.05 0.06 0.07 0.08 0.11 0.12 0.10 0.09 0.10 0.10 0.10 0.10 0.10 0.12 0.14 0.14 0.17 0.22 0.22 0.17 0.15 0.15 0.15 0.12 0.12 0.15 0.22 0.36 0.60 0.94 1.39 1.40 1.29 0.88 0.51 0.35 0.37 0.38 0.39
0.14 0.07 0.04 0.06 0.07 0.08 0.10 0.10 0.12 0.11 0.11 0.12 0.12 0.14 0.14 0.14 0.13 0.16 0.19 0.20 0.19 0.20 0.18 0.16 0.15 0.14 0.15 0.12 0.13 0.21 0.33 0.53 0.70 1.07 1.41 1.46 1.20 0.88 0.59 0.49 0.47 0.45 0.44
0.19 0.12 0.07 0.07 0.10 0.12 0.15 0.17 0.19 0.18 0.18 0.18 0.19 0.20 0.20 0.18 0.19 0.20 0.21 0.22 0.21 0.21 0.19 0.18 0.19 0.17 0.15 0.13 0.15 0.23 0.36 0.56 0.79 1.48 1.51 1.44 1.29 0.94 0.71 0.57 0.48 0.44 0.42
0.25 0.15 0.13 0.10 0.13 0.19 0.22 0.25 0.27 0.25 0.22 0.22 0.24 0.25 0.22 0.19 0.18 0.18 0.18 0.20 0.22 0.25 0.24 0.19 0.13 0.11 0.09 0.11 0.12 0.19 0.33 0.43 0.64 1.12 1.36 1.27 1.05 0.83 0.73 0.56 0.47 0.41 0.38
0.38 0.23 0.19 0.15 0.14 0.21 0.29 0.27 0.26 0.24 0.24 0.25 0.30 0.32 0.27 0.22 0.18 0.18 0.20 0.22 0.22 0.23 0.19 0.13 0.08 0.07 0.06 0.07 0.09 0.14 0.27 0.41 0.62 0.94 1.03 1.09 0.86 0.73 0.74 0.64 0.51 0.42 0.39
0.55 0.38 0.31 0.29 0.26 0.26 0.27 0.28 0.28 0.26 0.28 0.28 0.29 0.27 0.24 0.19 0.18 0.19 0.19 0.20 0.19 0.20 0.19 0.15 0.11 0.10 0.09 0.08 0.10 0.14 0.23 0.31 0.49 0.78 1.23 1.24 0.85 0.88 0.89 0.72 0.61 0.52 0.42
0.60 0.54 0.50 0.45 0.42 0.37 0.31 0.26 0.29 0.26 0.27 0.26 0.23 0.20 0.20 0.24 0.31 0.31 0.25 0.24 0.24 0.24 0.23 0.19 0.17 0.15 0.13 0.11 0.13 0.17 0.18 0.26 0.57 1.03 1.47 1.29 0.95 1.00 0.97 0.82 0.70 0.65 0.57
0.82 0.78 0.74 0.72 0.66 0.57 0.51 0.49 0.46 0.38 0.34 0.30 0.33 0.28 0.30 0.56 0.65 0.56 0.57 0.45 0.40 0.34 0.28 0.26 0.24 0.21 0.18 0.19 0.23 0.21 0.23 0.36 0.78 1.37 1.37 0.91 1.02 1.18 1.16 1.05 0.94 0.86 0.82
1.20 0.94 0.85 0.95 0.94 0.99 1.05 0.86 0.81 0.78 0.68 0.54 0.67 0.64 0.66 0.84 0.78 0.78 0.83 0.70 0.56 0.48 0.46 0.50 0.37 0.31 0.29 0.34 0.38 0.34 0.39 0.49 0.71 1.09 1.19 1.03 1.15 1.38 1.46 1.32 1.12 1.04 1.04
1.52 1.29 1.05 0.98 0.96 1.08 1.22 1.16 1.10 1.05 0.98 0.89 0.93 0.80 0.91 1.04 1.12 1.21 1.36 1.20 1.07 0.96 0.92 0.83 0.73 0.57 0.51 0.50 0.50 0.53 0.61 0.63 0.80 1.05 1.15 0.95 1.01 1.33 1.62 1.57 1.39 1.30 1.28
1.85 1.63 1.37 1.16 1.14 1.22 1.35 1.38 1.32 1.30 1.26 1.30 1.40 1.21 1.20 1.17 1.27 1.56 1.61 1.74 1.47 1.43 1.36 1.24 1.06 0.99 0.86 0.75 0.70 0.73 0.81 0.80 0.84 1.02 1.04 1.00 1.03 1.23 1.56 1.72 1.70 1.72 1.68
2.34 1.96 1.70 1.56 1.40 1.29 1.28 1.38 1.39 1.37 1.50 1.58 1.72 1.62 1.57 1.60 1.74 2.09 2.15 2.06 1.81 1.84 1.93 1.92 1.72 1.51 1.30 1.20 1.07 1.04 1.08 1.11 1.21 1.25 1.25 1.18 1.06 1.14 1.44 1.69 1.88 2.05 2.03
2.41 2.31 2.11 1.96 1.84 1.55 1.38 1.49 1.60 1.52 1.56 1.63 1.85 1.96 1.93 1.96 2.20 2.27 2.51 2.46 2.25 2.17 2.13 2.07 2.19 2.16 1.81 1.54 1.41 1.39 1.48 1.46 1.48 1.50 1.54 1.56 1.37 1.25 1.33 1.53 1.71 1.83 1.90
2.56 2.28 2.25 1.99 1.80 1.83 1.75 1.87 1.93 2.03 2.11 2.05 2.09 2.37 2.46 2.45 2.50 2.54 2.56 2.56 2.46 2.42 2.62 2.67 2.57 2.51 2.38 2.13 1.94 1.80 1.74 1.79 1.66 1.60 1.58 1.69 1.76 1.51 1.31 1.29 1.36 1.47 1.68
2.05 2.08 2.11 2.04 1.87 1.84 2.03 2.34 2.48 2.65 2.86 2.97 2.95 3.16 3.12 2.93 2.91 3.01 3.05 3.07 2.92 2.94 2.90 2.76 2.93 2.82 2.72 2.51 2.14 1.94 1.78 1.81 1.73 1.50 1.49 1.60 1.67 1.60 1.52 1.33 1.30 1.39 1.63
1.80 1.91 2.04 2.20 2.26 2.14 2.18 2.41 2.80 2.98 3.16 3.52 3.59 3.66 3.72 3.74 3.70 3.70 3.62 3.60 3.46 3.36 3.21 3.12 3.07 2.86 2.71 2.48 2.08 1.89 1.72 1.57 1.52 1.50 1.35 1.35 1.37 1.28 1.37 1.37 1.37 1.30 1.45
2.05 2.23 2.15 2.21 2.42 2.59 2.85 2.88 3.02 3.37 3.73 3.91 4.11 4.22 4.21 4.14 4.13 3.99 3.87 3.89 3.71 3.53 3.33 3.19 3.08 2.99 2.70 2.45 2.39 2.10 1.68 1.46 1.35 1.27 1.25 1.22 1.15 1.15 1.28 1.30 1.28 1.25 1.26
2.07 2.27 2.39 2.46 2.80 3.29 3.73 4.14 4.50 4.78 4.74 4.85 4.89 4.85 4.67 4.54 4.42 4.22 4.18 4.07 3.83 3.64 3.39 3.17 3.04 3.01 2.78 2.59 2.56 2.47 1.98 1.60 1.27 1.01 1.03 1.06 1.05 1.09 1.11 1.09 1.07 1.09 1.14
2.11 2.33 2.53 2.84 3.44 4.24 4.65 4.98 5.47 5.77 5.55 5.31 5.04 4.93 4.81 4.78 4.77 4.58 4.45 4.17 3.91 3.62 3.35 3.10 2.92 2.86 2.77 2.66 2.50 2.57 2.27 1.85 1.45 1.14 0.97 0.91 0.95 1.04 1.05 1.02 0.98 0.96 1.00
2.40 2.47 2.69 3.23 3.91 4.52 4.98 5.54 6.06 6.27 6.30 6.11 5.56 5.08 4.62 4.26 4.05 3.96 3.89 3.72 3.50 3.23 3.04 2.81 2.63 2.54 2.64 2.54 2.42 2.24 2.09 1.85 1.63 1.36 1.09 0.96 0.95 0.99 1.03 1.00 0.98 0.99 0.99
2.16 2.55 2.82 3.33 3.98 4.61 5.27 5.94 6.33 6.53 6.49 6.07 5.25 4.47 3.98 3.66 3.37 3.15 3.04 2.94 2.81 2.68 2.54 2.47 2.41 2.30 2.27 2.20 2.08 1.99 1.88 1.76 1.54 1.36 1.20 1.06 1.02 1.03 1.04 1.04 1.08 1.07 1.05
2.02 2.31 2.72 3.02 3.63 4.30 4.85 5.35 5.49 5.64 5.57 5.12 4.62 4.11 3.69 3.24 2.74 2.39 2.21 2.10 2.02 1.95 1.96 1.99 2.02 1.98 1.93 1.89 1.85 1.76 1.69 1.67 1.56 1.46 1.29 1.17 1.17 1.11 1.06 1.03 1.02 1.05 1.07

GEFSSE_prec_meanprecacc_162.txt.gz
Total_Precipitation_Accumulation
0.10 0.05 0.06 0.04 0.06 0.09 0.10 0.10 0.13 0.12 0.10 0.10 0.13 0.16 0.15 0.11 0.09 0.08 0.08 0.09 0.12 0.17 0.20 0.21 0.24 0.26 0.25 0.21 0.16 0.11 0.09 0.09 0.09 0.10 0.16 0.23 0.30 0.30 0.30 0.28 0.42 0.46 0.22
0.10 0.05 0.06 0.04 0.05 0.07 0.09 0.10 0.11 0.10 0.09 0.09 0.10 0.12 0.12 0.11 0.09 0.09 0.09 0.10 0.13 0.16 0.18 0.17 0.18 0.21 0.19 0.12 0.10 0.07 0.06 0.09 0.16 0.25 0.32 0.34 0.42 0.39 0.37 0.31 0.51 0.65 0.29
0.09 0.05 0.05 0.05 0.05 0.06 0.07 0.09 0.10 0.09 0.09 0.09 0.10 0.10 0.11 0.10 0.10 0.10 0.10 0.13 0.19 0.23 0.21 0.19 0.19 0.20 0.18 0.13 0.09 0.07 0.08 0.15 0.29 0.49 0.78 0.76 0.65 0.49 0.42 0.30 0.31 0.29 0.28
0.09 0.05 0.04 0.05 0.05 0.06 0.06 0.09 0.11 0.11 0.09 0.09 0.09 0.09 0.10 0.09 0.09 0.09 0.11 0.15 0.21 0.26 0.26 0.24 0.22 0.20 0.17 0.13 0.11 0.11 0.14 0.24 0.42 0.72 1.26 1.10 0.90 0.70 0.52 0.35 0.30 0.26 0.30
0.11 0.06 0.04 0.05 0.05 0.06 0.07 0.08 0.11 0.12 0.10 0.10 0.10 0.10 0.10 0.10 0.10 0.12 0.14 0.15 0.18 0.22 0.22 0.17 0.16 0.15 0.15 0.12 0.12 0.15 0.22 0.38 0.64 1.01 1.47 1.49 1.39 0.97 0.58 0.40 0.38 0.38 0.40
0.14 0.08 0.04 0.06 0.07 0.08 0.10 0.11 0.12 0.11 0.12 0.12 0.13 0.14 0.15 0.14 0.14 0.16 0.20 0.21 0.19 0.20 0.18 0.16 0.15 0.14 0.15 0.12 0.14 0.21 0.33 0.55 0.75 1.13 1.50 1.56 1.30 0.98 0.68 0.54 0.49 0.46 0.45
0.20 0.12 0.07 0.07 0.10 0.12 0.15 0.17 0.19 0.19 0.18 0.19 0.20 0.20 0.20 0.18 0.19 0.20 0.21 0.22 0.21 0.21 0.19 0.18 0.19 0.17 0.15 0.13 0.15 0.23 0.36 0.58 0.83 1.57 1.65 1.58 1.41 1.07 0.81 0.64 0.53 0.47 0.44
0.25 0.16 0.13 0.10 0.14 0.19 0.22 0.25 0.28 0.25 0.23 0.23 0.24 0.25 0.22 0.19 0.19 0.18 0.18 0.20 0.22 0.25 0.24 0.19 0.14 0.11 0.09 0.11 0.13 0.19 0.34 0.45 0.67 1.22 1.50 1.43 1.16 0.94 0.85 0.63 0.53 0.45 0.41
0.39 0.23 0.19 0.15 0.14 0.22 0.29 0.28 0.26 0.25 0.25 0.26 0.30 0.32 0.27 0.23 0.19 0.18 0.21 0.22 0.23 0.23 0.20 0.13 0.09 0.07 0.07 0.08 0.09 0.14 0.29 0.43 0.66 1.02 1.16 1.23 0.96 0.84 0.84 0.72 0.56 0.47 0.42
0.56 0.39 0.32 0.29 0.26 0.26 0.27 0.28 0.28 0.27 0.28 0.28 0.29 0.27 0.24 0.19 0.18 0.19 0.19 0.20 0.19 0.20 0.20 0.15 0.11 0.10 0.10 0.09 0.10 0.15 0.24 0.33 0.53 0.85 1.35 1.35 0.95 0.99 0.98 0.80 0.67 0.58 0.47
0.64 0.60 0.54 0.46 0.42 0.38 0.31 0.26 0.29 0.26 0.27 0.26 0.23 0.21 0.20 0.25 0.32 0.31 0.26 0.25 0.25 0.26 0.24 0.20 0.18 0.16 0.14 0.12 0.15 0.19 0.20 0.29 0.60 1.11 1.61 1.42 1.06 1.13 1.08 0.90 0.77 0.71 0.63
0.90 0.92 0.87 0.77 0.68 0.58 0.51 0.49 0.46 0.38 0.34 0.30 0.34 0.29 0.30 0.56 0.66 0.57 0.58 0.49 0.44 0.37 0.30 0.28 0.26 0.22 0.20 0.20 0.25 0.24 0.25 0.39 0.84 1.48 1.51 1.03 1.14 1.34 1.31 1.14 1.00 0.92 0.87
1.27 1.03 0.92 0.99 0.97 1.02 1.08 0.89 0.84 0.80 0.69 0.55 0.68 0.65 0.67 0.86 0.80 0.81 0.87 0.74 0.60 0.51 0.47 0.52 0.39 0.32 0.31 0.36 0.42 0.39 0.43 0.54 0.82 1.31 1.37 1.17 1.29 1.52 1.61 1.42 1.21 1.11 1.11
1.58 1.36 1.12 1.03 1.01 1.13 1.28 1.22 1.18 1.12 1.01 0.90 0.95 0.82 0.93 1.06 1.15 1.24 1.40 1.24 1.11 0.99 0.95 0.86 0.75 0.60 0.55 0.55 0.58 0.62 0.69 0.72 0.92 1.21 1.28 1.08 1.18 1.49 1.76 1.66 1.45 1.37 1.34
1.90 1.70 1.47 1.25 1.20 1.28 1.40 1.44 1.39 1.40 1.33 1.39 1.46 1.24 1.23 1.21 1.31 1.60 1.65 1.79 1.52 1.47 1.41 1.29 1.11 1.04 0.92 0.82 0.81 0.82 0.88 0.89 0.99 1.16 1.17 1.14 1.18 1.38 1.67 1.81 1.76 1.77 1.72
2.39 2.03 1.79 1.65 1.46 1.35 1.36 1.45 1.47 1.45 1.58 1.68 1.81 1.69 1.64 1.67 1.82 2.16 2.22 2.14 1.90 1.91 2.00 1.99 1.80 1.58 1.39 1.28 1.17 1.16 1.19 1.22 1.35 1.39 1.35 1.31 1.18 1.23 1.54 1.79 1.98 2.12 2.08
2.51 2.42 2.22 2.06 1.93 1.64 1.49 1.57 1.66 1.58 1.62 1.68 1.92 2.04 2.02 2.06 2.31 2.36 2.60 2.54 2.34 2.25 2.19 2.14 2.28 2.26 1.91 1.62 1.47 1.48 1.60 1.57 1.62 1.64 1.67 1.66 1.44 1.33 1.42 1.62 1.81 1.92 1.99
2.67 2.41 2.39 2.14 1.96 1.97 1.87 1.95 2.01 2.10 2.17 2.10 2.14 2.43 2.53 2.53 2.59 2.63 2.64 2.62 2.53 2.49 2.68 2.74 2.63 2.56 2.43 2.17 1.98 1.84 1.79 1.85 1.72 1.65 1.64 1.76 1.82 1.56 1.38 1.37 1.46 1.57 1.79
2.22 2.25 2.29 2.21 2.04 1.99 2.16 2.45 2.59 2.74 2.92 3.03 3.00 3.21 3.18 3.00 2.96 3.06 3.11 3.13 2.98 3.00 2.96 2.81 2.98 2.87 2.75 2.53 2.16 1.96 1.80 1.84 1.75 1.53 1.52 1.65 1.74 1.67 1.58 1.41 1.42 1.51 1.73
2.08 2.19 2.29 2.39 2.42 2.33 2.36 2.56 2.94 3.11 3.28 3.61 3.65 3.71 3.77 3.79 3.74 3.75 3.68 3.66 3.52 3.41 3.26 3.17 3.11 2.89 2.74 2.50 2.10 1.90 1.73 1.58 1.53 1.52 1.38 1.39 1.45 1.37 1.46 1.49 1.50 1.41 1.54
2.29 2.42 2.36 2.47 2.66 2.77 3.01 3.04 3.20 3.53 3.86 4.02 4.19 4.29 4.28 4.20 4.20 4.05 3.95 3.96 3.76 3.59 3.39 3.25 3.14 3.05 2.74 2.49 2.41 2.11 1.69 1.47 1.36 1.29 1.28 1.26 1.20 1.22 1.38 1.42 1.40 1.36 1.35
2.28 2.49 2.57 2.66 2.98 3.42 3.87 4.28 4.62 4.90 4.87 5.00 5.04 4.98 4.77 4.61 4.49 4.29 4.27 4.18 3.93 3.73 3.47 3.25 3.11 3.06 2.81 2.61 2.59 2.50 1.99 1.61 1.28 1.02 1.04 1.09 1.09 1.15 1.21 1.22 1.19 1.21 1.27
2.32 2.53 2.70 3.03 3.59 4.37 4.81 5.14 5.62 5.89 5.67 5.45 5.20 5.05 4.90 4.85 4.84 4.64 4.52 4.26 4.03 3.75 3.47 3.18 2.98 2.91 2.81 2.69 2.53 2.60 2.29 1.87 1.46 1.15 0.98 0.93 0.99 1.11 1.15 1.15 1.11 1.06 1.12
2.51 2.63 2.79 3.33 4.03 4.66 5.13 5.67 6.21 6.44 6.47 6.25 5.71 5.24 4.76 4.37 4.16 4.05 3.96 3.78 3.56 3.31 3.13 2.89 2.69 2.58 2.68 2.58 2.45 2.28 2.12 1.88 1.66 1.39 1.12 0.99 0.98 1.03 1.10 1.12 1.10 1.08 1.07
2.21 2.63 2.95 3.50 4.14 4.76 5.42 6.09 6.51 6.74 6.72 6.29 5.47 4.71 4.20 3.82 3.49 3.25 3.12 3.01 2.87 2.74 2.58 2.51 2.45 2.34 2.30 2.23 2.11 2.03 1.92 1.81 1.60 1.42 1.24 1.07 1.04 1.05 1.08 1.10 1.18 1.16 1.13
2.08 2.38 2.86 3.18 3.79 4.45 5.01 5.51 5.66 5.82 5.77 5.34 4.86 4.32 3.90 3.36 2.84 2.48 2.28 2.17 2.07 1.99 1.99 2.02 2.04 2.00 1.95 1.93 1.90 1.82 1.75 1.72 1.61 1.51 1.34 1.19 1.19 1.13 1.09 1.07 1.07 1.11 1.14

GEFSSE_prec_meanprecacc_168.txt.gz
Total_Precipitation_Accumulation
0.10 0.05 0.07 0.05 0.07 0.09 0.10 0.11 0.13 0.12 0.10 0.10 0.13 0.16 0.15 0.11 0.09 0.09 0.08 0.10 0.13 0.17 0.20 0.21 0.24 0.26 0.25 0.22 0.16 0.12 0.09 0.09 0.10 0.12 0.18 0.26 0.33 0.34 0.35 0.34 0.46 0.48 0.24
0.10 0.05 0.06 0.04 0.05 0.08 0.09 0.10 0.11 0.10 0.09 0.09 0.11 0.12 0.12 0.11 0.10 0.09 0.09 0.10 0.13 0.16 0.18 0.17 0.18 0.21 0.19 0.13 0.10 0.08 0.07 0.10 0.17 0.27 0.34 0.36 0.45 0.43 0.43 0.37 0.56 0.69 0.32
0.10 0.05 0.05 0.05 0.05 0.06 0.07 0.09 0.10 0.09 0.09 0.09 0.10 0.10 0.11 0.10 0.10 0.10 0.11 0.14 0.19 0.23 0.22 0.20 0.19 0.21 0.18 0.13 0.10 0.08 0.09 0.16 0.31 0.52 0.82 0.78 0.69 0.55 0.48 0.35 0.34 0.33 0.31
0.10 0.05 0.04 0.05 0.05 0.06 0.06 0.09 0.11 0.11 0.09 0.09 0.09 0.10 0.10 0.10 0.09 0.10 0.11 0.15 0.22 0.27 0.27 0.24 0.22 0.20 0.17 0.13 0.12 0.12 0.15 0.26 0.46 0.77 1.29 1.13 0.93 0.75 0.58 0.39 0.34 0.31 0.34
0.11 0.06 0.05 0.05 0.05 0.06 0.07 0.08 0.11 0.12 0.10 0.10 0.10 0.10 0.10 0.10 0.11 0.12 0.14 0.15 0.18 0.23 0.22 0.17 0.16 0.15 0.16 0.13 0.13 0.17 0.24 0.41 0.68 1.05 1.49 1.51 1.41 1.01 0.64 0.44 0.42 0.42 0.44
0.14 0.08 0.05 0.06 0.07 0.08 0.10 0.11 0.12 0.11 0.12 0.12 0.13 0.14 0.15 0.14 0.14 0.16 0.20 0.21 0.20 0.21 0.19 0.16 0.15 0.14 0.16 0.13 0.14 0.22 0.35 0.58 0.77 1.16 1.53 1.58 1.32 1.03 0.75 0.62 0.55 0.51 0.49
0.20 0.12 0.08 0.07 0.10 0.12 0.15 0.17 0.19 0.19 0.18 0.19 0.20 0.21 0.20 0.19 0.19 0.20 0.21 0.22 0.21 0.22 0.20 0.18 0.19 0.17 0.15 0.14 0.16 0.24 0.38 0.60 0.85 1.59 1.67 1.60 1.43 1.13 0.91 0.74 0.61 0.52 0.48
0.25 0.16 0.13 0.10 0.14 0.19 0.22 0.25 0.28 0.25 0.23 0.23 0.24 0.25 0.23 0.19 0.19 0.18 0.19 0.20 0.23 0.25 0.25 0.20 0.14 0.11 0.10 0.12 0.13 0.20 0.35 0.47 0.69 1.24 1.53 1.45 1.18 0.99 0.94 0.74 0.62 0.52 0.47
0.39 0.23 0.19 0.16 0.15 0.23 0.30 0.28 0.27 0.25 0.25 0.26 0.31 0.33 0.28 0.23 0.19 0.19 0.21 0.22 0.23 0.23 0.20 0.13 0.09 0.08 0.08 0.09 0.11 0.16 0.30 0.45 0.67 1.04 1.18 1.26 0.99 0.89 0.95 0.84 0.66 0.54 0.48
0.57 0.39 0.33 0.32 0.28 0.27 0.29 0.30 0.29 0.27 0.28 0.29 0.29 0.28 0.24 0.19 0.19 0.20 0.20 0.20 0.20 0.21 0.20 0.16 0.12 0.12 0.12 0.11 0.12 0.16 0.26 0.35 0.55 0.86 1.37 1.36 0.97 1.04 1.08 0.91 0.78 0.66 0.53
0.65 0.63 0.62 0.51 0.45 0.41 0.34 0.28 0.31 0.27 0.28 0.27 0.23 0.21 0.21 0.25 0.32 0.31 0.26 0.26 0.26 0.27 0.26 0.22 0.20 0.18 0.16 0.15 0.18 0.22 0.22 0.30 0.61 1.12 1.62 1.43 1.10 1.21 1.19 1.01 0.88 0.81 0.70
0.91 0.94 0.94 0.85 0.72 0.62 0.54 0.51 0.48 0.40 0.35 0.30 0.34 0.29 0.30 0.56 0.66 0.57 0.59 0.50 0.46 0.41 0.33 0.32 0.30 0.25 0.23 0.22 0.28 0.27 0.27 0.41 0.85 1.50 1.53 1.05 1.18 1.41 1.40 1.24 1.10 1.01 0.97
1.30 1.05 0.95 1.02 1.00 1.06 1.11 0.92 0.87 0.82 0.71 0.56 0.69 0.65 0.68 0.86 0.80 0.81 0.88 0.74 0.61 0.53 0.50 0.54 0.42 0.35 0.33 0.38 0.44 0.40 0.45 0.57 0.85 1.34 1.39 1.19 1.33 1.59 1.68 1.53 1.32 1.22 1.22
1.62 1.41 1.16 1.07 1.05 1.18 1.34 1.27 1.22 1.14 1.03 0.92 0.98 0.84 0.95 1.08 1.17 1.26 1.42 1.25 1.12 1.01 0.98 0.89 0.79 0.63 0.58 0.58 0.61 0.64 0.72 0.75 0.95 1.23 1.30 1.11 1.23 1.57 1.87 1.81 1.60 1.50 1.46
1.96 1.76 1.53 1.31 1.26 1.34 1.47 1.50 1.45 1.45 1.38 1.46 1.53 1.31 1.29 1.26 1.36 1.64 1.68 1.81 1.54 1.51 1.45 1.33 1.15 1.09 0.97 0.87 0.85 0.85 0.91 0.92 1.02 1.20 1.20 1.17 1.23 1.47 1.81 1.97 1.91 1.90 1.84
2.47 2.12 1.88 1.73 1.53 1.42 1.44 1.55 1.56 1.52 1.64 1.75 1.89 1.77 1.71 1.74 1.87 2.21 2.28 2.19 1.96 1.97 2.06 2.04 1.84 1.62 1.44 1.33 1.21 1.20 1.22 1.25 1.38 1.42 1.37 1.34 1.23 1.30 1.65 1.93 2.14 2.28 2.21
2.60 2.53 2.34 2.16 2.03 1.74 1.59 1.67 1.77 1.69 1.72 1.77 1.98 2.11 2.09 2.13 2.37 2.43 2.66 2.60 2.40 2.30 2.25 2.20 2.34 2.32 1.95 1.65 1.51 1.51 1.62 1.60 1.64 1.67 1.70 1.70 1.48 1.38 1.50 1.73 1.94 2.08 2.15
2.77 2.53 2.50 2.24 2.08 2.09 1.99 2.08 2.14 2.24 2.30 2.20 2.22 2.51 2.60 2.59 2.63 2.68 2.69 2.68 2.59 2.55 2.74 2.80 2.70 2.62 2.48 2.21 2.02 1.86 1.80 1.87 1.75 1.68 1.67 1.79 1.85 1.58 1.41 1.43 1.54 1.66 1.89
2.30 2.33 2.38 2.31 2.15 2.13 2.31 2.60 2.74 2.90 3.07 3.16 3.10 3.29 3.26 3.07 3.02 3.12 3.16 3.19 3.05 3.08 3.04 2.88 3.04 2.93 2.81 2.58 2.20 1.99 1.82 1.85 1.76 1.54 1.53 1.67 1.76 1.68 1.60 1.44 1.48 1.59 1.82
2.15 2.28 2.39 2.52 2.60 2.56 2.59 2.78 3.13 3.26 3.42 3.75 3.80 3.82 3.86 3.87 3.82 3.83 3.75 3.73 3.59 3.48 3.33 3.23 3.17 2.95 2.79 2.56 2.14 1.93 1.75 1.59 1.54 1.53 1.39 1.41 1.46 1.38 1.47 1.49 1.52 1.45 1.60
2.38 2.52 2.45 2.57 2.79 2.96 3.25 3.23 3.36 3.67 4.00 4.16 4.36 4.45 4.40 4.30 4.29 4.15 4.04 4.04 3.85 3.67 3.46 3.32 3.20 3.11 2.80 2.55 2.46 2.15 1.71 1.48 1.37 1.29 1.28 1.26 1.21 1.22 1.39 1.43 1.41 1.38 1.38
2.36 2.56 2.65 2.73 3.07 3.54 4.01 4.43 4.75 5.03 5.00 5.13 5.17 5.11 4.90 4.74 4.61 4.42 4.40 4.29 4.03 3.82 3.57 3.35 3.21 3.16 2.92 2.70 2.65 2.54 2.02 1.63 1.29 1.03 1.05 1.09 1.09 1.16 1.22 1.23 1.20 1.22 1.29
2.36 2.58 2.76 3.08 3.65 4.43 4.88 5.26 5.76 6.06 5.84 5.62 5.35 5.22 5.08 5.02 5.00 4.81 4.67 4.37 4.11 3.81 3.52 3.25 3.05 2.98 2.90 2.78 2.59 2.65 2.32 1.89 1.47 1.16 0.99 0.94 1.00 1.11 1.16 1.16 1.13 1.09 1.15
2.55 2.67 2.85 3.38 4.08 4.70 5.19 5.76 6.30 6.56 6.63 6.46 5.92 5.42 4.96 4.57 4.33 4.21 4.12 3.90 3.65 3.38 3.17 2.93 2.73 2.63 2.72 2.63 2.50 2.32 2.16 1.91 1.68 1.40 1.12 0.99 0.98 1.03 1.11 1.12 1.12 1.10 1.11
2.23 2.67 3.01 3.56 4.21 4.82 5.49 6.17 6.60 6.85 6.86 6.47 5.66 4.89 4.39 4.03 3.65 3.38 3.23 3.12 2.96 2.80 2.63 2.55 2.49 2.39 2.35 2.28 2.17 2.08 1.99 1.87 1.64 1.44 1.25 1.08 1.04 1.05 1.08 1.11 1.20 1.20 1.17
2.13 2.45 2.95 3.27 3.86 4.53 5.09 5.61 5.76 5.92 5.89 5.49 5.03 4.51 4.08 3.54 2.99 2.60 2.38 2.27 2.16 2.06 2.05 2.08 2.08 2.04 2.01 1.99 1.97 1.89 1.81 1.79 1.66 1.55 1.36 1.21 1.20 1.14 1.10 1.08 1.08 1.13 1.17

GEFSSE_prec_meanprecacc_174.txt.gz
Total_Precipitation_Accumulation
0.10 0.06 0.07 0.05 0.07 0.10 0.11 0.11 0.13 0.13 0.11 0.11 0.14 0.17 0.16 0.11 0.09 0.09 0.09 0.10 0.13 0.18 0.20 0.21 0.24 0.27 0.25 0.22 0.17 0.12 0.10 0.09 0.10 0.12 0.19 0.26 0.34 0.35 0.38 0.38 0.48 0.51 0.27
0.10 0.05 0.06 0.05 0.05 0.08 0.10 0.10 0.11 0.11 0.10 0.10 0.11 0.13 0.13 0.12 0.10 0.10 0.10 0.10 0.13 0.17 0.18 0.17 0.18 0.21 0.20 0.13 0.10 0.08 0.07 0.10 0.17 0.27 0.35 0.37 0.45 0.44 0.45 0.39 0.58 0.74 0.34
0.10 0.06 0.06 0.06 0.06 0.07 0.07 0.10 0.10 0.10 0.10 0.10 0.11 0.11 0.11 0.11 0.11 0.11 0.11 0.14 0.20 0.23 0.22 0.20 0.21 0.21 0.19 0.13 0.10 0.08 0.09 0.17 0.31 0.53 0.83 0.79 0.70 0.56 0.49 0.36 0.36 0.36 0.33
0.10 0.06 0.04 0.05 0.06 0.06 0.07 0.09 0.12 0.11 0.09 0.09 0.10 0.10 0.11 0.10 0.10 0.10 0.12 0.15 0.22 0.27 0.27 0.26 0.24 0.21 0.17 0.13 0.12 0.12 0.16 0.26 0.47 0.78 1.30 1.13 0.94 0.77 0.61 0.42 0.35 0.33 0.37
0.11 0.06 0.05 0.05 0.05 0.07 0.07 0.09 0.12 0.12 0.10 0.10 0.10 0.10 0.11 0.11 0.11 0.13 0.15 0.16 0.19 0.24 0.23 0.18 0.16 0.16 0.16 0.13 0.13 0.17 0.25 0.41 0.69 1.06 1.50 1.53 1.43 1.04 0.67 0.48 0.45 0.45 0.47
0.15 0.08 0.05 0.07 0.07 0.09 0.10 0.11 0.13 0.12 0.12 0.12 0.13 0.15 0.15 0.15 0.14 0.17 0.21 0.22 0.21 0.21 0.19 0.17 0.16 0.15 0.16 0.13 0.15 0.23 0.35 0.59 0.79 1.17 1.55 1.61 1.35 1.07 0.78 0.65 0.58 0.55 0.52
0.20 0.13 0.08 0.08 0.10 0.13 0.16 0.18 0.20 0.19 0.18 0.19 0.20 0.21 0.20 0.19 0.20 0.21 0.22 0.23 0.22 0.23 0.21 0.19 0.20 0.18 0.16 0.14 0.16 0.24 0.38 0.61 0.86 1.60 1.69 1.64 1.48 1.16 0.96 0.80 0.67 0.57 0.53
0.26 0.16 0.14 0.11 0.15 0.20 0.24 0.26 0.28 0.26 0.23 0.23 0.25 0.26 0.23 0.20 0.19 0.19 0.20 0.21 0.23 0.26 0.26 0.20 0.14 0.12 0.11 0.12 0.14 0.21 0.36 0.48 0.70 1.26 1.55 1.49 1.21 1.02 1.00 0.82 0.72 0.61 0.52
0.41 0.24 0.20 0.17 0.18 0.25 0.33 0.30 0.28 0.26 0.26 0.27 0.31 0.33 0.28 0.23 0.20 0.19 0.22 0.23 0.24 0.24 0.21 0.14 0.10 0.09 0.09 0.10 0.12 0.17 0.31 0.47 0.70 1.07 1.20 1.29 1.01 0.91 1.04 0.96 0.78 0.65 0.56
0.59 0.42 0.36 0.35 0.32 0.31 0.32 0.33 0.31 0.28 0.30 0.30 0.30 0.29 0.25 0.20 0.20 0.21 0.20 0.21 0.20 0.21 0.21 0.17 0.14 0.13 0.13 0.13 0.14 0.19 0.28 0.38 0.58 0.89 1.40 1.39 0.98 1.07 1.15 1.01 0.89 0.78 0.62
0.66 0.65 0.64 0.54 0.48 0.44 0.38 0.32 0.34 0.30 0.30 0.29 0.26 0.23 0.23 0.27 0.34 0.33 0.27 0.27 0.28 0.29 0.27 0.24 0.22 0.21 0.18 0.17 0.20 0.25 0.25 0.32 0.64 1.15 1.66 1.46 1.13 1.26 1.26 1.09 0.96 0.92 0.82
0.93 0.96 0.96 0.87 0.74 0.65 0.58 0.57 0.53 0.44 0.40 0.34 0.38 0.33 0.34 0.59 0.69 0.60 0.61 0.52 0.49 0.44 0.36 0.35 0.32 0.28 0.26 0.25 0.32 0.31 0.29 0.43 0.88 1.53 1.55 1.07 1.21 1.46 1.47 1.32 1.17 1.12 1.10
1.32 1.07 0.97 1.05 1.01 1.09 1.15 0.97 0.94 0.90 0.79 0.67 0.79 0.73 0.74 0.91 0.84 0.85 0.91 0.77 0.65 0.57 0.54 0.60 0.47 0.39 0.37 0.43 0.49 0.45 0.49 0.60 0.89 1.38 1.42 1.23 1.38 1.67 1.79 1.64 1.44 1.36 1.36
1.64 1.43 1.20 1.10 1.08 1.22 1.38 1.33 1.29 1.22 1.14 1.07 1.11 0.95 1.06 1.17 1.25 1.33 1.46 1.28 1.16 1.06 1.06 0.98 0.88 0.69 0.64 0.65 0.66 0.68 0.75 0.77 0.97 1.26 1.33 1.14 1.28 1.64 1.99 1.95 1.73 1.62 1.58
2.00 1.81 1.59 1.36 1.31 1.38 1.52 1.55 1.50 1.51 1.45 1.54 1.65 1.42 1.37 1.35 1.45 1.72 1.74 1.87 1.59 1.56 1.53 1.43 1.25 1.16 1.05 0.95 0.90 0.90 0.96 0.96 1.05 1.23 1.23 1.20 1.25 1.52 1.91 2.08 2.04 2.04 1.98
2.51 2.17 1.94 1.80 1.59 1.47 1.49 1.60 1.62 1.60 1.72 1.81 1.94 1.82 1.78 1.81 1.95 2.28 2.34 2.24 2.00 2.01 2.13 2.13 1.93 1.71 1.51 1.40 1.27 1.26 1.27 1.29 1.43 1.46 1.41 1.38 1.26 1.34 1.71 2.02 2.24 2.41 2.35
2.64 2.56 2.38 2.22 2.09 1.78 1.63 1.73 1.84 1.76 1.79 1.84 2.04 2.17 2.17 2.20 2.44 2.49 2.72 2.66 2.46 2.37 2.33 2.29 2.44 2.41 2.03 1.72 1.58 1.57 1.67 1.64 1.70 1.73 1.75 1.74 1.53 1.42 1.55 1.78 2.00 2.16 2.23
2.80 2.56 2.54 2.28 2.11 2.13 2.03 2.12 2.20 2.29 2.36 2.27 2.30 2.59 2.67 2.67 2.72 2.76 2.75 2.75 2.67 2.63 2.82 2.89 2.79 2.71 2.57 2.30 2.10 1.92 1.86 1.92 1.79 1.72 1.71 1.83 1.91 1.62 1.44 1.45 1.57 1.71 1.94
2.35 2.39 2.44 2.36 2.20 2.17 2.36 2.64 2.79 2.96 3.14 3.24 3.20 3.39 3.35 3.16 3.10 3.18 3.22 3.27 3.12 3.17 3.13 2.97 3.13 3.04 2.91 2.68 2.29 2.06 1.87 1.90 1.80 1.58 1.56 1.70 1.81 1.73 1.64 1.47 1.50 1.61 1.85
2.24 2.35 2.45 2.57 2.64 2.61 2.64 2.83 3.19 3.34 3.48 3.82 3.89 3.90 3.93 3.96 3.90 3.90 3.84 3.83 3.68 3.58 3.44 3.34 3.28 3.04 2.87 2.64 2.22 1.99 1.80 1.64 1.58 1.56 1.41 1.43 1.50 1.42 1.51 1.54 1.57 1.48 1.63
2.45 2.59 2.49 2.61 2.84 3.02 3.32 3.31 3.45 3.79 4.11 4.25 4.44 4.52 4.49 4.40 4.37 4.22 4.12 4.14 3.95 3.77 3.57 3.43 3.30 3.19 2.88 2.61 2.53 2.20 1.75 1.51 1.40 1.31 1.30 1.28 1.23 1.25 1.43 1.48 1.46 1.42 1.42
2.44 2.64 2.71 2.79 3.12 3.60 4.08 4.50 4.84 5.13 5.11 5.24 5.27 5.21 5.01 4.85 4.73 4.53 4.48 4.36 4.11 3.91 3.66 3.43 3.29 3.24 2.99 2.78 2.73 2.63 2.08 1.68 1.33 1.05 1.07 1.10 1.11 1.17 1.24 1.25 1.24 1.26 1.33
2.41 2.64 2.83 3.14 3.72 4.52 5.00 5.38 5.86 6.15 5.91 5.68 5.45 5.34 5.24 5.17 5.12 4.93 4.80 4.48 4.23 3.93 3.61 3.32 3.13 3.06 2.98 2.88 2.70 2.77 2.42 1.95 1.53 1.19 1.01 0.96 1.01 1.13 1.17 1.18 1.15 1.11 1.18
2.57 2.71 2.91 3.44 4.14 4.77 5.28 5.86 6.40 6.64 6.71 6.54 6.02 5.52 5.09 4.75 4.52 4.39 4.30 4.07 3.79 3.49 3.26 3.01 2.80 2.70 2.81 2.72 2.60 2.42 2.25 1.99 1.75 1.45 1.15 1.01 1.00 1.04 1.12 1.14 1.14 1.14 1.14
2.24 2.68 3.04 3.60 4.24 4.87 5.54 6.25 6.68 6.91 6.93 6.55 5.77 5.01 4.50 4.14 3.80 3.55 3.42 3.30 3.11 2.90 2.71 2.62 2.57 2.46 2.42 2.36 2.25 2.17 2.08 1.95 1.71 1.50 1.29 1.10 1.05 1.06 1.09 1.13 1.23 1.23 1.20
2.14 2.46 2.97 3.29 3.89 4.57 5.12 5.64 5.80 5.97 5.95 5.57 5.13 4.65 4.23 3.68 3.15 2.76 2.55 2.44 2.32 2.20 2.15 2.15 2.15 2.11 2.08 2.08 2.06 1.98 1.90 1.88 1.75 1.62 1.42 1.25 1.22 1.15 1.11 1.10 1.11 1.15 1.19